     2.10           OBSERVATION DATA    G (GPS)             RINEX VERSION / TYPE
teqc 2002Apr3 Duncan Agnew 20050511 23:58:33UTC             PGM / RUN BY / DATE
OSX 5.3|G3|cc|OSX 5.3+|G3+                                  COMMENT
BIT 2 OF LLI FLAGS DATA COLLECTED UNDER A/S CONDITION       COMMENT
IMP CO GPS 0006 1995                                        MARKER NAME
8773                                                        MARKER NUMBER
Harold Bryan Caltrans District 11                           OBSERVER / AGENCY
220308773 TRIMBLE 5700 NP 1.24 / SP 1.24                    REC # / TYPE / VERS
12234981 TRM41249.00                                        ANT # / TYPE
 -2288944.0000 -4842726.0000  3450898.0000                  APPROX POSITION XYZ
        1.8900        0.0000        0.0000                  ANTENNA: DELTA H/E/N
     1     1                                                WAVELENGTH FACT L1/2
     7    C1    L1    L2    P1    P2    S1    S2            # / TYPES OF OBSERV
    10.0000                                                 INTERVAL
SNR is mapped to RINEX snr flag value [1-9]                 COMMENT
L1: 3 -> 1; 8 -> 5; 40 -> 9                                 COMMENT
L2: 1 -> 1; 5 -> 5; 60 -> 9                                 COMMENT
  2004     7     7    14     3   20.0000000     GPS         TIME OF FIRST OBS
                                                            END OF HEADER
 04  7  7 14  3 20.0000000  0  3G16G30G22
  23954439.2974     -26899.67659    -20148.77156                  23954435.9694
        41.7504         22.5004
  23632593.4144     117843.85959     64087.06957                  23632591.9304
        43.5004         26.2504
  23722944.5944     -77893.99059    -50880.58757                  23722941.0634
        42.7504         27.0004
 04  7  7 14  3 30.0000000  0  6G 6G16G18G21G30G22
  20152297.6804       9972.84459     19267.47858                  20152295.1414
        51.5004         43.2504
  23952720.1644     -35935.76249    -27189.90746                  23952716.3324
        43.0004         22.7504
  21293055.305
        49.500
  21142770.7274      -5443.10259    -16731.21257                  21142766.8444
        50.5004         39.2504
  23639950.0704     156503.46149     94211.41246                  23639948.8014
        43.0004         24.7504
  23717893.1644    -104437.69549    -71564.05647                  23717889.6454
        43.7504         26.5004
 04  7  7 14  3 40.0000000  0  6G 6G16G18G21G30G22
  20154457.8984      21325.39149     28113.60748                  20154455.2624
        50.7504         41.7504
  23951003.6254     -44952.62549    -34216.01946                  23951000.6054
        42.5004         22.5004
  21290193.6564     -23469.35949    -40659.36057                  21290189.9574
        50.5004         39.2504
  21141616.3134     -11509.64849    -21458.39947                  21141612.4654
        50.5004         38.5004
  23647299.9774     195128.55549    124308.83946                  23647298.6844
        42.5004         24.7504
  23712839.8674    -130993.17649    -92256.62447                  23712836.3444
        43.5004         27.5004
 04  7  7 14  3 50.0000000  0  7G 6G15G16G18G21G30G22
  20156625.1724      32715.34449     36988.88448                  20156622.9304
        50.7504         41.0004
  24239821.4694     -54943.69159    -31301.54556                  24239818.1374
        41.2504         21.0004
  23949295.5864     -53931.87549    -41212.87446                  23949291.4454
        40.5004         22.5004
  21287336.4064     -38482.94149    -52358.26447                  21287332.5514
        51.0004         38.2504
  21140461.4614     -17577.57049    -26186.64947                  21140457.7344
        50.5004         38.0004
  23654647.3204     233737.10549    154393.41846                  23654645.6134
        42.5004         23.5004
  23707787.7424    -157542.11749   -112944.11447                  23707784.4494
        43.0004         28.2504
 04  7  7 14  4  0.0000000  0  7G 6G15G16G18G21G30G22
  20158801.6564      44152.77349     45901.15548                  20158799.3324
        51.2504         40.7504
  24236185.5634     -74051.77049    -46190.98546                  24236182.1994
        40.7504         19.7504
  23947595.7344     -62863.58249    -48172.65646                  23947591.6564
        41.2504         22.0004
  21284486.4924     -53459.52749    -64028.33447                  21284482.8634
        51.5004         38.2504
  21139308.8134     -23636.80549    -30908.13847                  21139304.6024
        50.7504         37.7504
  23661993.4534     272339.10949    184472.84046                  23661991.5354
        42.0004         24.5004
  23702738.6024    -184074.50449   -133618.72047                  23702735.4184
        41.7504         27.0004
 04  7  7 14  4 10.0000000  0 11G 6G15G16G10G18G21G17G26G30G22G29
  20160988.2274      55641.82849     54853.64948                  20160985.7074
        50.2504         40.5004
  24232549.5004     -93159.18449    -61079.90346                  24232546.0904
        41.2504         19.5004
  23945906.4144     -71743.41849    -55092.04146                  23945901.7854
        40.0004         22.2504
  24113486.5634     162156.44159    115315.61456                  24113484.9804
        41.0004         25.0004
  21281643.8834     -68394.84049    -75666.24347                  21281640.7774
        50.7504         38.0004
  21138157.9774     -29683.03149    -35619.48347                  21138153.9184
        50.2504         37.5004
  23761946.4304     107256.18859     67975.03256                  23761944.9884
        41.0004         22.0004
  21646183.3754     -12999.28159     -9208.37557                  21646181.4384
        47.7504         32.7504
  23669338.4534     310938.76249    214550.46946                  23669336.6724
        43.2504         23.5004
  23697693.8204    -210585.97749   -154277.00647                  23697690.5554
        43.2504         27.0004
  22327476.6884      31410.69159     18610.76357                  22327473.9694
        46.5004         31.0004
 04  7  7 14  4 20.0000000  0 11G 6G15G16G10G18G21G17G26G30G22G29
  20163184.6254      67184.23049     63847.72148                  20163181.9414
        51.0004         40.0004
  24228913.7894    -112264.39849    -75967.04346                  24228910.6524
        42.2504         21.0004
  23944226.7034     -80569.70349    -61969.70246                  23944222.3674
        42.0004         22.2504
  24121213.4384     202763.11749    146957.12046                  24121211.5474
        41.7504         22.7504
  21278810.3204     -83287.28149    -87270.74647                  21278806.8524
        50.0004         37.5004
  21137010.2274     -35714.64549    -40319.45147                  21137005.7934
        50.7504         36.5004
  23767079.0634     134228.46149     88992.36346                  23767077.3284
        40.7504         23.0004
  21645584.7424     -16145.76249    -11660.19347                  21645583.0594
        47.2504         32.2504
  23676683.1254     349537.37549    244627.31946                  23676681.9264
        43.7504         24.5004
  23692653.1644    -237074.93749   -174917.78147                  23692649.2384
        43.5004         27.2504
  22329005.4064      39446.84049     24872.71147                  22329003.5864
        46.7504         31.0004
 04  7  7 14  4 30.0000000  0 11G 6G15G16G10G18G21G17G26G30G22G29
  20165391.6724      78782.01249     72884.94048                  20165389.1374
        51.5004         40.2504
  24225279.1644    -131365.28949    -90850.90746                  24225276.0124
        41.5004         21.2504
  23942557.8284     -89340.37149    -68804.01846                  23942553.3364
        42.0004         22.2504
  24128941.5234     243374.91849    178602.69646                  24128939.7894
        42.0004         25.0004
  21275984.8914     -98134.69949    -98840.16847                  21275981.7734
        50.5004         37.5004
  21135865.2974     -41729.58649    -45006.41347                  21135861.5314
        50.5004         37.2504
  23772212.3134     161208.48049    110015.73746                  23772211.8524
        40.2504         22.2504
  21644999.0554     -19222.58649    -14057.71147                  21644997.1954
        48.0004         33.2504
  23684028.4384     388137.25849    274705.10946                  23684027.0354
        43.2504         24.2504
  23687617.0234    -263539.24649   -195539.29547                  23687614.1134
        41.5004         27.0004
  22330547.5784      47545.78949     31183.57147                  22330544.4184
        47.0004         31.7504
 04  7  7 14  4 40.0000000  0 11G 6G15G16G10G18G21G17G26G30G22G29
  20167609.3674      90435.48449     81965.55048                  20167606.5784
        51.0004         39.7504
  24221644.9224    -150461.57049   -105731.15246                  24221642.0664
        42.2504         21.5004
  23940898.9694     -98055.12849    -75594.68646                  23940894.7234
        42.0004         21.7504
  24136671.0784     283992.06649    210252.38446                  24136669.2114
        43.0004         24.0004
  21273168.2584    -112936.84049   -110374.32747                  21273164.8364
        51.0004         37.0004
  21134723.9384     -47727.62149    -49680.23347                  21134719.8834
        50.5004         37.5004
  23777348.4534     188196.43849    131045.25046                  23777347.2974
        40.5004         22.2504
  21644427.0474     -22229.33649    -16400.65047                  21644425.0634
        48.0004         32.5004
  23691374.4224     426738.28549    304783.80346                  23691372.7544
        42.5004         24.2504
  23682586.1564    -289978.53149   -216141.33547                  23682582.4924
        43.5004         27.7504
  22332100.0864      55707.77349     37543.53847                  22332098.0354
        46.7504         31.0004
 04  7  7 14  4 50.0000000  0 11G 6G15G16G10G18G21G17G26G30G22G29
  20169837.5164     102146.61349     91091.10448                  20169835.2664
        50.7504         40.0004
  24218012.4144    -169551.32449   -120606.29246                  24218009.9534
        42.5004         22.5004
  23939252.0474    -106711.86349    -82340.24446                  23939247.7034
        39.5004         22.2504
  24144401.8284     324616.44549    241907.67646                  24144399.9264
        43.2504         24.5004
  21270360.4844    -127691.66849   -121871.58647                  21270357.0394
        50.2504         37.7504
  21133586.1954     -53706.77749    -54339.31347                  21133582.7504
        50.5004         37.5004
  23782485.8914     215194.35549    152082.56046                  23782485.3134
        40.0004         22.5004
  21643868.7424     -25164.10949    -18687.48847                  21643867.0234
        47.7504         33.0004
  23698720.6484     465342.45349    334864.95646                  23698718.9574
        42.0004         25.2504
  23677560.0234    -316390.76249   -236722.29947                  23677556.4494
        42.5004         26.2504
  22333665.7194      63934.68049     43954.10447                  22333663.1374
        47.0004         31.0004
 04  7  7 14  5  0.0000000  0 11G 6G15G16G10G18G21G17G26G30G22G29
  20172077.3204     113916.30949    100262.27448                  20172075.0704
        51.2504         40.0004
  24214381.3834    -188633.55949   -135475.59546                  24214379.3134
        42.5004         23.0004
  23937615.4844    -115309.67249    -89039.80846                  23937611.7154
        41.7504         22.5004
  24152133.7814     365248.94149    273569.35646                  24152131.8164
        43.2504         23.7504
  21267561.9844    -142398.14849   -133331.19447                  21267558.9884
        51.0004         37.7504
  21132452.0394     -59666.08649    -58982.94047                  21132448.3594
        51.2504         37.2504
  23787625.4224     242203.18449    173128.35646                  23787624.6254
        40.2504         22.2504
  21643323.8204     -28025.78549    -20917.37547                  21643322.0394
        48.2504         33.0004
  23706067.6804     503950.60949    364949.19346                  23706065.3054
        41.7504         22.5004
  23672539.3674    -342774.93749   -257281.41747                  23672535.2114
        44.5004         28.5004
  22335244.0944      72227.60949     50416.12947                  22335241.0164
        47.0004         31.5004
 04  7  7 14  5 10.0000000  0 11G 6G15G16G10G18G21G17G26G30G22G29
  20174328.1484     125744.53149    109479.06648                  20174325.8324
        50.7504         39.7504
  24210751.4144    -207708.43449   -150339.09046                  24210749.0704
        43.0004         24.0004
  23935990.7424    -123848.59449    -95693.52446                  23935986.6414
        41.0004         22.5004
  24159867.8594     405889.23049    305237.10746                  24159865.7344
        43.0004         25.0004
  21264772.4454    -157056.50849   -144753.30347                  21264769.4494
        50.5004         37.5004
  21131321.8524     -65605.68749    -63611.20747                  21131318.0004
        50.0004         38.0004
  23792766.8284     269222.71149    194182.46846                  23792766.6684
        40.0004         23.5004
  21642793.4924     -30814.53549    -23090.43747                  21642791.0744
        48.0004         33.2504
  23713414.5864     542562.45749    395036.33046                  23713412.7854
        43.0004         22.7504
  23667523.6884    -369131.15649   -277818.73647                  23667520.0514
        44.0004         27.0004
  22336834.6564      80586.34449     56929.42647                  22336831.7194
        47.5004         31.0004
 04  7  7 14  5 20.0000000  0 11G 6G15G16G10G18G21G17G26G30G22G29
  20176590.4064     137632.09049    118742.09448                  20176588.0274
        51.2504         40.0004
  24207122.9224    -226775.04349   -165196.22346                  24207120.8244
        43.0004         23.0004
  23934377.0004    -132327.77349   -102300.71846                  23934373.4734
        40.7504         22.0004
  24167601.7424     446538.22749    336911.61046                  24167600.8594
        43.2504         23.5004
  21261992.3444    -171665.72749   -156137.09947                  21261989.1094
        50.2504         38.0004
  21130196.0314     -71524.63749    -68223.37947                  21130191.6214
        49.7504         37.5004
  23797911.5554     296253.91849    215245.75146                  23797909.7544
        40.5004         22.7504
  21642276.9144     -33529.27749    -25205.79847                  21642274.9184
        47.7504         33.0004
  23720763.4144     581178.77049    425126.92446                  23720761.7894
        42.5004         22.7504
  23662514.0084    -395458.45749   -298333.51547                  23662509.9534
        43.5004         26.7504
  22338437.7894      89011.88749     63494.78347                  22338435.1414
        47.0004         31.5004
 04  7  7 14  5 30.0000000  0 11G 6G15G16G10G18G21G17G26G30G22G29
  20178863.7974     149579.57049    128051.80748                  20178861.4534
        50.7504         39.7504
  24203496.5704    -245832.99249   -180046.58746                  24203494.0514
        42.5004         22.5004
  23932775.3834    -140746.79349   -108861.00746                  23932771.5004
        40.5004         22.2504
  24175339.6094     487196.22349    368593.18746                  24175338.0904
        41.5004         24.2504
  21259222.0554    -186225.48849   -167482.37747                  21259218.2504
        50.7504         38.2504
  21129073.1334     -77422.59849    -72819.20047                  21129069.4884
        51.2504         37.2504
  23803057.7974     323297.16049    236318.34346                  23803056.1374
        41.2504         24.2504
  21641774.5784     -36169.58249    -27263.19147                  21641772.7584
        48.2504         33.5004
  23728112.6334     619799.86749    455221.29946                  23728111.5274
        42.5004         21.7504
  23657509.9304    -421756.44149   -318825.46747                  23657505.6994
        45.5004         27.5004
  22340053.7734      97504.53149     70112.41547                  22340051.3524
        47.5004         31.5004
 04  7  7 14  5 40.0000000  0 11G 6G15G16G10G18G21G17G26G30G22G29
  20181148.7974     161587.77049    137408.84148                  20181146.6094
        50.5004         40.2504
  24199871.5944    -264881.45349   -194889.50946                  24199869.2154
        42.5004         22.7504
  23931184.5474    -149104.62949   -115373.63846                  23931180.7894
        40.7504         22.7504
  24183078.5474     527864.01649    400282.30846                  24183076.7504
        42.5004         24.2504
  21256460.8444    -200734.80149   -178788.33747                  21256457.4964
        50.2504         38.5004
  21127955.2424     -83298.59449    -77397.89747                  21127951.3634
        49.5004         37.2504
  23808206.1484     350353.37949    257401.05746                  23808204.8634
        41.0004         23.7504
  21641286.5864     -38734.58249    -29261.88947                  21641284.6884
        48.0004         32.7504
  23735462.7504     658426.56349    485319.98046                  23735462.2504
        43.5004         22.5004
  23652511.1644    -448024.08649   -339293.77847                  23652506.9064
        45.0004         27.0004
  22341682.6564     106065.17649     76783.05747                  22341680.6914
        47.0004         31.7504
 04  7  7 14  5 50.0000000  0 11G 6G15G16G10G18G21G17G26G30G22G29
  20183446.0474     173657.84449    146814.06748                  20183443.5864
        51.2504         41.0004
  24196249.2504    -283919.21149   -209724.13846                  24196246.9224
        42.5004         22.5004
  23929606.1564    -157400.09449   -121837.65646                  23929602.1914
        41.2504         22.5004
  24190819.1644     568542.66449    431979.89846                  24190817.3404
        42.5004         25.5004
  21253709.7274    -215192.48849   -190054.08547                  21253706.3524
        50.2504         38.0004
  21126841.5004     -89151.46149    -81958.60047                  21126837.8014
        50.5004         37.5004
  23813357.5554     377423.69549    278494.80746                  23813356.4694
        41.2504         25.5004
  21640812.8984     -41222.94949    -31200.88847                  21640811.0044
        48.5004         33.2504
  23742814.5704     697059.84049    515423.79946                  23742813.1414
        42.5004         22.5004
  23647519.0784    -474260.20749   -359737.52647                  23647514.2774
        44.5004         27.0004
  22343325.2584     114694.99249     83507.56547                  22343323.0594
        47.2504         31.2504
 04  7  7 14  6  0.0000000  0 11G 6G15G16G10G18G21G17G26G30G22G29
  20185754.5234     185789.25849    156267.11248                  20185752.1254
        50.2504         40.0004
  24192628.0394    -302946.87949   -224550.89946                  24192626.2234
        42.0004         23.0004
  23928039.0084    -165633.70349   -128253.39146                  23928035.4384
        40.5004         22.7504
  24198562.3204     609231.60949    463685.60646                  24198559.9884
        43.0004         25.2504
  21250968.1024    -229598.93449   -201279.89047                  21250964.7974
        50.7504         38.0004
  21125731.9614     -94981.81649    -86501.72547                  21125727.7344
        50.2504         37.0004
  23818511.6174     404507.67649    299599.14946                  23818510.5204
        41.7504         24.2504
  21640353.7584     -43635.19149    -33080.53947                  21640351.8404
        48.0004         33.2504
  23750167.5004     735699.14849    545532.39246                  23750166.0474
        43.0004         22.0004
  23642532.1724    -500465.33649   -380157.07047                  23642527.7384
        44.5004         26.0004
  22344980.7734     123393.53949     90285.65047                  22344978.2274
        47.0004         31.5004
 04  7  7 14  6 10.0000000  0 11G 6G15G16G10G18G21G17G26G30G22G29
  20188074.4614     197983.19149    165768.86148                  20188072.5864
        50.7504         40.5004
  24189008.9224    -321963.34449   -239368.95546                  24189007.8094
        42.5004         23.0004
  23926484.7344    -173804.37149   -134620.21446                  23926480.3554
        42.0004         22.7504
  24206307.1334     649931.83249    495400.01446                  24206304.6414
        42.5004         22.5004
  21248236.6254    -243953.17649   -212465.02047                  21248233.3284
        50.7504         38.5004
  21124626.9224    -100788.78949    -91026.65547                  21124623.2234
        50.0004         37.7504
  23823668.2664     431606.29349    320714.91946                  23823667.2974
        40.7504         23.5004
  21639909.6024     -45970.20749    -34900.05047                  21639907.6174
        48.0004         33.7504
  23757521.7894     774345.39549    575646.26946                  23757519.9224
        42.0004         22.7504
  23637551.8524    -526638.25449   -400551.62846                  23637546.5904
        44.2504         24.5004
  22346649.0554     132161.78549     97118.03747                  22346646.6884
        46.0004         31.7504
 04  7  7 14  6 20.0000000  0 11G 6G15G16G10G18G21G17G26G30G22G29
  20190407.1484     210239.94149    175319.56648                  20190404.8754
        51.2504         40.5004
  24185392.4534    -340968.32049   -254178.05646                  24185391.0354
        43.7504         22.7504
  23924941.3284    -181911.71949   -140937.64446                  23924937.6524
        41.0004         22.7504
  24214054.1094     690643.58649    527123.39246                  24214052.5124
        42.0004         22.0004
  21245514.9064    -258254.89849   -223609.22147                  21245511.9924
        50.5004         38.5004
  21123526.5944    -106571.70749    -95532.82747                  21123522.8284
        50.2504         37.2504
  23828827.5234     458719.93449    341842.41046                  23828826.9844
        41.5004         24.7504
  21639480.0164     -48227.55949    -36659.02547                  21639477.9804
        49.0004         33.5004
  23764876.9924     812998.85549    605765.83146                  23764875.6054
        42.7504         22.0004
  23632577.4534    -552778.72749   -420920.82946                  23632572.0514
        43.2504         24.7504
  22348331.0004     141000.16449    104005.08247                  22348328.6414
        47.5004         32.0004
 04  7  7 14  6 30.0000000  0 11G 6G15G16G10G18G21G17G26G30G22G29
  20192751.0944     222558.00849    184918.05148                  20192748.7504
        51.0004         40.0004
  24181778.0004    -359963.28949   -268979.31646                  24181776.3634
        42.7504         23.7504
  23923410.2344    -189957.12949   -147206.75246                  23923406.9804
        40.7504         22.5004
  24221803.2114     731365.30149    558854.57146                  24221801.5124
        41.7504         21.5004
  21242802.9924    -272505.48049   -234713.56347                  21242800.1294
        50.5004         38.0004
  21122430.0554    -112332.04749   -100021.41447                  21122426.0394
        50.2504         37.0004
  23833989.8444     485847.13749    362980.45246                  23833989.0984
        41.5004         25.0004
  21639065.0084     -50408.78949    -38358.68547                  21639062.9454
        48.0004         33.5004
  23772233.8204     851657.90649    635889.77546                  23772232.0514
        43.0004         22.2504
  23627608.8444    -578888.00049   -441265.72246                  23627603.9344
        42.5004         25.5004
  22350025.8364     149907.09049    110945.55847                  22350023.3404
        47.2504         32.0004
 04  7  7 14  6 40.0000000  0 11G 6G15G16G10G18G21G17G26G30G22G29
  20195107.0784     234938.84449    194565.44048                  20195104.8284
        50.5004         40.2504
  24178165.8134    -378946.78549   -283771.70646                  24178163.7424
        42.0004         22.5004
  23921891.5554    -197939.32849   -153426.66446                  23921888.0784
        39.7504         22.0004
  24229554.6884     772098.33249    590594.56246                  24229552.7234
        42.0004         21.5004
  21240101.4694    -286703.59049   -245777.04247                  21240098.1764
        50.7504         38.5004
  21121338.6804    -118068.41849   -104491.31447                  21121334.4964
        50.0004         37.5004
  23839155.0634     512989.33649    384130.19346                  23839154.4574
        42.5004         25.2504
  21638664.4774     -52512.33249    -39997.82547                  21638662.8014
        48.0004         33.7504
  23779591.1564     890323.78949    666019.01646                  23779589.8524
        41.5004         22.0004
  23622646.4924    -604964.66049   -461585.21946                  23622641.5204
        42.7504         22.5004
  22351733.8834     158884.07849    117940.60147                  22351731.5554
        47.0004         31.5004
 04  7  7 14  6 50.0000000  0 11G 6G15G16G10G18G21G17G26G30G22G29
  20197475.1644     247381.82849    204261.28748                  20197473.1724
        51.2504         39.7504
  24174555.3984    -397919.41849   -298555.53146                  24174553.3244
        43.2504         22.2504
  23920384.2424    -205858.71549   -159597.56246                  23920381.3164
        41.2504         22.0004
  24237308.0784     812841.98049    622342.87046                  24237305.6024
        41.2504         21.7504
  21237409.6954    -300849.66849   -256799.95747                  21237406.1294
        50.0004         37.2504
  21120251.6564    -123781.42649   -108943.00847                  21120247.9654
        50.0004         37.0004
  23844322.0704     540145.80949    405291.01446                  23844321.8834
        41.7504         23.5004
  21638279.0084     -54538.68749    -41576.78247                  21638276.9964
        47.7504         33.0004
  23786950.8204     928995.99649    696153.20346                  23786949.0944
        43.0004         22.7504
  23617690.5474    -631009.25449   -481879.68146                  23617685.1254
        43.0004         24.0004
  22353455.7194     167930.47749    124989.73947                  22353453.4494
        47.0004         30.5004
 04  7  7 14  7  0.0000000  0 11G 6G15G16G10G18G21G17G26G30G22G29
  20199854.7274     259887.27749    214005.75548                  20199852.4534
        51.0004         40.0004
  24170946.8834    -416880.84849   -313330.68946                  24170945.1294
        42.2504         24.5004
  23918889.9614    -213714.92249   -165719.36146                  23918885.7814
        40.2504         21.7504
  24245063.2894     853596.49249    654099.65746                  24245061.3134
        41.7504         21.7504
  21234728.0554    -314943.31649   -267782.03847                  21234724.2894
        50.7504         38.5004
  21119168.7814    -129470.79349   -113376.29447                  21119165.0664
        49.7504         38.0004
  23849493.2894     567317.01249    426463.37447                  23849492.4144
        43.0004         25.7504
  21637908.1414     -56487.55549    -43095.37847                  21637906.1994
        48.0004         33.7504
  23794311.4144     967674.55149    726292.29546                  23794309.9454
        41.5004         22.5004
  23612740.3594    -657021.35249   -502148.86147                  23612735.6844
        42.0004         26.0004
  22355190.4694     177046.62149    132093.21947                  22355188.4454
        46.7504         32.0004
 04  7  7 14  7 10.0000000  0 11G 6G15G16G10G18G21G17G26G30G22G29
  20202246.3284     272455.05149    223798.82548                  20202244.1484
        51.5004         40.2504
  24167340.9844    -435831.37549   -328097.34646                  24167339.3914
        42.5004         22.7504
  23917406.6414    -221508.22749   -171792.04046                  23917403.5634
        39.2504         22.0004
  24252820.6334     894361.55549    685864.55946                  24252818.5944
        41.2504         21.0004
  21232055.4774    -328984.79749   -278723.44847                  21232052.2584
        49.7504         38.0004
  21118090.5864    -135136.73449   -117791.31947                  21118086.7154
        50.0004         36.7504
  23854666.8444     594502.61749    447646.93446                  23854665.4454
        43.0004         24.5004
  21637551.9534     -58358.98049    -44553.64847                  21637549.9414
        48.2504         33.7504
  23801672.4064    1006359.26649    756436.18946                  23801670.8524
        41.0004         22.7504
  23607796.7034    -683001.17649   -522392.89046                  23607790.9414
        41.7504         23.7504
  22356938.3984     186232.23449    139250.83447                  22356936.3794
        46.7504         31.0004
 04  7  7 14  7 20.0000000  0 11G 6G15G16G10G18G21G17G26G30G22G29
  20204649.6254     285084.07449    233639.60748                  20204647.1054
        51.0004         40.5004
  24163736.7814    -454772.06649   -342856.32246                  24163735.1134
        42.7504         24.2504
  23915934.9774    -229239.65649   -177816.59046                  23915931.9304
        41.5004         22.5004
  24260579.4224     935136.02749    717636.87246                  24260577.6414
        40.7504         21.5004
  21229393.3594    -342975.24249   -289625.10547                  21229390.1454
        50.5004         38.5004
  21117016.9064    -140780.34049   -122188.94847                  21117012.6914
        50.0004         38.0004
  23859842.2974     621701.59849    468840.89946                  23859841.8524
        43.0004         23.2504
  21637210.8754     -60154.08649    -45952.42847                  21637208.4024
        48.5004         34.7504
  23809035.0394    1045048.84449    786583.88546                  23809033.4774
        41.5004         24.7504
  23602858.9224    -708949.82849   -542612.61546                  23602853.1954
        42.5004         25.2504
  22358699.1414     195486.31349    146461.80547                  22358697.0164
        47.0004         32.0004
 04  7  7 14  7 30.0000000  0 11G 6G15G16G10G18G21G17G26G30G22G29
  20207064.2584     297774.63349    243528.33748                  20207061.8094
        50.5004         40.5004
  24160134.4534    -473702.71949   -357607.50646                  24160131.6174
        42.5004         23.2504
  23914475.6724    -236908.86349   -183792.60446                  23914472.6844
        39.2504         22.0004
  24268340.7034     975920.10549    749416.61346                  24268339.0044
        40.0004         20.0004
  21226740.8134    -356914.29349   -300486.70147                  21226737.4884
        50.0004         38.2504
  21115947.3594    -146401.30949   -126568.92947                  21115943.5824
        50.5004         37.2504
  23865020.1174     648914.26649    490045.51546                  23865019.8164
        42.2504         22.7504
  21636883.6484     -61872.53149    -47291.47247                  21636881.1094
        48.5004         34.2504
  23816398.8204    1083743.47749    816735.54146                  23816396.9774
        42.7504         22.7504
  23597926.6644    -734866.91449   -562807.77046                  23597921.7734
        42.7504         23.0004
  22360472.9694     204809.13349    153726.32747                  22360471.4344
        47.0004         31.5004
 04  7  7 14  7 40.0000000  0 11G 6G15G16G10G18G21G17G26G30G22G29
  20209491.1564     310526.60549    253464.93148                  20209488.6334
        51.0004         40.0004
  24156533.9694    -492623.36749   -372350.83646                  24156532.1954
        42.2504         24.5004
  23913028.2344    -244515.95349   -189720.18446                  23913024.9224
        39.7504         21.5004
  24276103.4924    1016713.61749    781203.76746                  24276101.3204
        40.0004         20.0004
  21224098.0394    -370802.10549   -311308.37847                  21224094.9534
        51.0004         38.0004
  21114881.7424    -151999.79749   -130931.37947                  21114877.7544
        50.0004         37.7504
  23870201.1644     676140.43849    511260.70246                  23870200.3984
        41.5004         22.5004
  21636570.9694     -63514.40249    -48570.85147                  21636568.6914
        48.2504         34.0004
  23823762.9844    1122442.94949    846890.94446                  23823761.5164
        43.0004         24.2504
  23593000.8984    -760752.50849   -582978.34046                  23592995.4964
        41.5004         25.2504
  22362260.8364     214200.52349    161044.31247                  22362258.0904
        46.5004         30.7504
 04  7  7 14  7 50.0000000  0 11G 6G15G16G10G18G21G17G26G30G22G29
  20211929.6564     323340.30149    263449.61448                  20211927.3404
        51.2504         40.0004
  24152935.3204    -511533.71549   -387086.20046                  24152933.5864
        42.0004         23.0004
  23911591.8524    -252060.55949   -195599.13346                  23911589.3324
        40.0004         22.0004
  24283867.7894    1057516.66849    812998.31646                  24283865.6884
        40.0004         19.0004
  21221465.2584    -384638.33249   -322089.85547                  21221462.0124
        50.5004         38.0004
  21113820.5314    -157575.50449   -135276.09247                  21113816.5234
        50.0004         37.2504
  23875384.6954     703380.54749    532486.76346                  23875384.0354
        42.0004         22.7504
  21636273.0704     -65079.29749    -49790.25447                  21636271.2234
        48.0004         33.2504
  23831127.6644    1161147.46949    877050.30046                  23831126.2854
        43.0004         25.2504
  23588080.6724    -786606.14549   -603124.06446                  23588075.0904
        42.0004         22.5004
  22364060.6094     223660.82449    168415.95147                  22364058.2344
        47.0004         30.5004
 04  7  7 14  8  0.0000000  0 11G 6G15G16G10G18G21G17G26G30G22G29
  20214379.5864     336215.04749    273481.87148                  20214377.3754
        51.2504         39.7504
  24149337.6954    -530434.22749   -401813.85546                  24149336.8714
        42.0004         23.0004
  23910168.4454    -259543.22349   -201429.77946                  23910165.2504
        39.0004         21.5004
  24291634.2814    1098328.81349    844800.01146                  24291632.0784
        39.5004         18.5004
  21218841.8674    -398423.44549   -332831.50847                  21218838.5124
        51.0004         37.2504
  21112764.0004    -163128.94149   -139603.46547                  21112760.1024
        50.5004         36.5004
  23880570.8754     730633.96549    553723.16746                  23880570.0124
        41.5004         22.0004
  21635990.0554     -66567.69949    -50950.03947                  21635987.7424
        48.7504         33.7504
  23838494.3594    1199856.41849    907213.10446                  23838491.6174
        42.0004         25.2504
  23583166.8284    -812428.43449   -623245.33446                  23583161.7544
        42.2504         22.0004
  22365873.3754     233189.47349    175840.87647                  22365871.5204
        47.2504         30.5004
 04  7  7 14  8 10.0000000  0 11G 6G15G16G10G18G21G17G26G30G22G29
  20216841.2424     349151.11749    283561.92448                  20216839.1604
        51.0004         40.2504
  24145743.9694    -549324.92249   -416533.87446                  24145741.6684
        41.5004         24.2504
  23908756.4224    -266963.66849   -207211.95946                  23908753.3914
        40.7504         22.2504
  24299402.7034    1139150.02349    876608.72746                  24299399.9654
        40.0004         18.2504
  21216228.3134    -412157.27749   -343533.19347                  21216225.3484
        50.7504         37.5004
  21111711.5164    -168659.95349   -143913.34747                  21111707.5394
        50.2504         37.5004
  23885759.8134     757900.89549    574970.05846                  23885759.2894
        42.0004         22.7504
  21635721.3444     -67979.43049    -52050.09347                  21635719.0164
        48.7504         34.0004
  23845861.1954    1238569.78549    937379.35247                  23845858.9734
        42.5004         26.0004
  23578259.1024    -838219.14549   -643341.99346                  23578254.3634
        42.7504         24.5004
  22367699.6804     242786.63349    183319.17247                  22367698.1884
        46.5004         31.2504
 04  7  7 14  8 20.0000000  0 11G 6G15G16G10G18G21G17G26G30G22G29
  20219314.1724     362148.01249    293689.35948                  20219311.9574
        50.7504         40.7504
  24142150.5474    -568206.15649   -431246.51546                  24142148.8954
        41.2504         22.7504
  23907356.1724    -274322.49249   -212946.10646                  23907352.9414
        40.0004         22.0004
  24307171.4844    1179979.80549    908424.15446                  24307169.2464
        39.5004         18.2504
  21213624.6954    -425840.30149   -354195.29547                  21213621.4144
        50.7504         38.0004
  21110663.4614    -174169.00049   -148206.12447                  21110659.4064
        50.7504         37.5004
  23890951.2424     785180.82849    596227.12346                  23890950.3134
        42.0004         22.7504
  21635467.2664     -69314.84849    -53090.68847                  21635464.6644
        48.2504         33.5004
  23853228.5634    1277287.11349    967548.64146                  23853226.9454
        43.0004         25.0004
  23573357.1564    -863978.65649   -663414.32546                  23573353.2464
        42.5004         25.2504
  22369539.1804     252451.86749    190850.52247                  22369537.1914
        46.7504         30.7504
 04  7  7 14  8 30.0000000  0 11G 6G15G16G10G18G21G17G26G30G22G29
  20221799.2344     375205.39849    303863.94648                  20221796.9884
        52.0004         41.0004
  24138559.7974    -587078.49249   -445952.20346                  24138557.5864
        41.2504         22.5004
  23905967.6024    -281620.03549   -218632.53346                  23905964.7504
        40.0004         22.2504
  24314943.1334    1220817.55149    940245.65746                  24314940.4104
        40.0004         19.5004
  21211030.7424    -439472.89549   -364818.10347                  21211027.3484
        50.5004         38.5004
  21109618.9694    -179656.59049   -152482.16447                  21109614.8484
        50.5004         37.7504
  23896144.7194     812473.31649    617493.97546                  23896143.9694
        42.0004         24.0004
  21635227.5234     -70574.44149    -54072.18147                  21635224.9804
        48.5004         34.0004
  23860597.5314    1316007.76249    997720.56746                  23860595.5204
        42.5004         24.2504
  23568461.5004    -889707.40249   -683462.71046                  23568457.1484
        42.0004         25.2504
  22371391.5474     262184.63749    198434.49947                  22371389.3634
        47.2504         30.2504
 04  7  7 14  8 40.0000000  0 11G 6G15G16G10G18G21G17G26G30G22G29
  20224295.6724     388323.41049    314085.74848                  20224293.3754
        51.0004         40.7504
  24134969.7344    -605941.78549   -460650.89646                  24134967.7814
        41.0004         24.0004
  23904590.6954    -288856.21949   -224271.12446                  23904587.2704
        39.2504         22.7504
  24322715.3674    1261663.33249    972073.54846                  24322713.3014
        40.5004         19.7504
  21208445.9844    -453054.93449   -375401.52747                  21208442.4384
        51.2504         38.5004
  21108578.9694    -185122.51249   -156741.33447                  21108574.7074
        50.0004         38.0004
  23901340.5474     839778.45749    638770.65146                  23901340.1954
        41.7504         23.2504
  21635002.3594     -71757.98449    -54994.43347                  21634999.8554
        48.7504         34.0004
  23867965.9384    1354731.73449   1027895.09946                  23867964.5904
        43.2504         25.0004
  23563571.0084    -915405.27349   -703487.01346                  23563566.8754
        42.0004         24.0004
  22373256.4774     271985.03149    206071.15247                  22373254.3634
        47.0004         31.5004
 04  7  7 14  8 50.0000000  0 11G 6G15G16G10G18G21G17G26G30G22G29
  20226803.3444     401502.16049    324354.90248                  20226800.6724
        51.0004         40.2504
  24131382.3914    -624795.65649   -475342.25046                  24131380.4884
        40.7504         22.5004
  23903225.9534    -296030.55949   -229861.50746                  23903222.1214
        40.0004         21.7504
  24330489.6644    1302517.43049   1003907.89246                  24330488.0904
        38.7504         19.5004
  21205871.2584    -466586.05549   -385945.26247                  21205867.7194
        50.5004         37.5004
  21107543.0004    -190566.40649   -160983.34147                  21107538.9734
        51.2504         37.5004
  23906539.1954     867096.69549    660057.55346                  23906538.9064
        41.7504         23.2504
  21634791.5704     -72865.02749    -55857.07147                  21634789.3484
        48.2504         33.7504
  23875335.4224    1393459.19949   1058072.32946                  23875333.5394
        42.2504         24.0004
  23558687.1564    -941071.75049   -723486.86047                  23558683.0394
        43.0004         26.0004
  22375134.1024     281853.54349    213760.89647                  22375132.3794
        47.2504         31.5004
 04  7  7 14  9  0.0000000  0 11G 6G15G16G10G18G21G17G26G30G22G29
  20229322.4844     414741.25449    334671.07348                  20229320.1994
        51.2504         40.2504
  24127796.0164    -643640.84849   -490026.78646                  24127794.5204
        41.2504         22.2504
  23901872.2344    -303143.72749   -235404.22446                  23901868.5274
        40.5004         22.5004
  24338265.1954    1343379.08649   1035748.22746                  24338264.3284
        38.5004         19.5004
  21203305.6884    -480066.88749   -396449.79647                  21203302.4384
        51.0004         38.0004
  21106510.8834    -195988.93049   -165208.68247                  21106506.9534
        50.5004         37.5004
  23911740.0394     894427.27749    681354.08546                  23911739.5984
        42.0004         23.0004
  21634595.2274     -73896.30549    -56660.65847                  21634593.1564
        48.0004         33.5004
  23882705.5554    1432189.54349   1088251.75946                  23882704.4224
        42.2504         23.2504
  23553808.3134    -966707.51649   -743462.77946                  23553804.6564
        42.0004         25.5004
  22377025.4224     291789.44149    221503.14847                  22377022.7774
        47.5004         30.7504
 04  7  7 14  9 10.0000000  0 11G 6G15G16G10G18G21G17G26G30G22G29
  20231853.1884     428040.37549    345034.01848                  20231851.3164
        50.7504         40.0004
  24124211.1804    -662477.45749   -504704.67646                  24124210.2814
        40.5004         22.5004
  23900529.9614    -310195.93749   -240899.52046                  23900526.4494
        38.7504         23.7504
  24346043.2664    1384248.03549   1067594.03246                  24346041.9184
        39.2504         19.7504
  21200749.9844    -493497.66049   -406915.33747                  21200746.7154
        51.0004         38.0004
  21105483.3284    -201390.30949   -169417.56347                  21105479.2274
        50.7504         37.2504
  23916943.1254     921770.04349    702660.08046                  23916942.0984
        42.2504         23.0004
  21634413.6334     -74851.89149    -57405.27447                  21634411.2114
        48.0004         34.0004
  23890076.4224    1470922.33649   1118433.14646                  23890074.9224
        41.5004         22.5004
  23548936.1174    -992312.71949   -763414.90347                  23548932.8554
        44.0004         26.0004
  22378928.6724     301792.48849    229297.72547                  22378926.4454
        47.0004         30.5004
 04  7  7 14  9 20.0000000  0 11G 6G15G16G10G18G21G17G26G30G22G29
  20234395.7584     441400.51649    355444.50748                  20234393.4414
        51.2504         40.5004
  24120628.6024    -681304.60949   -519375.19046                  24120627.6094
        39.2504         22.0004
  23899200.0784    -317186.10949   -246346.39346                  23899196.3164
        40.2504         22.0004
  24353820.8364    1425125.03949   1099446.24646                  24353820.3634
        38.0004         19.0004
  21198204.0474    -506877.30549   -417341.04447                  21198200.6524
        50.7504         37.7504
  21104459.7814    -206769.56649   -173609.19047                  21104455.5084
        51.0004         37.2504
  23922148.6804     949125.98049    723976.34546                  23922147.9774
        41.5004         24.0004
  21634246.3204     -75730.73849    -58090.08147                  21634243.8404
        48.5004         33.7504
  23897447.7814    1509658.53149   1148617.15046                  23897446.1644
        42.2504         24.0004
  23544069.3594   -1017886.26249   -783342.36447                  23544065.9884
        42.0004         26.2504
  22380845.1254     311863.71149    237145.43947                  22380842.6374
        47.2504         30.5004
 04  7  7 14  9 30.0000000  0 11G 6G15G16G10G18G21G17G26G30G22G29
  20236949.6644     454820.95349    365901.98048                  20236947.2974
        51.0004         40.5004
  24117047.3364    -700123.02349   -534038.84246                  24117046.6334
        39.0004         22.0004
  23897880.4064    -324114.96549   -251745.48546                  23897877.5514
        38.0004         22.7504
  24361601.4694    1466009.40649   1131304.13646                  24361599.4454
        38.7504         20.0004
  21195667.3594    -520206.61349   -427727.52647                  21195664.0634
        50.5004         38.2504
  21103439.7814    -212127.49249   -177784.20647                  21103435.7774
        50.5004         37.7504
  23927357.2814     976494.35549    745302.34246                  23927356.3054
        41.2504         22.5004
  21634093.5474     -76533.57049    -58715.66447                  21634091.4264
        48.5004         33.5004
  23904819.3984    1548397.22349   1178803.16146                  23904818.1414
        42.7504         22.7504
  23539209.3134   -1043428.87549   -803245.67047                  23539205.6844
        43.0004         26.5004
  22382774.7894     322002.26649    245045.60947                  22382772.5514
        47.5004         32.0004
 04  7  7 14  9 40.0000000  0 11G 6G15G16G10G18G21G17G26G30G22G29
  20239515.0474     468301.32049    376406.16448                  20239512.6954
        50.7504         40.7504
  24113468.2734    -718933.06249   -548696.03646                  24113466.6374
        40.0004         22.2504
  23896574.0234    -330982.82049   -257097.07746                  23896570.7704
        40.0004         22.5004
  24369383.3134    1506900.74649   1163167.47646                  24369380.6684
        39.5004         21.0004
  21193140.2664    -533485.80149   -438074.93947                  21193137.0594
        51.0004         37.5004
  21102424.0634    -217464.35549   -181942.80147                  21102420.1134
        51.2504         38.0004
  23932567.2974    1003874.85949    766637.75646                  23932567.3094
        41.5004         24.2504
  21633955.0784     -77260.64849    -59282.21647                  21633953.2734
        48.2504         33.2504
  23912191.2734    1587138.08249   1208990.82646                  23912189.6994
        42.5004         22.7504
  23534354.4844   -1068940.86349   -823125.13647                  23534351.4694
        43.0004         26.0004
  22384716.5634     332207.89849    252998.03647                  22384714.2344
        47.5004         31.7504
 04  7  7 14  9 50.0000000  0 11G 6G15G16G10G18G21G17G26G30G22G29
  20242091.4304     481842.37549    386957.60548                  20242089.3674
        50.5004         41.0004
  24109890.4924    -737734.05149   -563346.15346                  24109888.8714
        39.0004         22.0004
  23895278.8364    -337789.03149   -262400.67046                  23895275.9104
        38.2504         22.5004
  24377165.1484    1547799.63749   1195036.71946                  24377163.9264
        40.0004         21.5004
  21190623.3054    -546714.32049   -448382.88747                  21190619.8794
        51.2504         38.2504
  21101412.7034    -222779.49649   -186084.48847                  21101408.7624
        50.5004         37.5004
  23937780.6414    1031268.14149    787983.11446                  23937780.0824
        42.2504         24.7504
  21633831.5864     -77911.29749    -59789.23647                  21633828.8754
        48.5004         33.7504
  23919564.2974    1625881.51649   1239180.47346                  23919562.9184
        42.2504         24.5004
  23529505.0004   -1094421.51649   -842980.21847                  23529502.1214
        42.5004         27.7504
  22386671.3834     342481.33649    261003.30947                  22386669.4064
        46.5004         32.5004
 04  7  7 14 10  0.0000000  0 11G 6G15G16G10G18G21G17G26G30G22G29
  20244679.9694     495443.48849    397555.87148                  20244677.1524
        51.0004         41.0004
  24106314.5554    -756526.57449   -577989.68246                  24106313.2154
        39.0004         23.2504
  23893995.0084    -344534.03949   -267656.57246                  23893992.0864
        38.0004         21.5004
  24384950.2894    1588705.45749   1226911.35346                  24384948.6484
        40.2504         21.5004
  21188115.3984    -559892.67249   -458651.74047                  21188112.1994
        50.5004         38.0004
  21100405.4774    -228073.42249   -190209.63647                  21100401.3754
        49.7504         37.5004
  23942995.4534    1058673.68049    809338.08146                  23942994.6334
        42.7504         24.7504
  21633722.1954     -78485.92649    -60236.98547                  21633719.6374
        49.0004         34.5004
  23926936.3834    1664626.98049   1269371.74346                  23926935.8634
        43.0004         22.7504
  23524662.7344   -1119871.25049   -862811.16047                  23524659.1294
        42.7504         26.5004
  22388639.1644     352821.89549    269060.87147                  22388637.0904
        46.5004         32.0004
 04  7  7 14 10 10.0000000  0 11G 6G15G16G10G18G21G17G26G30G22G29
  20247279.5474     509104.66449    408200.94448                  20247277.0204
        51.0004         40.2504
  24102740.2034    -775310.62949   -592626.56846                  24102738.6524
        40.0004         21.5004
  23892723.6414    -351217.92249   -272864.78346                  23892720.7274
        38.2504         21.5004
  24392735.7504    1629618.05549   1258791.28746                  24392734.0744
        40.7504         22.0004
  21185617.2344    -573020.77049   -468881.42547                  21185613.9884
        50.0004         37.2504
  21099402.1024    -233346.18049   -194318.28147                  21099397.9654
        50.2504         37.2504
  23948213.1094    1086091.30149    830702.40747                  23948211.9614
        42.2504         26.0004
  21633627.1644     -78984.63749    -60625.58447                  21633624.9534
        48.7504         33.0004
  23934310.4924    1703374.30149   1299564.44646                  23934309.1094
        41.5004         22.7504
  23519825.7814   -1145290.18049   -882618.10047                  23519821.7384
        43.5004         27.5004
  22390619.3204     363229.52049    277170.71347                  22390617.7274
        47.0004         31.5004
 04  7  7 14 10 20.0000000  0 11G 6G15G16G10G18G21G17G26G30G22G29
  20249890.5554     522825.45749    418892.44248                  20249888.1764
        50.5004         40.0004
  24099166.0704    -794086.69149   -607257.28746                  24099165.5744
        38.7504         22.5004
  23891463.2894    -357840.97749   -278025.55946                  23891460.0474
        40.0004         22.2504
  24400522.2734    1670536.96549   1290676.09046                  24400521.3594
        40.7504         22.5004
  21183128.4064    -586098.99249   -479072.25247                  21183125.1914
        50.5004         38.0004
  21098402.8594    -238598.25849   -198410.80947                  21098398.5204
        51.0004         37.2504
  23953432.5554    1113520.76249    852076.01547                  23953431.7544
        42.2504         26.0004
  21633546.3914     -79407.79749    -60955.33247                  21633544.4104
        48.5004         33.5004
  23941684.2424    1742123.00049   1329758.17046                  23941682.9804
        42.7504         22.7504
  23514994.2194   -1170678.60949   -902401.29447                  23514990.7304
        42.0004         27.5004
  22392612.8984     373703.87549    285332.55547                  22392611.1564
        47.0004         32.0004
 04  7  7 14 10 30.0000000  0 11G 6G15G16G10G18G21G17G26G30G22G29
  20252512.9304     536606.50449    429630.93748                  20252510.3714
        50.7504         40.0004
  24095596.1334    -812854.16049   -621881.27046                  24095594.4734
        39.7504         21.5004
  23890214.1174    -364402.62149   -283138.50346                  23890211.1954
        39.0004         21.5004
  24408310.1414    1711462.64849   1322566.25446                  24408309.0204
        41.2504         24.0004
  21180649.5164    -599126.88349   -489223.84847                  21180646.1214
        50.5004         37.5004
  21097407.5314    -243829.01249   -202486.72347                  21097402.7814
        51.0004         37.0004
  23958654.3674    1140962.60249    873459.25646                  23958654.0354
        41.7504         24.5004
  21633480.9304     -79754.68749    -61225.62947                  21633478.4614
        48.0004         32.2504
  23949058.4064    1780873.44149   1359953.32446                  23949056.8794
        43.0004         22.7504
  23510168.8674   -1196035.81249   -922160.14947                  23510165.6684
        44.0004         27.0004
  22394618.8364     384245.50849    293546.81947                  22394617.0004
        46.2504         30.7504
 04  7  7 14 10 40.0000000  0 11G 6G15G16G10G18G21G17G26G30G22G29
  20255146.7194     550448.32049    440416.73148                  20255144.7704
        50.5004         41.2504
  24092026.4614    -831612.49649   -636498.17046                  24092024.7344
        39.5004         21.5004
  23888978.0864    -370902.36749   -288203.26246                  23888974.3874
        38.2504         22.7504
  24416098.8674    1752395.54749   1354461.99546                  24416097.9924
        40.0004         24.2504
  21178179.8594    -612103.82449   -499335.75947                  21178176.9224
        50.5004         38.7504
  21096416.0634    -249037.97749   -206545.66847                  21096411.8674
        50.2504         37.5004
  23963878.8524    1168417.37949    894852.51046                  23963878.8874
        42.5004         25.5004
  21633429.3204     -80024.75849    -61436.07847                  21633426.8874
        49.0004         33.7504
  23956431.8444    1819626.11749   1390150.16246                  23956430.8754
        43.7504         25.0004
  23505350.5084   -1221361.42649   -941894.39147                  23505346.1254
        43.0004         29.2504
  22396637.5784     394854.85949    301813.83147                  22396635.9494
        46.2504         31.5004
 04  7  7 14 10 50.0000000  0 11G 6G15G16G10G18G21G17G26G30G22G29
  20257792.1954     564349.56649    451248.87548                  20257789.9104
        51.2504         41.0004
  24088457.7424    -850362.99649   -651108.94946                  24088456.8444
        39.5004         22.0004
  23887752.2584    -377341.46949   -293220.76746                  23887749.0354
        38.2504         22.0004
  24423889.3364    1793334.35549   1386362.33446                  24423888.2234
        41.0004         22.7504
  21175720.0004    -625031.05549   -509408.91847                  21175716.6954
        50.0004         39.0004
  21095428.8594    -254226.37549   -210588.57147                  21095424.4304
        50.2504         37.7504
  23969105.2034    1195883.70349    916254.82046                  23969105.4454
        40.7504         24.5004
  21633391.8524     -80219.24649    -61587.61947                  21633390.0044
        48.2504         33.0004
  23963807.1094    1858379.53549   1420347.60446                  23963805.6334
        42.7504         25.0004
  23500536.5784   -1246656.42649   -961604.78347                  23500532.6884
        43.5004         29.0004
  22398668.9064     405530.79349    310132.73047                  22398667.4344
        46.7504         30.7504
 04  7  7 14 11  0.0000000  0 11G 6G15G16G10G18G21G17G26G30G22G29
  20260449.0394     578310.86349    462127.78648                  20260446.7814
        51.0004         40.7504
  24084891.2974    -869105.00849   -665713.10946                  24084889.9224
        39.7504         22.0004
  23886538.7194    -383719.14849   -298190.38946                  23886535.4304
        38.0004         21.5004
  24431681.5004    1834279.58649   1418267.72746                  24431679.2584
        42.5004         24.0004
  21173269.6884    -637907.99249   -519442.91247                  21173266.5234
        50.7504         38.7504
  21094445.7114    -259393.50849   -214614.92947                  21094441.2934
        50.2504         38.0004
  23974334.6024    1223362.21949    937666.60446                  23974334.1454
        42.0004         25.5004
  21633369.3984     -80337.47749    -61679.75647                  21633367.3284
        48.5004         34.2504
  23971181.6094    1897134.33649   1450546.15246                  23971180.5704
        43.0004         23.7504
  23495729.2344   -1271920.25449   -981290.89447                  23495724.9344
        44.7504         29.5004
  22400713.5944     416273.82849    318503.91847                  22400711.9184
        46.0004         31.0004
 04  7  7 14 11 10.0000000  0 11G 6G15G16G10G18G21G17G26G30G22G29
  20263117.2814     592331.40249    473052.86448                  20263114.6254
        51.2504         40.5004
  24081325.8134    -887839.58249   -680311.48746                  24081324.7344
        39.5004         22.0004
  23885336.8444    -390036.48849   -303113.02246                  23885333.6334
        41.0004         22.7504
  24439474.4774    1875230.19549   1450177.24946                  24439472.3834
        42.5004         23.0004
  21170828.5394    -650735.69549   -529438.53147                  21170825.2344
        50.7504         38.5004
  21093466.0864    -264540.43449   -218625.51947                  21093461.4734
        50.5004         38.0004
  23979566.4924    1250852.11349    959087.26946                  23979565.5354
        41.5004         23.0004
  21633361.5394     -80380.44149    -61713.22447                  21633359.3094
        48.2504         34.5004
  23978557.1174    1935889.39549   1480744.81946                  23978555.7934
        43.0004         22.5004
  23490926.6414   -1297153.83649  -1000953.44447                  23490923.0124
        44.0004         29.2504
  22402770.2424     427083.04349    326926.67247                  22402768.7734
        46.2504         30.7504
 04  7  7 14 11 20.0000000  0 11G 6G15G16G10G18G21G17G26G30G22G29
  20265796.5164     606411.72349    484024.53948                  20265794.4414
        50.2504         40.5004
  24077763.1334    -906565.98849   -694903.49846                  24077761.3874
        40.7504         21.7504
  23884145.9224    -396292.75849   -307988.03546                  23884142.9454
        39.5004         22.7504
  24447268.1484    1916186.71549   1482091.35746                  24447266.7854
        41.7504         24.2504
  21168397.1804    -663513.35249   -539395.14547                  21168394.0744
        50.5004         38.2504
  21092490.3984    -269666.47749   -222619.84247                  21092486.3134
        50.0004         37.5004
  23984799.5944    1278353.85249    980517.16046                  23984798.9844
        39.7504         22.5004
  21633367.3364     -80347.37949    -61687.47447                  21633365.5984
        48.7504         33.5004
  23985932.0634    1974645.30949   1510944.20346                  23985930.5704
        42.5004         22.2504
  23486131.4384   -1322356.51649  -1020591.87247                  23486127.1054
        43.7504         27.7504
  22404840.2584     437959.01249    335401.46047                  22404838.2034
        46.0004         30.7504
 04  7  7 14 11 30.0000000  0 11G 6G15G16G10G18G21G17G26G30G22G29
  20268487.0474     620550.71549    495041.89448                  20268484.6484
        50.2504         40.7504
  24074200.7894    -925285.37549   -709490.08846                  24074198.8874
        40.2504         22.5004
  23882967.3284    -402489.03149   -312816.35246                  23882963.4454
        39.0004         22.5004
  24455062.4844    1957147.95749   1514009.20646                  24455061.2274
        42.5004         25.0004
  21165974.6334    -676241.96149   -549313.57447                  21165971.5084
        50.5004         38.2504
  21091518.9304    -274772.80549   -226598.83747                  21091514.9144
        50.5004         38.0004
  23990034.7504    1305866.41049   1001955.45146                  23990034.8364
        41.0004         22.5004
  21633388.5394     -80239.35949    -61603.32747                  21633386.3444
        48.5004         34.5004
  23993305.9614    2013400.87549   1541143.30146                  23993305.5314
        42.5004         22.0004
  23481341.0864   -1347529.30549  -1040207.06547                  23481336.8754
        44.0004         27.2504
  22406922.0864     448900.66849    343927.38847                  22406920.5084
        46.7504         31.5004
 04  7  7 14 11 40.0000000  0 11G 6G15G16G10G18G21G17G26G30G22G29
  20271189.0234     634749.42249    506105.82948                  20271186.9694
        50.0004         40.0004
  24070639.8754    -943996.60549   -724070.18146                  24070638.6054
        39.0004         21.7504
  23881799.8754    -408624.09849   -317596.92646                  23881796.2194
        39.7504         23.5004
  24462858.7584    1998115.02349   1545931.56146                  24462857.2894
        42.0004         24.5004
  21163562.3524    -688920.45349   -559192.92147                  21163559.1334
        50.7504         37.5004
  21090551.1484    -279858.19549   -230561.47247                  21090547.1684
        49.7504         37.2504
  23995272.5474    1333390.96149   1023403.13546                  23995271.9494
        40.7504         21.7504
  21633423.0704     -80055.18049    -61459.80047                  21633421.0204
        49.0004         33.5004
  24000681.5554    2052157.03949   1571342.91546                  24000680.3204
        42.5004         22.7504
  23476556.4064   -1372671.01249  -1059797.99447                  23476552.4344
        44.0004         27.5004
  22409016.8524     459909.03949    352505.34247                  22409015.0394
        47.0004         31.0004
 04  7  7 14 11 50.0000000  0 11G 6G15G16G10G18G21G17G26G30G22G29
  20273902.3444     649008.04349    517216.52548                  20273899.9924
        50.0004         40.7504
  24067081.4774    -962699.68749   -738643.93246                  24067079.1374
        40.7504         22.0004
  23880643.6414    -414697.98049   -322329.71446                  23880640.3754
        38.5004         23.2504
  24470654.8834    2039087.88749   1577858.52647                  24470653.7034
        42.0004         25.7504
  21161159.1024    -701548.81249   -569033.10547                  21161155.9884
        50.5004         38.2504
  21089587.5554    -284922.53149   -234507.61347                  21089582.8674
        50.0004         38.2504
  24000512.8984    1360927.55949   1044860.30446                  24000511.3164
        41.0004         22.7504
  21633472.8364     -79794.83649    -61256.84747                  21633470.5904
        47.5004         34.0004
  24008057.2114    2090913.74249   1601543.03546                  24008055.2344
        43.2504         22.7504
  23471778.4924   -1397781.60949  -1079364.60747                  23471774.6054
        43.2504         28.5004
  22411124.6094     470984.26249    361135.48647                  22411122.2974
        47.5004         31.0004
 04  7  7 14 12  0.0000000  0 11G 6G15G16G10G18G21G17G26G30G22G29
  20276626.6644     663325.37149    528372.90348                  20276624.1684
        50.0004         40.2504
  24063522.8204    -981395.79749   -753212.35346                  24063521.3594
        40.5004         22.0004
  23879498.9614    -420711.90649   -327015.89846                  23879495.7154
        39.0004         25.0004
  24478452.9224    2080065.27349   1609788.94746                  24478451.8404
        41.5004         25.5004
  21158765.2584    -714128.16849   -578835.15747                  21158761.9654
        50.2504         38.2504
  21088627.5394    -289967.17249   -238438.47347                  21088623.2734
        49.7504         37.0004
  24005754.3984    1388474.90649   1066325.78446                  24005753.4184
        41.0004         22.0004
  21633536.6174     -79459.40249    -60995.43447                  21633534.5434
        48.5004         33.2504
  24015431.5554    2129669.72749   1631742.53546                  24015430.5234
        42.5004         23.0004
  23467005.4384   -1422862.17649  -1098907.88447                  23467001.5234
        43.5004         28.5004
  22413244.8524     482125.10549    369816.68647                  22413242.7584
        47.2504         31.5004
 04  7  7 14 12 10.0000000  0 11G 6G15G16G10G18G21G17G26G30G22G29
  20279362.4304     677701.59449    539575.06848                  20279360.3594
        49.0004         41.5004
  24059967.1954   -1000084.63749   -767775.11246                  24059964.6254
        41.0004         21.0004
  23878366.3134    -426665.34449   -331655.00346                  23878363.0744
        38.7504         22.5004
  24486251.6564    2121047.34849   1641722.93747                  24486251.0594
        41.7504         26.7504
  21156380.9614    -726658.18449   -588598.90847                  21156377.9384
        50.2504         38.5004
  21087671.3444    -294991.71549   -242353.79247                  21087667.6604
        48.5004         38.0004
  24010999.0474    1416033.40249   1087799.80446                  24010997.7814
        39.5004         22.0004
  21633615.2894     -79048.66449    -60675.48047                  21633613.0944
        48.5004         34.0004
  24022806.7194    2168425.17649   1661941.42646                  24022805.5354
        43.5004         22.0004
  23462238.7814   -1447912.42649  -1118427.61647                  23462234.3984
        43.5004         29.2504
  22415377.2584     493331.75049    378549.05847                  22415375.2894
        47.0004         32.2504
 04  7  7 14 12 20.0000000  0 11G 6G15G16G10G18G21G17G26G30G22G29
  20282109.4694     692137.54349    550823.84048                  20282107.3554
        49.5004         40.7504
  24056411.8914   -1018765.53549   -782331.68046                  24056409.8554
        40.0004         20.5004
  23877245.4304    -432557.74249   -336246.48846                  23877241.9694
        40.0004         22.7504
  24494050.8284    2162034.78949   1673661.21746                  24494049.9224
        40.2504         25.5004
  21154006.1484    -739138.19949   -598323.59947                  21154002.6804
        50.0004         38.5004
  21086718.9534    -299995.48449   -246252.84547                  21086714.9454
        49.0004         37.5004
  24016245.2344    1443603.78149   1109283.19046                  24016244.3054
        39.5004         22.0004
  21633707.4924     -78561.71549    -60296.03947                  21633705.6174
        48.0004         34.0004
  24030182.3594    2207180.68849   1692140.51146                  24030180.4774
        43.0004         22.7504
  23457477.7894   -1472931.57849  -1137923.08047                  23457473.4024
        43.2504         29.0004
  22417522.5864     504605.00849    387333.41447                  22417520.4804
        47.2504         32.2504
 04  7  7 14 12 30.0000000  0 11G 6G15G16G10G18G21G17G26G30G22G29
  20284868.1024     706632.71549    562118.75148                  20284865.6764
        49.2504         40.5004
  24052858.1954   -1037438.91449   -796882.47946                  24052856.5984
        40.5004         20.5004
  23876135.4144    -438389.44549   -340790.69546                  23876131.9964
        38.7504         22.7504
  24501852.0554    2203027.01649   1705603.12746                  24501850.8364
        39.2504         23.5004
  21151640.8134    -751568.57449   -608009.64447                  21151637.0354
        50.2504         38.5004
  21085770.8674    -304978.89849   -250136.06147                  21085766.5864
        48.0004         37.5004
  24021493.6334    1471185.53549   1130775.38546                  24021493.0204
        40.7504         21.2504
  21633814.8834     -77998.95349    -59857.56247                  21633812.6884
        47.5004         33.7504
  24037556.7344    2245935.82449   1722339.32946                  24037555.5824
        43.0004         22.5004
  23452722.6804   -1497920.01649  -1157394.63547                  23452718.0234
        42.2504         28.0004
  22419680.6414     515944.46549    396169.32647                  22419678.6644
        46.5004         31.5004
 04  7  7 14 12 40.0000000  0 11G 6G15G16G10G18G21G17G26G30G22G29
  20287637.4454     721187.48849    573460.22448                  20287635.3954
        48.7504         40.7504
  24049307.1804   -1056104.46549   -811426.93346                  24049304.5474
        40.2504         19.7504
  23875037.5234    -444160.00849   -345287.17946                  23875033.9574
        39.0004         24.2504
  24509653.6484    2244024.40649   1737549.17846                  24509652.5434
        39.5004         24.2504
  21149284.6174    -763948.98449   -617656.62747                  21149281.2584
        50.5004         38.2504
  21084826.3204    -309941.63349   -254003.03647                  21084822.8834
        48.5004         37.2504
  24026744.7194    1498779.02349   1152276.84946                  24026743.7304
        39.2504         21.2504
  21633936.2664     -77359.97349    -59359.55547                  21633934.4344
        48.0004         33.7504
  24044931.6334    2284690.66049   1752537.94746                  24044930.1884
        42.5004         22.0004
  23447973.4144   -1522877.30149  -1176841.77847                  23447968.8754
        42.2504         26.5004
  22421850.9844     527350.44149    405057.17547                  22421848.9414
        46.7504         31.7504
 04  7  7 14 12 50.0000000  0 11G 6G15G16G10G18G21G17G26G30G22G29
  20290418.5864     735800.65249    584846.98348                  20290415.9224
        49.2504         40.0004
  24045755.7894   -1074763.25849   -825966.30246                  24045753.6294
        40.0004         20.5004
  23873951.1724    -449870.66449   -349737.16046                  23873947.5474
        39.7504         23.7504
  24517455.6724    2285025.69549   1769498.09846                  24517454.6764
        40.0004         23.2504
  21146938.3444    -776280.56249   -627265.75647                  21146934.8524
        50.2504         37.7504
  21083885.9144    -314884.80149   -257854.97147                  21083882.3794
        48.2504         37.2504
  24031997.9924    1526383.10549   1173786.35546                  24031996.3014
        39.0004         21.0004
  21634072.2194     -76645.99649    -58803.32847                  21634070.4184
        47.5004         33.5004
  24052305.6564    2323444.06649   1782735.29246                  24052304.6414
        42.5004         21.7504
  23443230.3674   -1547804.48449  -1196265.65947                  23443225.6564
        42.7504         27.5004
  22424033.9614     538821.73849    413995.74647                  22424031.7814
        46.7504         31.2504
 04  7  7 14 13  0.0000000  0 11G 6G15G16G10G18G21G17G26G30G22G29
  20293210.7114     750473.30149    596280.21048                  20293208.2544
        48.5004         40.7504
  24042207.0234   -1093414.29349   -840499.64146                  24042204.4024
        40.0004         21.0004
  23872875.7114    -455520.30949   -354139.46846                  23872872.4024
        39.7504         22.7504
  24525259.1414    2326031.81349   1801450.92946                  24525257.2934
        39.0004         22.5004
  21144601.0084    -788562.31249   -636835.95247                  21144597.6024
        50.2504         38.2504
  21082948.9384    -319807.34049   -261690.71547                  21082945.1764
        47.7504         38.0004
  24037253.2114    1553998.83649   1195305.11546                  24037251.9924
        40.7504         21.5004
  21634222.6174     -75855.90249    -58187.66447                  21634220.3794
        48.2504         34.0004
  24059680.1094    2362196.90249   1812932.29546                  24059679.0314
        42.2504         20.2504
  23438492.1724   -1572700.60249  -1215665.23947                  23438487.9734
        42.7504         27.7504
  22426229.7894     550359.35249    422986.10047                  22426227.0864
        46.7504         32.0004
 04  7  7 14 13 10.0000000  0 11G 6G15G16G10G18G21G17G26G30G22G29
  20296013.6954     765204.66849    607759.18248                  20296011.2504
        48.5004         41.0004
  24038658.5864   -1112058.42649   -855027.53346                  24038657.0004
        40.0004         20.5004
  23871812.1484    -461109.68049   -358494.82546                  23871808.7664
        38.2504         22.5004
  24533062.4694    2367041.99649   1833406.85846                  24533061.6764
        39.5004         22.5004
  21142273.3754    -800794.82449   -646367.78947                  21142269.9654
        50.0004         38.5004
  21082016.3204    -324709.99649   -265510.98847                  21082011.9774
        47.0004         37.7504
  24042510.3364    1581625.35249   1216832.22946                  24042509.5514
        38.7504         21.0004
  21634387.0634     -74990.39549    -57513.25947                  21634385.4264
        47.5004         33.7504
  24067054.5004    2400948.39849   1843128.25446                  24067052.8204
        42.5004         20.2504
  23433760.6334   -1597566.28949  -1235041.09347                  23433756.3524
        41.0004         28.0004
  22428437.5474     561962.60249    432027.56347                  22428435.3054
        47.2504         32.5004
 04  7  7 14 13 20.0000000  0 11G 6G15G16G10G18G21G17G26G30G22G29
  20298828.4454     779994.82049    619283.96948                  20298826.1214
        49.2504         41.0004
  24035112.3984   -1130695.46549   -869549.86846                  24035110.2424
        41.0004         21.0004
  23870760.1174    -466638.62949   -362803.11946                  23870756.7544
        39.2504         24.2504
  24540866.7584    2408056.19149   1865365.95346                  24540866.6414
        37.7504         22.7504
  21139955.0084    -812977.98049   -655861.15447                  21139951.3524
        50.2504         38.2504
  21081086.9534    -329592.69549   -269315.68347                  21081083.2734
        48.7504         38.0004
  24047769.1334    1609263.02349   1238368.03946                  24047768.8484
        39.0004         19.7504
  21634566.1414     -74049.28949    -56779.92247                  21634564.3914
        47.7504         34.0004
  24074428.5944    2439698.52049   1873323.09646                  24074426.8204
        43.0004         21.5004
  23429034.3204   -1622401.39149  -1254393.11647                  23429030.3404
        42.7504         28.2504
  22430657.7664     573631.59849    441120.29547                  22430656.0514
        46.0004         31.5004
 04  7  7 14 13 30.0000000  0 11G 6G15G16G10G18G21G17G26G30G22G29
  20301653.7504     794843.44549    630854.30848                  20301651.3984
        47.5004         41.0004
  24031567.3914   -1149325.80949   -884067.05046                  24031564.4654
        41.2504         20.7504
  23869719.0864    -472107.60549   -367064.67346                  23869715.7234
        36.5004         24.5004
  24548672.4534    2449073.96949   1897327.81946                  24548672.0594
        39.0004         22.0004
  21137645.8364    -825112.25449   -665316.43447                  21137642.2814
        50.5004         38.7504
  21080161.8754    -334455.80949   -273105.13347                  21080157.9304
        47.0004         38.5004
  24053030.6094    1636911.23449   1259912.11246                  24053029.9774
        39.5004         19.7504
  21634759.5784     -73032.99649    -55988.00147                  21634757.2584
        47.7504         34.2504
  24081802.0394    2478446.69949   1903516.46846                  24081800.1804
        42.2504         21.5004
  23424313.9614   -1647206.25449  -1273721.56747                  23424309.9734
        42.0004         27.0004
  22432890.9694     585365.83649    450263.85647                  22432888.8404
        47.0004         31.2504
 04  7  7 14 13 40.0000000  0 11G 6G15G16G10G18G21G17G26G30G22G29
  20304490.7194     809750.89149    642470.60648                  20304488.3324
        49.0004         40.7504
  24028023.0084   -1167949.06649   -898578.53946                  24028020.7814
        41.5004         22.0004
  23868689.7424    -477516.04349   -371278.94146                  23868686.6454
        39.0004         22.7504
  24556479.0084    2490095.66849   1929292.84946                  24556478.2894
        38.7504         20.5004
  21135346.1094    -837197.15649   -674733.13747                  21135343.1524
        51.0004         38.5004
  21079240.1564    -339298.95749   -276878.91547                  21079235.9574
        48.5004         37.5004
  24058293.7344    1664570.55549   1281464.90346                  24058293.3634
        39.5004         20.2504
  21634967.3444     -71940.97749    -55136.98847                  21634965.2584
        48.0004         33.7504
  24089175.2894    2517193.32049   1933708.71546                  24089173.6134
        42.7504         21.0004
  23419600.0164   -1671980.38749  -1293025.97547                  23419595.4804
        42.0004         26.5004
  22435136.2194     597165.71149    459458.65447                  22435134.5004
        46.2504         31.0004
 04  7  7 14 13 50.0000000  0 11G 6G15G16G10G18G21G17G26G30G22G29
  20307338.7584     824716.40649    654131.96648                  20307336.3134
        49.2504         40.2504
  24024480.9924   -1186565.94949   -913085.35646                  24024478.1954
        40.7504         20.5004
  23867672.1414    -482864.75049   -375446.82346                  23867668.5434
        40.0004         22.7504
  24564285.7194    2531120.46149   1961260.14346                  24564284.3444
        39.0004         20.5004
  21133055.6174    -849233.41849   -684112.11047                  21133052.3134
        50.0004         38.5004
  21078322.1884    -344122.79749   -280637.81147                  21078318.3014
        49.0004         38.0004
  24063559.6254    1692240.14549   1303025.57746                  24063558.2234
        39.2504         19.7504
  21635189.4844     -70773.90649    -54227.63747                  21635187.2584
        47.2504         33.7504
  24096547.8754    2555937.48849   1963898.89746                  24096546.4064
        41.7504         21.5004
  23414891.2974   -1696724.59449  -1312307.23447                  23414886.8284
        41.2504         27.7504
  22437394.0634     609030.49249    468703.87047                  22437391.7194
        46.0004         31.0004
 04  7  7 14 14  0.0000000  0 11G 6G15G16G10G18G21G17G26G30G22G29
  20310197.6884     839740.66449    665839.07548                  20310195.4804
        49.5004         40.2504
  24020939.4304   -1205175.88349   -927586.65646                  24020936.8244
        41.2504         21.0004
  23866665.6804    -488153.09449   -379567.71246                  23866662.0944
        40.2504         22.5004
  24572093.3594    2572148.93849   1993230.23146                  24572092.8674
        38.2504         20.5004
  21130774.8204    -861220.42249   -693452.73647                  21130771.2274
        51.0004         38.2504
  21077407.7974    -348926.82049   -284381.30447                  21077404.1174
        49.2504         38.0004
  24068826.1334    1719920.59849   1324594.68446                  24068825.8914
        38.7504         19.7504
  21635426.0784     -69531.21549    -53259.39647                  21635424.1054
        47.5004         33.5004
  24103920.8204    2594679.75849   1994087.58046                  24103918.9494
        41.0004         22.5004
  23410188.9924   -1721438.14549  -1331564.65847                  23410184.3284
        41.2504         27.0004
  22439664.2034     620960.83249    478000.15347                  22439662.3794
        46.0004         30.5004
 04  7  7 14 14 10.0000000  0 11G 6G15G16G10G18G21G17G26G30G22G29
  20313067.7734     854823.77349    677592.19548                  20313065.5514
        50.5004         40.2504
  24017399.8834   -1223778.75449   -942082.36346                  24017397.0124
        41.5004         21.2504
  23865671.2894    -493380.82849   -383641.21446                  23865667.6724
        40.7504         22.7504
  24579901.5164    2613181.12149   2025203.38146                  24579900.4574
        38.7504         20.7504
  21128502.9614    -873158.12549   -702754.77847                  21128499.7034
        50.5004         38.0004
  21076497.6564    -353711.04349   -288109.22547                  21076493.7704
        51.0004         37.5004
  24074096.1804    1747612.21149   1346172.54546                  24074095.7274
        38.5004         19.2504
  21635676.8284     -68212.75849    -52231.99447                  21635674.8324
        47.2504         33.7504
  24111292.8284    2633420.11749   2024274.92246                  24111290.8324
        40.2504         22.0004
  23405491.9534   -1746120.83649  -1350797.88247                  23405486.8364
        42.0004         27.0004
  22441947.0314     632956.78549    487347.68747                  22441945.1804
        45.7504         30.5004
 04  7  7 14 14 20.0000000  0 11G 6G15G16G10G18G21G17G26G30G22G29
  20315949.4064     869965.67249    689391.16948                  20315947.0314
        50.5004         40.7504
  24013860.8364   -1242374.59849   -956572.49546                  24013858.1914
        41.0004         21.5004
  23864687.4924    -498548.03949   -387667.52346                  23864684.3284
        37.7504         24.2504
  24587709.9224    2654216.84849   2057179.42146                  24587709.5314
        38.0004         19.7504
  21126240.5164    -885046.43749   -712018.30247                  21126237.3014
        50.5004         38.7504
  21075590.6804    -358475.18749   -291821.44347                  21075586.7114
        50.7504         38.0004
  24079367.6884    1775314.82449   1367759.00146                  24079367.6294
        37.2504         18.5004
  21635942.0634     -66818.52049    -51145.47447                  21635939.9494
        47.7504         34.5004
  24118664.5864    2672158.41449   2054460.67446                  24118662.8014
        41.5004         22.0004
  23400800.3834   -1770772.67649  -1370007.00047                  23400795.9384
        41.2504         26.7504
  22444242.4144     645018.34449    496746.40147                  22444239.9924
        46.0004         31.0004
 04  7  7 14 14 30.0000000  0 11G 6G15G16G10G18G21G17G26G30G22G29
  20318841.6644     885164.45349    701234.22148                  20318839.4884
        50.7504         40.2504
  24010322.8754   -1260965.31649   -971058.95346                  24010320.3794
        41.2504         20.7504
  23863715.7034    -503656.50849   -391648.30746                  23863712.4774
        39.5004         22.2504
  24595519.6724    2695254.18849   2089156.34146                  24595517.6524
        38.0004         18.5004
  21123987.7734    -896887.28149   -721245.09147                  21123984.3284
        51.0004         39.0004
  21074687.8674    -363221.14849   -295519.75347                  21074684.1914
        50.0004         38.0004
  24084642.2814    1803026.57049   1389352.38746                  24084640.8834
        37.0004         17.7504
  21636221.5704     -65350.33649    -50001.58147                  21636219.7854
        47.5004         33.7504
  24126035.5084    2710892.76649   2084643.12846                  24126033.9574
        40.7504         21.5004
  23396114.5944   -1795395.48849  -1389193.76547                  23396110.2234
        41.7504         28.2504
  22446549.8984     657143.62549    506194.52447                  22446547.5434
        46.2504         30.7504
 04  7  7 14 14 40.0000000  0 11G 6G15G16G10G18G21G17G26G30G22G29
  20321744.5314     900421.91049    713123.23448                  20321742.5864
        50.0004         40.5004
  24006786.6884   -1279549.14849   -985539.77846                  24006783.8204
        41.2504         20.7504
  23862755.1804    -508704.59049   -395581.76546                  23862751.7424
        39.0004         24.0004
  24603329.1564    2736294.81649   2121136.15946                  24603327.9494
        39.0004         20.7504
  21121743.4614    -908678.82449   -730433.20147                  21121740.3164
        51.0004         38.7504
  21073788.5554    -367947.18449   -299202.28847                  21073784.8164
        50.2504         38.5004
  24089916.3594    1830749.23849   1410954.59446                  24089915.9844
        37.5004         17.7504
  21636515.3284     -63806.33249    -48798.37347                  21636513.3714
        47.2504         34.2504
  24133405.0784    2749624.71149   2114823.89146                  24133404.2774
        40.7504         22.0004
  23391435.3364   -1819987.47349  -1408356.23447                  23391430.7154
        42.0004         28.0004
  22448869.5944     669334.38749    515693.91147                  22448867.5784
        46.0004         31.7504
 04  7  7 14 14 50.0000000  0 11G 6G15G16G10G18G21G17G26G30G22G29
  20324659.3674     915737.46549    725057.35848                  20324656.8984
        50.0004         40.2504
  24003251.6414   -1298126.76649  -1000015.89946                  24003248.2814
        42.0004         21.0004
  23861805.6884    -513692.83649   -399468.80946                  23861802.0984
        39.7504         22.5004
  24611139.4304    2777337.99249   2153117.76446                  24611138.1484
        38.0004         19.5004
  21119508.9924    -920421.74249   -739583.60547                  21119505.9774
        50.2504         38.5004
  21072892.7894    -372653.97349   -302869.99047                  21072888.7664
        50.2504         37.7504
  24095194.3444    1858482.13349   1432564.56346                  24095193.2584
        39.0004         17.7504
  21636823.3914     -62187.25049    -47536.80847                  21636821.4694
        48.7504         34.5004
  24140775.4924    2788353.51649   2145002.06246                  24140774.2154
        40.0004         22.2504
  23386760.8914   -1844549.26649  -1427495.36647                  23386756.6764
        40.5004         28.0004
  22451201.7194     681589.85549    525243.57347                  22451199.7464
        47.5004         31.0004
 04  7  7 14 15  0.0000000  0 11G 6G15G16G10G18G21G17G26G30G22G29
  20327584.9774     931110.42249    737036.23148                  20327582.6374
        50.0004         40.5004
  23999717.2814   -1316698.73049  -1014487.64546                  23999714.4224
        41.2504         19.7504
  23860868.1254    -518621.85249   -403309.65746                  23860864.0234
        38.7504         22.5004
  24618949.7504    2818383.03949   2185100.84146                  24618949.2934
        37.5004         19.7504
  21117283.7504    -932116.59449   -748696.51947                  21117280.3874
        50.2504         38.0004
  21072000.7814    -377342.05549   -306523.09047                  21071996.9694
        49.5004         37.2504
  24100473.4064    1886224.70749   1454182.04346                  24100472.6334
        39.5004         17.7504
  21637145.8134     -60493.55949    -46217.12047                  21637144.0664
        47.5004         34.0004
  24148144.4454    2827078.60549   2175177.40846                  24148143.0004
        40.5004         22.5004
  23382093.0474   -1869081.30549  -1446611.30147                  23382088.6914
        41.2504         27.5004
  22453546.1724     693909.52049    534843.25947                  22453543.8594
        47.5004         31.2504
 04  7  7 14 15 10.0000000  0 11G 6G15G16G10G18G21G17G26G30G22G29
  20330521.2584     946541.22749    749060.23748                  20330519.0394
        50.0004         40.7504
  23996184.7584   -1335264.60949  -1028954.56446                  23996181.5514
        42.0004         20.2504
  23859940.7734    -523491.12549   -407103.91746                  23859937.5234
        40.0004         23.0004
  24626761.1174    2859430.36749   2217085.79046                  24626760.4534
        38.5004         18.5004
  21115067.5554    -943762.93449   -757771.58547                  21115064.0314
        50.2504         38.2504
  21071112.0944    -382011.00449   -310161.23047                  21071108.3284
        49.7504         37.2504
  24105755.2034    1913977.36749   1475807.49146                  24105753.8634
        39.0004         18.5004
  21637482.4304     -58724.75849    -44838.83047                  21637480.3754
        48.2504         33.7504
  24155513.1484    2865800.20349   2205350.08946                  24155511.5314
        38.7504         22.2504
  23377430.3754   -1893583.21949  -1465703.70247                  23377425.8984
        41.7504         28.5004
  22455902.8284     706293.78949    544493.33347                  22455900.9414
        47.0004         31.5004
 04  7  7 14 15 20.0000000  0 11G 6G15G16G10G18G21G17G26G30G22G29
  20333468.7114     962029.95349    761129.37248                  20333466.1884
        50.5004         40.0004
  23992652.6884   -1353824.35949  -1043416.70646                  23992649.1454
        42.0004         20.5004
  23859026.1174    -528300.55949   -410851.52446                  23859022.3404
        39.0004         23.7504
  24634572.8834    2900480.03949   2249072.50546                  24634572.1914
        39.0004         19.0004
  21112860.5394    -955360.63749   -766808.75947                  21112857.2584
        50.0004         37.5004
  21070227.4304    -386660.83649   -313784.48247                  21070223.3054
        50.0004         36.5004
  24111038.1174    1941740.29749   1497440.86746                  24111036.9104
        38.5004         17.2504
  21637833.2114     -56880.68049    -43401.87547                  21637831.5204
        47.7504         33.5004
  24162881.0944    2904518.39849   2235520.17646                  24162879.8404
        39.7504         22.0004
  23372773.6254   -1918054.81249  -1484772.48647                  23372768.9734
        41.7504         26.5004
  22458272.2034     718742.72749    554193.81847                  22458269.8134
        46.5004         30.2504
 04  7  7 14 15 30.0000000  0 11G 6G15G16G10G18G21G17G26G30G22G29
  20336427.0784     977577.14149    773244.09348                  20336424.6414
        49.5004         41.0004
  23989122.0944   -1372377.50449  -1057873.66946                  23989118.9454
        42.0004         20.7504
  23858122.0004    -533049.62549   -414552.06946                  23858119.0164
        40.5004         23.2504
  24642384.8594    2941532.37149   2281061.37546                  24642384.0784
        38.2504         19.5004
  21110662.9534    -966909.15649   -775807.56147                  21110659.7194
        51.0004         38.5004
  21069346.2974    -391291.02049   -317392.37747                  21069342.1484
        49.2504         38.0004
  24116322.7664    1969513.93049   1519082.73046                  24116321.9614
        39.0004         18.5004
  21638198.9454     -54960.87949    -41905.88947                  21638196.5394
        47.5004         34.0004
  24170248.4774    2943233.43049   2265687.64346                  24170247.3874
        40.5004         22.7504
  23368122.6094   -1942495.52749  -1503817.13747                  23368118.5084
        42.0004         26.7504
  22460652.8594     731256.77049    563945.05647                  22460650.9384
        45.7504         31.5004
 04  7  7 14 15 40.0000000  0 11G 6G15G16G10G18G21G17G26G30G22G29
  20339396.7114     993182.10249    785403.79948                  20339394.3204
        49.5004         40.5004
  23985592.2974   -1390924.67249  -1072325.94746                  23985589.9694
        42.0004         20.2504
  23857230.1484    -537738.94149   -418206.06046                  23857226.4064
        40.0004         22.7504
  24650198.0704    2982586.78949   2313051.79946                  24650196.4884
        40.2504         19.5004
  21108474.4774    -978409.13749   -784768.58247                  21108471.0314
        50.5004         38.0004
  21068468.9454    -395902.12149   -320985.43947                  21068464.9694
        49.2504         37.5004
  24121609.8984    1997297.69549   1540732.32546                  24121608.7034
        39.5004         19.2504
  21638578.2664     -52965.94549    -40351.39847                  21638576.1764
        48.0004         34.2504
  24177614.9694    2981944.65649   2295852.22846                  24177613.6254
        40.2504         23.2504
  23363476.8674   -1966906.02349  -1522838.30547                  23363473.1254
        41.2504         26.5004
  22463046.5784     743835.41449    573746.59447                  22463044.4454
        46.5004         30.7504
 04  7  7 14 15 50.0000000  0 11G 6G15G16G10G18G21G17G26G30G22G29
  20342377.3364    1008844.35249    797608.13148                  20342374.4884
        48.5004         41.0004
  23982064.2664   -1409466.38349  -1086774.03746                  23982061.2304
        41.5004         21.2504
  23856349.1254    -542369.02349   -421813.97446                  23856346.1724
        41.5004         24.0004
  24658010.2424    3023642.62949   2345043.35446                  24658008.5744
        39.7504         18.5004
  21106295.0634    -989861.15249   -793692.24047                  21106291.9224
        50.0004         38.7504
  21067594.6724    -400494.70749   -324564.08947                  21067590.7114
        48.0004         38.5004
  24126898.4304    2025091.01249   1562389.45646                  24126898.0864
        39.2504         20.0004
  21638972.0474     -50896.36349    -38738.73747                  21638970.0554
        47.5004         34.5004
  24184980.4064    3020651.45749   2326013.30146                  24184979.3984
        40.0004         24.0004
  23358837.6174   -1991286.74649  -1541836.25947                  23358833.9534
        39.7504         27.0004
  22465452.3284     756477.97749    583597.94947                  22465450.0824
        46.2504         32.0004
 04  7  7 14 16  0.0000000  0 11G 6G15G16G10G18G21G17G26G30G22G29
  20345368.7664    1024564.34449    809857.47048                  20345365.8244
        49.5004         41.0004
  23978536.7504   -1428002.15249  -1101217.48446                  23978534.0354
        42.0004         20.7504
  23855479.6644    -546939.41849   -425375.27747                  23855475.9734
        41.0004         26.2504
  24665823.0314    3064700.14149   2377036.19646                  24665821.7934
        39.5004         18.5004
  21104124.9534   -1001264.73049   -802578.14747                  21104121.8554
        50.2504         39.0004
  21066724.6484    -405068.31249   -328127.94747                  21066720.4884
        49.5004         38.2504
  24132189.5554    2052894.36749   1584054.35346                  24132188.9844
        39.0004         19.5004
  21639380.3674     -48751.69549    -37067.57247                  21639377.9574
        47.5004         34.7504
  24192345.7734    3059354.07049   2356171.19846                  24192344.3954
        38.0004         22.5004
  23354204.1094   -2015637.22349  -1560810.65747                  23354200.0394
        41.2504         27.0004
  22467869.9534     769184.86349    593499.41547                  22467868.2624
        45.2504         31.7504
 04  7  7 14 16 10.0000000  0 11G 6G15G16G10G18G21G17G26G30G22G29
  20348371.1804    1040342.34449    822152.01948                  20348368.4774
        49.0004         40.2504
  23975011.4924   -1446531.71149  -1115656.15446                  23975008.4774
        41.7504         21.5004
  23854621.0314    -551449.85549   -428889.90846                  23854618.0044
        40.7504         25.0004
  24673636.5234    3105759.72349   2409030.65546                  24673635.3364
        39.2504         19.0004
  21101964.4064   -1012619.50049   -811426.02047                  21101961.0044
        50.7504         38.5004
  21065858.0944    -409622.64849   -331676.77747                  21065854.1374
        48.5004         37.7504
  24137482.4224    2080708.03549   1605727.32946                  24137482.0664
        38.7504         18.5004
  21639803.0314     -46531.51649    -35337.57347                  21639800.6134
        47.5004         33.5004
  24199709.6724    3098052.91849   2386326.12146                  24199708.1844
        40.7504         22.7504
  23349576.3674   -2039957.06649  -1579761.19147                  23349572.5394
        41.7504         26.0004
  22470300.8054     781956.50049    603451.32247                  22470299.0514
        45.7504         31.0004
 04  7  7 14 16 20.0000000  0 11G 6G15G16G10G18G21G17G26G30G22G29
  20351384.6564    1056178.81649    834492.11848                  20351381.8794
        49.0004         40.5004
  23971486.1644   -1465054.58249  -1130089.53646                  23971483.9884
        42.2504         22.0004
  23853774.1334    -555899.77749   -432357.40346                  23853771.1374
        41.2504         24.5004
  24681450.3914    3146821.64549   2441026.87246                  24681448.9144
        39.5004         20.0004
  21099813.0704   -1023924.99649   -820235.50047                  21099809.7304
        50.5004         38.7504
  21064995.2664    -414157.11749   -335210.14247                  21064990.7934
        48.2504         38.0004
  24142776.8754    2108532.48049   1627408.70046                  24142777.1644
        40.0004         19.2504
  21640239.8914     -44235.37149    -33548.35947                  21640237.5744
        47.7504         34.7504
  24207073.2584    3136748.19549   2416478.27046                  24207071.9454
        40.7504         22.5004
  23344954.3984   -2064245.70749  -1598687.40247                  23344950.2854
        40.7504         26.5004
  22472743.4224     794793.27349    613454.01747                  22472741.3954
        46.0004         30.5004
 04  7  7 14 16 30.0000000  0 11G 6G15G16G10G18G21G17G26G30G22G29
  20354409.0944    1072072.66849    846876.92948                  20354406.2194
        48.2504         39.7504
  23967962.3754   -1483571.91849  -1144518.65646                  23967960.5984
        42.5004         21.7504
  23852938.5314    -560290.35249   -435778.64346                  23852935.7504
        41.5004         25.0004
  24689264.4694    3187884.75449   2473024.11546                  24689262.9304
        39.7504         19.7504
  21097670.8284   -1035182.38749   -829007.50447                  21097667.3134
        50.5004         38.5004
  21064135.6724    -418672.99249   -338729.00747                  21064131.5164
        47.7504         37.2504
  24148073.8054    2136366.64149   1649097.61446                  24148073.6764
        40.2504         20.2504
  21640691.0004     -41864.30549    -31700.78647                  21640689.1724
        48.2504         33.5004
  24214435.9224    3175438.63749   2446626.67746                  24214434.8444
        39.7504         22.7504
  23340337.9614   -2088504.30149  -1617590.19147                  23340333.8404
        40.5004         26.7504
  22475198.0084     807694.02049    623506.53747                  22475196.2154
        45.7504         30.7504
 04  7  7 14 16 40.0000000  0 11G 6G15G16G10G18G21G17G26G30G22G29
  20357444.5084    1088024.35249    859306.80148                  20357442.0634
        48.7504         40.7504
  23964439.7974   -1502083.25449  -1158943.04346                  23964437.4924
        42.7504         21.5004
  23852114.8594    -564621.07049   -439153.26047                  23852111.6094
        40.2504         26.0004
  24697078.9144    3228949.46549   2505022.55446                  24697077.3054
        40.5004         19.0004
  21095537.5474   -1046391.11749   -837741.57747                  21095534.5984
        50.5004         38.7504
  21063280.2974    -423169.71549   -342232.94547                  21063276.2704
        48.0004         37.5004
  24153373.1804    2164210.89849   1670794.44546                  24153372.1484
        41.2504         20.0004
  21641156.6024     -39417.94149    -29794.52447                  21641154.5664
        48.2504         34.5004
  24221797.7734    3214124.66449   2476771.59846                  24221796.4494
        41.7504         22.7504
  23335727.7114   -2112732.31249  -1636469.21647                  23335723.0744
        41.5004         27.0004
  22477665.0164     820659.13349    633609.22047                  22477663.6094
        45.0004         30.0004
 04  7  7 14 16 50.0000000  0 11G 6G15G16G10G18G21G17G26G30G22G29
  20360490.7974    1104033.70749    871781.60848                  20360488.5474
        48.5004         40.0004
  23960918.3524   -1520588.74249  -1173362.89946                  23960915.4454
        42.7504         22.5004
  23851301.4614    -568892.02749   -442481.25746                  23851298.4024
        40.5004         23.7504
  24704893.1804    3270015.54349   2537022.11646                  24704891.6764
        40.0004         19.2504
  21093413.8054   -1057551.40249   -846437.91147                  21093410.8324
        50.5004         38.5004
  21062428.1414    -427647.42249   -345722.08847                  21062424.4574
        48.0004         38.2504
  24158673.4304    2192065.10549   1692498.91746                  24158672.8554
        40.5004         21.2504
  21641636.3524     -36896.19949    -27829.52947                  21641634.4964
        47.0004         34.2504
  24229158.0634    3252806.00449   2506912.85546                  24229157.4064
        41.2504         24.2504
  23331122.7034   -2136929.85949  -1655324.41147                  23331118.8714
        42.0004         27.7504
  22480144.8834     833688.55949    643762.00547                  22480142.9184
        44.2504         31.0004
 04  7  7 14 17  0.0000000  0 10G 6G15G16G18G21G17G26G30G22G29
  20363548.2584    1120100.30549    884301.03248                  20363545.7854
        49.0004         40.7504
  23957397.8204   -1539088.70749  -1187778.44946                  23957395.4924
        41.7504         22.5004
  23850500.6954    -573103.44549   -445762.88246                  23850496.8984
        39.5004         25.5004
  21091299.6334   -1068663.46949   -855096.65947                  21091296.5044
        50.2504         38.7504
  21061579.2584    -432106.39849   -349196.60947                  21061575.5204
        49.0004         38.0004
  24163975.1564    2219929.00449   1714211.05246                  24163975.2584
        41.2504         21.0004
  21642130.2734     -34299.48849    -25806.11447                  21642128.7274
        48.0004         35.0004
  24236518.0234    3291482.32849   2537050.23646                  24236516.7114
        40.7504         22.5004
  23326524.7034   -2161097.17249  -1674156.09647                  23326519.9104
        42.0004         28.5004
  22482636.5554     846781.92649    653964.64947                  22482634.2934
        45.5004         31.2504
 04  7  7 14 17 10.0000000  0 10G 6G15G16G18G21G17G26G30G22G29
  20366616.8134    1136224.16049    896865.06148                  20366614.1454
        48.7504         40.7504
  23953878.7974   -1557583.22349  -1202189.83246                  23953876.7734
        42.7504         22.5004
  23849710.1884    -577255.48849   -448998.25747                  23849707.0124
        41.5004         26.0004
  21089193.8984   -1079727.39849   -863717.90047                  21089191.0354
        50.7504         38.5004
  21060734.7344    -436546.83249   -352656.69147                  21060730.4964
        48.7504         37.7504
  24169280.1094    2247802.56649   1735930.68646                  24169279.7734
        40.7504         20.7504
  21642638.3524     -31627.83649    -23724.31847                  21642637.2734
        47.0004         34.0004
  24243876.3754    3330153.40649   2567183.56546                  24243875.2194
        41.5004         22.7504
  23321931.2814   -2185234.28549  -1692964.23047                  23321926.8594
        42.7504         28.7504
  22485140.2034     859939.09849    664216.96247                  22485138.3284
        45.2504         31.0004
 04  7  7 14 17 20.0000000  0 10G 6G15G16G18G21G17G26G30G22G29
  20369695.9304    1152405.88749    909474.19848                  20369693.2074
        50.0004         40.5004
  23950360.3204   -1576071.68049  -1216596.37946                  23950358.4064
        42.5004         24.0004
  23848931.5394    -581347.55949   -452186.87346                  23848928.7854
        42.2504         24.2504
  21087098.1174   -1090742.62949   -872301.20347                  21087094.7384
        51.0004         38.5004
  21059893.3204    -440968.00849   -356101.77147                  21059889.3874
        49.7504         37.5004
  24174585.8524    2275686.34849   1757658.35446                  24174585.0124
        41.0004         20.5004
  21643161.6724     -28880.57449    -21583.59747                  21643159.7734
        48.0004         34.0004
  24251235.4224    3368819.75049   2597313.16446                  24251233.6954
        41.5004         22.5004
  23317343.6254   -2209340.52049  -1711748.33147                  23317339.5004
        42.7504         28.5004
  22487656.4924     873160.68849    674519.49547                  22487654.2304
        46.5004         31.5004
 04  7  7 14 17 30.0000000  0 10G 6G15G16G18G21G17G26G30G22G29
  20372786.0474    1168645.22749    922128.22248                  20372783.7664
        48.7504         40.0004
  23946843.1564   -1594554.20349  -1230998.37946                  23946840.9534
        42.5004         22.5004
  23848164.8984    -585379.75449   -455328.85146                  23848161.6094
        41.2504         23.7504
  21085011.0784   -1101709.28149   -880846.65147                  21085007.8984
        50.5004         38.2504
  21059055.3524    -445370.14149   -359532.00047                  21059051.7934
        48.0004         37.5004
  24179894.1024    2303580.18049   1779393.72846                  24179893.0004
        41.0004         20.7504
  21643698.5704     -26057.91849    -19384.13347                  21643696.9414
        47.5004         33.7504
  24258592.1884    3407481.05549   2627438.77946                  24258590.8714
        42.0004         21.2504
  23312762.4144   -2233416.06649  -1730508.49347                  23312758.2704
        42.0004         27.5004
  22490184.3754     886446.53549    684872.11447                  22490182.4774
        45.2504         31.0004
 04  7  7 14 17 40.0000000  0 10G 6G15G16G18G21G17G26G30G22G29
  20375887.5314    1184942.20749    934827.16748                  20375884.9224
        50.2504         39.7504
  23943327.3444   -1613030.96549  -1245395.80846                  23943325.4844
        42.7504         24.7504
  23847408.5394    -589352.11349   -458424.25346                  23847405.2464
        41.5004         24.5004
  21082933.6954   -1112627.42649   -889354.29747                  21082930.0124
        50.5004         38.0004
  21058221.6954    -449753.26249   -362947.43247                  21058217.3164
        49.5004         37.5004
  24185204.0164    2331484.07449   1801136.97846                  24185203.7384
        40.5004         21.0004
  21644250.1954     -23159.81249    -17125.86547                  21644248.4804
        47.7504         34.0004
  24265948.3204    3446137.22749   2657560.50646                  24265946.9574
        41.5004         22.2504
  23308186.7114   -2257461.02749  -1749244.81747                  23308182.5704
        42.7504         27.7504
  22492725.0784     899796.54349    695274.71147                  22492722.7774
        45.7504         31.2504
 04  7  7 14 17 50.0000000  0 10G 6G15G16G18G21G17G26G30G22G29
  20378999.8594    1201297.36749    947571.43148                  20378997.1484
        50.0004         40.7504
  23939811.9924   -1631501.32049  -1259788.30946                  23939810.7344
        41.7504         25.2504
  23846664.1094    -593264.02749   -461472.48546                  23846660.6254
        39.2504         25.5004
  21080865.4534   -1123496.43049   -897823.65247                  21080861.7934
        50.2504         38.5004
  21057391.1174    -454116.82449   -366347.61947                  21057387.0784
        49.7504         38.0004
  24190515.6564    2359398.54749   1822888.43146                  24190515.8244
        40.0004         21.2504
  21644816.4224     -20185.63349    -14808.33147                  21644814.1214
        47.5004         34.5004
  24273303.4534    3484788.67249   2687678.47846                  24273302.0004
        42.5004         22.5004
  23303616.9774   -2281474.57849  -1767956.69347                  23303612.8404
        42.5004         28.7504
  22495277.8984     913211.29349    705727.76347                  22495275.6054
        45.0004         31.5004
 04  7  7 14 18  0.0000000  0 10G 6G15G16G18G21G17G26G30G22G29
  20382123.0704    1217710.79749    960361.11348                  20382120.3984
        49.7504         40.2504
  23936298.5474   -1649965.28949  -1274175.83546                  23936297.1724
        42.2504         22.7504
  23845930.8834    -597115.45349   -464473.61747                  23845928.0164
        41.7504         25.7504
  21078806.2584   -1134316.27049   -906254.69747                  21078802.8324
        50.0004         38.5004
  21056564.5554    -458460.69149   -369732.45047                  21056560.6454
        50.0004         37.5004
  24195830.2734    2387323.71549   1844648.32746                  24195830.0784
        40.5004         21.5004
  21645396.6484     -17135.39849    -12431.51847                  21645394.7664
        47.0004         33.7504
  24280657.1094    3523435.37549   2717792.77846                  24280655.9494
        42.2504         21.5004
  23299054.0944   -2305456.77749  -1786644.14547                  23299049.6994
        42.5004         28.5004
  22497842.8984     926690.77049    716231.25347                  22497840.8484
        44.5004         31.0004
 04  7  7 14 18 10.0000000  0 10G 6G15G16G18G21G17G26G30G22G29
  20385257.5084    1234183.06649    973196.63148                  20385255.0944
        50.7504         40.7504
  23932786.1884   -1668422.21949  -1288557.84546                  23932784.4344
        43.2504         22.7504
  23845209.8834    -600905.69149   -467427.03746                  23845206.9414
        41.5004         25.0004
  21076756.8364   -1145086.19949   -914646.85047                  21076753.5274
        50.7504         38.7504
  21055741.6884    -462784.24649   -373101.45147                  21055737.6804
        50.0004         38.0004
  24201145.5634    2415260.17649   1866416.97846                  24201146.0904
        40.0004         21.5004
  21645991.8134     -14008.35249     -9994.85547                  21645989.3914
        47.0004         33.7504
  24288011.3984    3562077.82049   2747903.74846                  24288009.0044
        42.7504         21.2504
  23294495.7734   -2329406.84449  -1805306.50347                  23294491.6644
        43.0004         28.2504
  22500420.2194     940235.53549    726785.61047                  22500417.9884
        45.5004         31.7504
 04  7  7 14 18 20.0000000  0 10G 6G15G16G18G21G17G26G30G22G29
  20388403.3834    1250713.14149    986077.20148                  20388400.6994
        50.5004         40.5004
  23929276.4614   -1686873.05549  -1302935.12046                  23929273.9804
        43.0004         22.5004
  23844500.4064    -604635.80949   -470333.64447                  23844496.8054
        39.5004         25.7504
  21074716.4924   -1155807.32449   -923000.98347                  21074713.5354
        50.7504         39.0004
  21054922.6644    -467088.48849   -376455.41447                  21054918.6914
        50.0004         38.5004
  24206464.7274    2443206.95349   1888193.64846                  24206463.5704
        40.0004         21.5004
  21646601.2814     -10805.49249     -7499.13447                  21646598.7114
        46.5004         33.7504
  24295362.8834    3600715.02049   2778010.70046                  24295360.9884
        42.5004         20.5004
  23289944.0864   -2353325.75449  -1823944.61447                  23289940.2584
        42.2504         28.2504
  22503010.0394     953844.65649    737390.10947                  22503007.8014
        44.5004         32.0004
 04  7  7 14 18 30.0000000  0 10G 6G15G16G18G21G17G26G30G22G29
  20391559.8674    1267301.65249    999003.30748                  20391557.7034
        50.5004         39.5004
  23925765.5704   -1705317.33649  -1317307.29746                  23925763.2704
        42.5004         22.2504
  23843802.4774    -608305.21149   -473192.93946                  23843798.5594
        40.7504         25.0004
  21072685.8674   -1166478.99649   -931316.56547                  21072682.8444
        50.5004         38.7504
  21054107.1884    -471372.81649   -379793.85247                  21054103.2194
        50.5004         37.7504
  24211784.6174    2471164.58249   1909978.81346                  24211783.9104
        41.0004         21.5004
  21647225.5944      -7526.19949     -4943.83247                  21647222.9734
        47.0004         34.0004
  24302714.4924    3639347.37549   2808113.78346                  24302712.5354
        43.0004         20.2504
  23285398.4614   -2377212.91449  -1842557.99247                  23285394.3714
        43.0004         28.2504
  22505612.0634     967518.67649    748045.18547                  22505610.0594
        45.2504         31.5004
 04  7  7 14 18 40.0000000  0 10G 6G15G16G18G21G17G26G30G22G29
  20394727.5864    1283947.40249   1011974.01548                  20394724.9694
        50.7504         39.5004
  23922256.6174   -1723756.13749  -1331675.17046                  23922255.1374
        43.0004         22.5004
  23843115.3054    -611914.99249   -476005.72446                  23843111.6414
        39.0004         24.0004
  21070664.3524   -1177102.34049   -939594.49447                  21070661.2734
        50.5004         39.0004
  21053295.8444    -475638.33249   -383117.63847                  21053291.5314
        49.7504         37.5004
  24217107.0554    2499131.96949   1931771.54146                  24217105.8834
        41.7504         22.2504
  21647863.6724      -4171.58249     -2329.83347                  21647861.3834
        46.7504         34.0004
  24310064.7664    3677973.62949   2838212.25846                  24310062.5044
        42.2504         19.0004
  23280858.8984   -2401069.38749  -1861147.43547                  23280855.4964
        43.0004         28.0004
  22508226.2664     981256.35249    758749.86747                  22508224.4224
        44.5004         31.0004
 04  7  7 14 18 50.0000000  0 10G 6G15G16G18G21G17G26G30G22G29
  20397905.9844    1300650.71949   1024989.58047                  20397903.3054
        50.5004         39.2504
  23918749.6094   -1742189.16849  -1346038.57246                  23918747.5164
        43.0004         22.7504
  23842439.6024    -615464.83649   -478771.83746                  23842435.9024
        39.2504         24.0004
  21068652.2664   -1187677.06249   -947834.54047                  21068648.7854
        50.5004         38.5004
  21052487.6484    -479884.77349   -386426.55647                  21052483.9454
        50.7504         37.5004
  24222430.3524    2527109.36349   1953572.05346                  24222430.0434
        41.2504         24.2504
  21648516.5234       -741.32449       343.09847                  21648514.0474
        46.7504         33.5004
  24317414.2274    3716594.00049   2868306.03546                  24317411.9184
        41.5004         19.7504
  23276325.1254   -2424894.78149  -1879712.68547                  23276320.5904
        43.0004         27.2504
  22510852.3984     995058.08649    769504.46347                  22510851.0664
        44.5004         30.5004
 04  7  7 14 19  0.0000000  0 10G 6G15G16G18G21G17G26G30G22G29
  20401095.5164    1317412.46549   1038050.67748                  20401093.0744
        50.5004         39.7504
  23915242.7734   -1760615.61749  -1360396.86146                  23915240.9534
        42.5004         23.2504
  23841775.7344    -618953.85249   -481490.57946                  23841772.2774
        40.0004         23.2504
  21066649.2584   -1198202.26249   -956035.98547                  21066646.1684
        51.0004         39.0004
  21051683.2734    -484111.25449   -389719.90347                  21051679.5664
        51.2504         37.5004
  24227756.6724    2555097.68449   1975381.13746                  24227756.5704
        41.7504         24.0004
  21649183.3914       2765.43049      3075.63247                  21649181.7464
        47.5004         33.7504
  24324761.9454    3755209.34849   2898395.91846                  24324760.3714
        41.5004         20.0004
  23271797.1254   -2448688.27049  -1898253.06847                  23271793.0164
        42.5004         27.0004
  22513491.2034    1008924.64849    780309.56847                  22513489.3404
        45.5004         30.5004
 04  7  7 14 19 10.0000000  0 10G 6G15G16G18G21G17G26G30G22G29
  20404296.0394    1334231.23449   1051156.20648                  20404293.5164
        51.0004         40.0004
  23911736.9144   -1779036.80549  -1374751.00046                  23911735.6644
        42.7504         23.5004
  23841123.4384    -622383.38349   -484162.95246                  23841119.3134
        41.2504         24.0004
  21064655.4144   -1208679.31249   -964199.94347                  21064652.0164
        51.0004         39.2504
  21050882.1954    -488319.14149   -392998.79847                  21050878.6914
        50.5004         38.0004
  24233083.8364    2583095.51649   1997197.62946                  24233084.1954
        41.7504         25.2504
  21649865.0314       6347.37149      5866.74647                  21649863.5554
        47.5004         33.5004
  24332109.4224    3793818.04749   2928480.61346                  24332107.2854
        41.0004         19.7504
  23267275.7504   -2472451.17649  -1916769.61447                  23267271.3054
        43.5004         27.7504
  22516142.1174    1022854.71949    791164.15547                  22516140.5784
        45.0004         31.0004
 04  7  7 14 19 20.0000000  0 10G 6G15G16G18G21G17G26G30G22G29
  20407507.6954    1351107.94949   1064306.88048                  20407505.0354
        50.7504         40.0004
  23908232.9454   -1797451.87949  -1389100.42846                  23908231.1334
        42.7504         23.5004
  23840481.8754    -625752.54349   -486788.24746                  23840478.8364
        41.2504         24.5004
  21062671.2034   -1219107.37949   -972325.70047                  21062668.1134
        51.0004         38.7504
  21050085.5084    -492507.54749   -396262.48047                  21050081.6724
        50.0004         38.0004
  24238414.2974    2611103.80949   2019022.23446                  24238414.1214
        41.5004         24.0004
  21650560.9534      10005.37149      8717.14447                  21650559.3364
        48.0004         33.7504
  24339455.0704    3832420.92249   2958560.75346                  24339452.9694
        41.2504         19.7504
  23262759.2664   -2496182.56249  -1935261.61747                  23262755.0354
        43.0004         27.2504
  22518805.0234    1036849.07049    802068.84147                  22518803.2154
        45.7504         31.5004
 04  7  7 14 19 30.0000000  0 10G 6G15G16G18G21G17G26G30G22G29
  20410730.4064    1368041.19949   1077501.60448                  20410727.7344
        51.0004         40.7504
  23904730.0554   -1815862.03149  -1403445.99946                  23904728.2234
        43.0004         24.0004
  23839852.2584    -629062.57449   -489367.55946                  23839848.6914
        40.2504         25.0004
  21060695.7194   -1229487.55949   -980414.15847                  21060692.7624
        51.0004         39.2504
  21049292.0704    -496677.82049   -399512.06547                  21049288.4264
        50.5004         38.5004
  24243745.6884    2639121.44949   2040854.11046                  24243745.9574
        41.2504         24.5004
  21651272.0084      13738.36749     11625.94847                  21651269.8634
        48.2504         34.5004
  24346799.1884    3871016.75049   2988635.36846                  24346797.6254
        39.0004         20.0004
  23258249.2734   -2519883.63349  -1953730.00447                  23258244.9734
        43.0004         28.5004
  22521480.2584    1050906.43849    813022.61047                  22521477.8244
        46.0004         31.2504
 04  7  7 14 19 40.0000000  0 10G 6G15G16G18G21G17G26G30G22G29
  20413963.0234    1385031.09049   1090740.46848                  20413960.5634
        50.7504         40.7504
  23901227.2424   -1834267.37149  -1417787.81046                  23901225.5704
        42.2504         22.5004
  23839233.0864    -632313.45749   -491900.72146                  23839229.8834
        40.5004         24.5004
  21058729.5084   -1239820.03149   -988465.44347                  21058726.3834
        50.5004         39.0004
  21048501.8524    -500829.88749   -402747.43947                  21048498.1094
        50.2504         38.0004
  24249079.0164    2667148.13349   2062693.05446                  24249078.8714
        42.7504         22.7504
  21651996.5634      17546.21149     14593.10347                  21651994.6254
        48.0004         35.0004
  24354143.1254    3909605.22349   3018704.28546                  24354140.9534
        39.0004         18.5004
  23253744.6724   -2543554.35549  -1972174.72347                  23253740.6804
        43.2504         27.5004
  22524166.9384    1065026.82449    824025.50847                  22524165.5824
        44.7504         31.0004
 04  7  7 14 19 50.0000000  0 10G 6G15G16G18G21G17G26G30G22G29
  20417206.4304    1402074.77049   1104021.26148                  20417203.6334
        50.7504         39.7504
  23897724.7504   -1852670.64849  -1432128.04446                  23897723.3244
        42.5004         24.5004
  23838625.6334    -635508.07049   -494390.03946                  23838621.7854
        41.5004         22.7504
  21056771.7034   -1250107.50449   -996481.66347                  21056768.4024
        51.0004         38.5004
  21047714.5234    -504966.53549   -405970.80547                  21047710.7384
        50.7504         38.0004
  24254413.4454    2695181.18049   2084536.99346                  24254413.5394
        43.0004         23.5004
  21652734.5864      21426.12949     17616.41447                  21652733.1764
        48.0004         34.7504
  24361483.8984    3948183.57049   3048765.29746                  24361482.2704
        38.7504         17.7504
  23249245.7194   -2567197.44549  -1990597.93747                  23249241.2114
        44.7504         28.2504
  22526865.6564    1079207.34849    835075.26047                  22526863.7034
        46.0004         31.5004
 04  7  7 14 20  0.0000000  0 10G 6G15G16G18G21G17G26G30G22G29
  20420460.7344    1419176.12149   1117346.98148                  20420458.3244
        50.7504         40.0004
  23894224.5234   -1871068.02749  -1446463.66746                  23894222.4144
        42.7504         22.2504
  23838029.0084    -638642.42249   -496832.39546                  23838025.7114
        42.0004         22.5004
  21054823.3524   -1260346.07449  -1004459.76247                  21054819.9614
        51.0004         39.0004
  21046931.2894    -509083.98449   -409179.21647                  21046927.3444
        50.2504         38.5004
  24259750.0554    2723224.51649   2106388.91346                  24259749.7194
        42.0004         24.5004
  21653487.9614      25382.04749     20698.94447                  21653485.6414
        47.7504         35.0004
  24368823.9304    3986755.41049   3078821.23746                  24368822.7304
        38.7504         18.5004
  23244752.6094   -2590808.98049  -2008996.51247                  23244748.2734
        43.7504         28.2504
  22529576.7034    1093451.85249    846174.85847                  22529573.9414
        45.5004         32.0004
 04  7  7 14 20 10.0000000  0 10G 6G15G16G18G21G17G26G30G22G29
  20423726.2974    1436336.12949   1130718.41847                  20423723.3834
        51.0004         39.2504
  23890725.0084   -1889458.47749  -1460793.87846                  23890722.8284
        42.0004         22.0004
  23837444.4844    -641715.53949   -499227.02146                  23837441.0124
        40.7504         22.7504
  21052884.7274   -1270534.69149  -1012398.94947                  21052881.5004
        50.7504         38.5004
  21046151.3834    -513181.06649   -412371.73347                  21046147.4614
        50.0004         37.7504
  24265088.3204    2751279.20349   2128249.68646                  24265088.7934
        42.0004         22.5004
  21654255.1644      29415.04349     23841.55447                  21654252.9964
        47.5004         33.7504
  24376162.7424    4025321.83249   3108873.07146                  24376161.7464
        38.2504         19.2504
  23240266.1414   -2614387.87549  -2027369.66847                  23240261.2194
        43.7504         27.7504
  22532299.9694    1107761.44949    857325.19547                  22532297.1764
        45.5004         30.0004
 04  7  7 14 20 20.0000000  0 10G 6G15G16G18G21G17G26G30G22G29
  20427002.0864    1453551.43449   1144132.90848                  20426999.4574
        50.5004         40.0004
  23887225.9694   -1907845.44549  -1475121.39946                  23887224.1804
        42.2504         22.5004
  23836870.5554    -644730.91049   -501576.70046                  23836866.7464
        40.5004         22.7504
  21050954.8204   -1280676.90649  -1020301.97347                  21050951.4734
        51.0004         39.0004
  21045374.8054    -517261.23049   -415551.10747                  21045371.0984
        50.0004         38.2504
  24270428.6804    2779341.64849   2150116.44346                  24270429.2304
        42.2504         24.2504
  21655036.4534      33521.70749     27041.55247                  21655034.5474
        47.5004         34.7504
  24383500.2344    4063879.28149   3138917.72146                  24383498.9884
        37.5004         18.5004
  23235784.7664   -2637937.68049  -2045720.17747                  23235780.3134
        44.5004         28.7504
  22535034.6804    1122132.66049    868523.52847                  22535031.8794
        45.5004         31.5004
 04  7  7 14 20 30.0000000  0 10G 6G15G16G18G21G17G26G30G22G29
  20430288.9454    1470822.27049   1157590.71948                  20430286.0784
        51.5004         40.5004
  23883727.7734   -1926228.61349  -1489445.92346                  23883725.6994
        42.0004         22.7504
  23836307.6024    -647688.07049   -503880.97546                  23836303.9734
        40.5004         23.5004
  21049033.7814   -1290772.38349  -1028168.58647                  21049030.3714
        51.2504         38.7504
  21044602.2194    -521324.13349   -418717.00147                  21044597.8984
        50.7504         37.7504
  24275770.5004    2807412.24649   2171989.64746                  24275770.0314
        42.5004         25.0004
  21655832.0944      37702.34449     30299.18847                  21655829.9694
        48.5004         34.0004
  24390835.7114    4102427.89849   3168955.62246                  24390834.7854
        37.5004         19.0004
  23231308.6024   -2661457.92249  -2064047.64347                  23231303.9734
        44.0004         28.7504
  22537780.8284    1136565.60949    879769.96347                  22537778.4224
        45.7504         31.5004
 04  7  7 14 20 40.0000000  0 10G 6G15G16G18G21G17G26G30G22G29
  20433585.9454    1488148.91849   1171091.97248                  20433583.4774
        51.0004         40.5004
  23880229.8204   -1944607.72749  -1503767.32446                  23880228.1884
        42.0004         22.7504
  23835755.9224    -650586.80149   -506139.74646                  23835752.5634
        40.7504         22.7504
  21047121.3364   -1300820.78149  -1035998.51148                  21047118.0084
        51.2504         39.5004
  21043831.9694    -525369.61349   -421869.33347                  21043828.2704
        50.5004         38.7504
  24281114.0944    2835491.37949   2193869.43747                  24281113.3914
        41.7504         26.2504
  21656641.4924      41957.24649     33614.68547                  21656639.7624
        47.5004         34.5004
  24398169.9534    4140967.84449   3198986.69446                  24398168.9454
        37.7504         21.0004
  23226838.7114   -2684948.26649  -2082351.83047                  23226833.9964
        45.0004         28.5004
  22540538.9844    1151060.63749    891064.79747                  22540537.0664
        46.0004         32.5004
 04  7  7 14 20 50.0000000  0 10G 6G15G16G18G21G17G26G30G22G29
  20436893.6724    1505531.64549   1184636.95748                  20436891.0904
        50.7504         40.0004
  23876733.4924   -1962982.46549  -1518085.26846                  23876731.8834
        41.5004         22.7504
  23835215.5234    -653426.70749   -508352.68546                  23835212.2854
        40.5004         22.7504
  21045218.6094   -1310821.73449  -1043791.46447                  21045215.0664
        51.0004         39.0004
  21043065.5634    -529397.21549   -425007.73047                  21043061.9384
        50.5004         38.2504
  24286458.5004    2863579.32849   2215756.12246                  24286459.2034
        40.7504         25.2504
  21657465.3914      46286.83249     36988.39847                  21657463.4574
        47.2504         34.0004
  24405502.5004    4179499.50049   3229011.40946                  24405500.9414
        39.5004         20.2504
  23222373.9534   -2708408.37949  -2100632.41647                  23222369.2734
        45.2504         29.0004
  22543309.2734    1165618.11349    902408.28247                  22543307.5664
        45.5004         31.5004
 04  7  7 14 21  0.0000000  0 10G 6G15G16G18G21G17G26G30G22G29
  20440211.8754    1522969.69949   1198225.04548                  20440209.6684
        50.2504         40.2504
  23873237.6254   -1981353.63349  -1532400.51946                  23873235.6134
        41.5004         22.5004
  23834686.1254    -656208.69549   -510520.48146                  23834683.0434
        40.7504         22.5004
  21043324.1484   -1320776.12149  -1051548.12447                  21043320.6254
        50.7504         38.7504
  21042302.2664    -533407.73849   -428132.81547                  21042298.8094
        50.2504         38.5004
  24291805.3134    2891675.18449   2237649.00146                  24291805.4064
        41.5004         24.7504
  21658303.4144      50690.21949     40419.61147                  21658300.9184
        48.2504         33.5004
  24412832.6564    4218021.74249   3259028.66546                  24412831.8284
        39.2504         21.7504
  23217915.5944   -2731839.07449  -2118890.14047                  23217910.8794
        45.2504         28.0004
  22546090.8984    1180237.13749    913799.73447                  22546089.0274
        45.7504         30.7504
 04  7  7 14 21 10.0000000  0 10G 6G15G16G18G21G17G26G30G22G29
  20443540.6884    1540462.68049   1211855.93248                  20443538.4924
        50.5004         40.0004
  23869742.4454   -1999721.50849  -1546713.13346                  23869740.0394
        42.2504         22.5004
  23834167.9844    -658933.00449   -512643.31946                  23834164.4494
        41.0004         22.2504
  21041438.8524   -1330684.19549  -1059268.70747                  21041435.4494
        51.5004         38.7504
  21041542.5784    -537401.49649   -431244.84247                  21041538.7424
        50.7504         38.5004
  24297152.8054    2919778.75049   2259547.80446                  24297153.5044
        40.0004         23.7504
  21659155.5864      55167.10949     43908.10947                  21659153.2194
        49.0004         33.7504
  24420161.7034    4256534.33249   3289038.45146                  24420160.7464
        39.7504         22.0004
  23213462.6094   -2755240.57849  -2137125.08047                  23213458.2894
        44.2504         29.0004
  22548884.7344    1194917.41849    925238.90447                  22548883.1254
        46.2504         31.5004
 04  7  7 14 21 20.0000000  0 10G 6G15G16G18G21G17G26G30G22G29
  20446880.6884    1558012.43049   1225531.06448                  20446877.9184
        50.5004         39.5004
  23866247.8364   -2018084.34449  -1561021.81646                  23866245.7704
        42.2504         22.5004
  23833660.7274    -661597.86349   -514719.82346                  23833657.6954
        40.5004         22.7504
  21039562.5004   -1340544.13749  -1066951.78147                  21039559.2814
        50.7504         38.5004
  21040785.9384    -541376.77749   -434342.45847                  21040782.4844
        50.2504         37.5004
  24302502.9694    2947891.81649   2281454.12346                  24302503.2304
        39.5004         22.5004
  21660021.3054      59719.41849     47455.35747                  21660019.4734
        47.7504         32.2504
  24427488.7114    4295038.79749   3319041.94746                  24427487.5944
        40.2504         21.7504
  23209015.3594   -2778610.99249  -2155335.77947                  23209010.6254
        45.0004         28.5004
  22551690.5314    1209660.66449    936727.15647                  22551688.4104
        45.5004         30.2504
 04  7  7 14 21 30.0000000  0 10G 6G15G16G18G21G17G26G30G22G29
  20450230.6484    1575618.23449   1239249.85648                  20450228.0744
        50.5004         40.5004
  23862754.4224   -2036442.78149  -1575327.11046                  23862752.2504
        42.0004         22.7504
  23833164.4534    -664203.86749   -516750.49746                  23833161.2704
        41.7504         23.7504
  21037694.8834   -1350356.67649  -1074597.92048                  21037691.7464
        50.7504         39.5004
  21040033.1174    -545334.12949   -437426.13047                  21040029.3794
        50.5004         38.2504
  24307854.3134    2976013.70749   2303367.25946                  24307854.5234
        41.0004         22.5004
  21660901.9224      64346.52049     51060.87547                  21660899.8754
        48.5004         33.2504
  24434814.5784    4333534.47349   3349038.55946                  24434813.3874
        41.5004         22.5004
  23204574.1644   -2801950.97349  -2173522.79247                  23204569.3444
        45.7504         29.0004
  22554507.7034    1224466.16049    948263.89047                  22554505.8244
        46.2504         31.2504
 04  7  7 14 21 40.0000000  0 10G 6G15G16G18G21G17G26G30G22G29
  20453591.9924    1593280.66449   1253012.79748                  20453589.4064
        50.7504         40.0004
  23859261.9144   -2054796.24649  -1589628.46646                  23859259.6524
        41.2504         22.0004
  23832680.3834    -666750.46149   -518734.87546                  23832677.0634
        41.2504         23.0004
  21035837.3134   -1360121.10249  -1082206.55647                  21035833.5744
        50.7504         38.2504
  21039283.6414    -549273.02049   -440495.38947                  21039279.7974
        50.7504         38.5004
  24313207.0704    3004144.91449   2325287.61746                  24313207.7234
        37.7504         22.7504
  21661796.9924      69048.97349     54725.13447                  21661794.6524
        48.5004         32.7504
  24442138.5394    4372021.93049   3379028.71746                  24442137.2704
        42.0004         22.5004
  23200138.3054   -2825259.94149  -2191685.62447                  23200133.6994
        44.5004         29.2504
  22557337.1804    1239334.60549    959849.67247                  22557335.1644
        45.5004         30.5004
 04  7  7 14 21 50.0000000  0 10G 6G15G16G18G21G17G26G30G22G29
  20456963.6724    1610999.96549   1266820.01948                  20456961.3954
        51.0004         40.2504
  23855770.0864   -2073144.49649  -1603925.83646                  23855767.7774
        41.2504         22.5004
  23832207.1644    -669237.34449   -520672.72746                  23832203.8594
        40.0004         23.2504
  21033988.3594   -1369837.35249  -1089777.67547                  21033984.8134
        50.5004         39.2504
  21038537.2894    -553193.17649   -443550.05747                  21038534.2424
        50.5004         39.0004
  24318562.4774    3032285.86749   2347215.62346                  24318562.7704
        39.5004         22.2504
  21662706.0704      73826.99649     58448.27747                  21662703.7584
        48.7504         33.5004
  24449461.1174    4410501.10949   3409012.50046                  24449459.3954
        42.0004         25.5004
  23195708.8594   -2848537.57849  -2209824.04147                  23195704.4304
        44.5004         29.7504
  22560177.9224    1254266.13749    971484.62547                  22560176.3594
        45.0004         30.7504
 04  7  7 14 22  0.0000000  0 10G 6G15G16G18G21G17G26G30G22G29
  20460346.2344    1628775.75449   1280671.28448                  20460344.0234
        50.5004         40.2504
  23852279.7274   -2091488.00849  -1618219.50246                  23852276.9924
        41.5004         22.7504
  23831745.0314    -671664.94949   -522564.36646                  23831742.0474
        40.5004         24.0004
  21032148.3914   -1379505.71149  -1097311.45747                  21032145.1254
        50.2504         39.0004
  21037795.2814    -557094.97749   -446590.43547                  21037791.4694
        50.5004         39.0004
  24323919.6414    3060435.99249   2369150.74446                  24323919.5904
        38.5004         22.5004
  21663629.5704      78680.26249     62230.04647                  21663627.7424
        48.7504         34.0004
  24456781.3364    4448971.73449   3438989.56346                  24456780.6954
        41.5004         24.5004
  23191284.9064   -2871784.19949  -2227938.30747                  23191281.2274
        45.0004         29.0004
  22563031.6804    1269260.27349    983168.36247                  22563029.2974
        46.0004         30.5004
 04  7  7 14 22 10.0000000  0 10G 6G15G16G18G21G17G26G30G22G29
  20463739.5164    1646607.39549   1294566.06348                  20463737.2894
        50.5004         40.0004
  23848789.8444   -2109827.26649  -1632509.78946                  23848787.6644
        42.0004         22.7504
  23831294.2274    -674033.74249   -524410.20346                  23831291.2154
        41.2504         23.7504
  21030317.7194   -1389126.64149  -1104808.29247                  21030314.1954
        51.0004         38.5004
  21037055.9454    -560978.86349   -449616.84447                  21037052.2934
        50.2504         38.5004
  24329278.3364    3088594.93449   2391092.73346                  24329278.6524
        39.2504         21.5004
  21664567.6094      83608.30149     66070.07247                  21664565.5864
        47.7504         34.2504
  24464100.7034    4487433.08249   3468959.43646                  24464099.1764
        41.0004         24.2504
  23186866.7664   -2895000.32049  -2246028.76847                  23186863.0044
        43.7504         28.0004
  22565896.8204    1284316.54749    994900.51647                  22565894.6374
        46.2504         30.0004
 04  7  7 14 22 20.0000000  0 10G 6G15G16G18G21G17G26G30G22G29
  20467143.6094    1664495.37549   1308504.74148                  20467141.2894
        50.7504         40.5004
  23845301.0234   -2128161.92649  -1646796.55846                  23845298.1134
        41.2504         21.5004
  23830854.9304    -676343.47349   -526210.00146                  23830852.1094
        40.5004         25.2504
  21028495.8834   -1398699.86749  -1112267.94147                  21028492.4414
        50.5004         38.7504
  21036320.0864    -564844.66449   -452629.15647                  21036316.7194
        50.2504         39.0004
  24334638.1954    3116762.96549   2413041.84646                  24334638.5944
        39.5004         22.7504
  21665519.7814      88611.33649     69968.54847                  21665517.5164
        48.5004         34.0004
  24471417.6724    4525885.38349   3498922.23046                  24471416.5634
        40.7504         25.0004
  23182455.0314   -2918185.61749  -2264095.23947                  23182451.2114
        43.7504         29.0004
  22568774.0164    1299435.19949   1006681.28547                  22568771.7194
        45.2504         31.5004
 04  7  7 14 22 30.0000000  0 10G 6G15G16G18G21G17G26G30G22G29
  20470558.2114    1682440.38349   1322487.86348                  20470556.0984
        50.2504         40.0004
  23841812.3444   -2146491.15249  -1661079.06546                  23841810.5784
        41.5004         22.7504
  23830426.7344    -678593.27749   -527963.08946                  23830423.3954
        40.5004         24.0004
  21026683.3674   -1408224.42249  -1119689.67747                  21026679.9534
        50.5004         38.0004
  21035588.4384    -568691.45749   -455626.66147                  21035584.6604
        50.0004         37.7504
  24340000.0864    3144940.84449   2434998.60646                  24339999.6054
        40.5004         22.5004
  21666485.9304      93690.34849     73926.21647                  21666484.2854
        48.7504         34.0004
  24478733.4454    4564329.30949   3528878.52546                  24478731.6994
        42.0004         24.0004
  23178048.5474   -2941339.13349  -2282136.94647                  23178045.2194
        44.5004         28.5004
  22571662.7194    1314616.95749   1018511.22447                  22571660.4804
        46.0004         30.0004
 04  7  7 14 22 40.0000000  0 10G 6G15G16G18G21G17G26G30G22G29
  20473983.8834    1700442.89549   1336515.77648                  20473982.0354
        51.0004         40.2504
  23838326.0164   -2164814.48849  -1675356.98646                  23838323.7544
        41.0004         22.5004
  23830009.8054    -680782.60249   -529669.08446                  23830007.3914
        41.5004         22.7504
  21024880.1884   -1417699.97749  -1127073.21947                  21024876.5824
        50.7504         39.2504
  21034859.9534    -572518.73449   -458608.96347                  21034856.3164
        50.5004         39.0004
  24345364.4224    3173129.11349   2456963.46746                  24345364.4454
        39.5004         22.0004
  21667467.1954      98845.83249     77943.46647                  21667465.2894
        48.5004         34.5004
  24486047.9614    4602765.40249   3558828.73447                  24486046.3914
        42.5004         25.7504
  23173648.8914   -2964460.37149  -2300153.48447                  23173645.0434
        45.5004         29.2504
  22574563.9614    1329862.44949   1030390.80847                  22574561.8324
        45.5004         30.5004
 04  7  7 14 22 50.0000000  0 10G 6G15G16G18G21G17G26G30G22G29
  20477420.4844    1718501.62549   1350587.51848                  20477418.3284
        51.0004         40.0004
  23834839.9534   -2183133.19549  -1689631.28246                  23834837.7934
        42.0004         22.2504
  23829604.9614    -682912.76249   -531328.94846                  23829601.8874
        40.7504         24.0004
  21023086.2424   -1427127.76249  -1134419.55347                  21023082.8444
        50.5004         39.2504
  21034135.1254    -576327.79749   -461577.06647                  21034131.0904
        50.5004         38.7504
  24350729.7504    3201326.58249   2478935.51146                  24350729.5354
        38.5004         22.5004
  21668462.7664     104076.45349     82019.27847                  21668460.4104
        48.7504         33.7504
  24493359.9924    4641192.09849   3588771.58346                  24493358.7274
        41.0004         24.5004
  23169255.4534   -2987550.57449  -2318145.86047                  23169251.1454
        44.5004         29.7504
  22577476.8754    1345170.19149   1042318.91347                  22577475.1334
        45.5004         31.0004
 04  7  7 14 23  0.0000000  0 10G 6G15G16G18G21G17G26G30G22G29
  20480868.0164    1736617.40249   1364703.69748                  20480865.8714
        50.0004         40.5004
  23831355.3054   -2201446.42649  -1703901.35246                  23831353.0004
        41.2504         22.7504
  23829210.9384    -684982.84049   -532942.02546                  23829207.8834
        40.7504         25.0004
  21021301.5864   -1436506.97349  -1141728.02448                  21021298.2894
        50.7504         39.7504
  21033413.8914    -580117.77049   -464530.29947                  21033410.0594
        51.0004         38.2504
  24356098.0164    3229534.04749   2500915.32246                  24356097.3634
        39.5004         22.2504
  21669472.2584     109383.12949     86154.34947                  21669470.1724
        48.2504         34.2504
  24500670.6254    4679610.25849   3618707.77547                  24500670.1294
        39.7504         26.0004
  23164867.3364   -3010608.87149  -2336113.35447                  23164863.3404
        45.5004         30.5004
  22580401.5474    1360541.16849   1054296.28547                  22580399.7304
        46.5004         31.2504
 04  7  7 14 23 10.0000000  0 10G 6G15G16G18G21G17G26G30G22G29
  20484326.2034    1754790.09049   1378864.22148                  20484323.9734
        50.5004         40.7504
  23827871.7504   -2219754.35249  -1718167.24546                  23827869.0824
        41.5004         22.5004
  23828828.2274    -686993.13749   -534508.47346                  23828825.2154
        43.0004         24.2504
  21019525.5944   -1445837.69949  -1148998.73248                  21019522.2974
        50.2504         39.5004
  21032696.0944    -583888.82049   -467468.78747                  21032692.1214
        50.7504         38.0004
  24361467.4614    3257751.27349   2522902.75946                  24361467.4264
        37.0004         22.5004
  21670496.6024     114765.67249     90348.53647                  21670494.1484
        49.0004         34.2504
  24507979.7114    4718019.61749   3648637.15946                  24507979.1994
        42.0004         25.0004
  23160485.3754   -3033635.35949  -2354056.10147                  23160481.3444
        46.0004         29.7504
  22583338.8914    1375975.09049   1066322.72747                  22583337.3834
        45.0004         31.0004
 04  7  7 14 23 20.0000000  0 10G 6G15G16G18G21G17G26G30G22G29
  20487794.8914    1773019.23449   1393068.73948                  20487793.0394
        51.0004         40.2504
  23824388.2894   -2238057.33649  -1732429.35646                  23824385.9414
        41.7504         22.7504
  23828457.7894    -688943.85249   -536028.51946                  23828453.9494
        42.2504         25.5004
  21017759.1334   -1455120.29749  -1156231.92547                  21017756.0784
        50.0004         38.5004
  21031982.3054    -587641.26649   -470392.76847                  21031978.6024
        50.2504         38.7504
  24366838.7034    3285978.03149   2544897.62346                  24366839.2274
        39.0004         21.7504
  21671535.3834     120223.82049     94601.63947                  21671533.3244
        48.0004         34.5004
  24515286.8834    4756419.66049   3678559.27246                  24515285.9884
        41.5004         24.0004
  23156110.3364   -3056630.35249  -2371974.26647                  23156105.9804
        44.7504         30.2504
  22586288.1644    1391471.63349   1078397.94247                  22586286.2034
        46.0004         32.0004
 04  7  7 14 23 30.0000000  0 10G 6G15G16G18G21G17G26G30G22G29
  20491274.9774    1791305.43449   1407317.72148                  20491272.7464
        50.5004         40.7504
  23820907.1954   -2256354.84849  -1746687.14946                  23820904.7074
        41.7504         22.2504
  23828097.8674    -690834.51649   -537501.81646                  23828093.9104
        40.0004         25.5004
  21016002.2114   -1464354.21149  -1163427.18247                  21015998.7234
        50.5004         38.7504
  21031272.0084    -591374.52749   -473301.81547                  21031267.8794
        50.0004         38.7504
  24372212.3984    3314214.75049   2566900.27846                  24372213.4844
        36.5004         21.2504
  21672588.5394     125758.07449     98914.05847                  21672586.4104
        47.0004         33.7504
  24522592.7814    4794810.89549   3708474.46746                  24522591.4224
        41.7504         22.7504
  23151740.1724   -3079593.27349  -2389867.44447                  23151736.0314
        45.2504         29.2504
  22589248.6414    1407031.25449   1090522.31747                  22589246.8014
        45.5004         31.0004
 04  7  7 14 23 40.0000000  0 10G 6G15G16G18G21G17G26G30G22G29
  20494765.4064    1809648.40649   1421610.94048                  20494763.0594
        50.7504         40.0004
  23817425.8134   -2274647.21149  -1760940.96446                  23817423.1884
        42.0004         22.0004
  23827749.4774    -692665.41849   -538928.48746                  23827745.8674
        41.7504         22.7504
  21014254.2274   -1473539.66049  -1170584.67847                  21014251.0784
        50.5004         38.2504
  21030565.2424    -595089.06249   -476196.25447                  21030561.2854
        49.0004         38.0004
  24377587.2814    3342461.25449   2588910.45946                  24377588.1764
        36.2504         21.0004
  21673655.7034     131368.20749    103285.58147                  21673653.7544
        47.0004         33.7504
  24529896.3594    4833192.92249   3738382.52546                  24529895.2894
        41.7504         22.5004
  23147376.3364   -3102524.33649  -2407735.82447                  23147372.0744
        45.5004         29.2504
  22592221.4224    1422653.67249   1102695.62347                  22592219.8014
        43.5004         29.7504
 04  7  7 14 23 50.0000000  0 10G 6G15G16G18G21G17G26G30G22G29
  20498267.0314    1828049.05949   1435949.10448                  20498264.6804
        50.7504         40.7504
  23813945.8754   -2292933.46949  -1775189.97146                  23813943.3364
        41.5004         23.5004
  23827411.9144    -694435.59449   -540307.82146                  23827409.0984
        40.0004         24.5004
  21012515.3914   -1482675.80549  -1177703.75347                  21012512.5084
        50.5004         38.7504
  21029861.4844    -598783.93749   -479075.38647                  21029857.8714
        49.5004         38.0004
  24382965.0394    3370718.35248   2610928.98446                  24382964.5664
        35.7504         19.5004
  21674738.1414     137055.11349    107716.94047                  21674736.3834
        46.5004         34.0004
  24537198.7664    4871566.56349   3768284.06346                  24537197.4734
        41.5004         22.5004
  23143018.8914   -3125422.66449  -2425578.65247                  23143015.0084
        45.7504         30.0004
  22595206.2584    1438339.68449   1114918.48047                  22595204.4494
        45.2504         30.0004
 04  7  7 14 24  0.0000000  0 10G 6G15G16G18G21G17G26G30G22G29
  20501778.8914    1846505.68449   1450330.87848                  20501776.9534
        51.0004         40.7504
  23810467.4454   -2311215.21949  -1789435.47746                  23810464.4494
        41.5004         22.7504
  23827087.0554    -696146.59849   -541641.10846                  23827083.7544
        41.5004         24.2504
  21010786.1724   -1491764.29749  -1184785.68947                  21010783.0744
        50.7504         39.0004
  21029162.2734    -602460.45349   -481940.20847                  21029158.6604
        49.0004         38.5004
  24388342.8524    3398984.63749   2632954.62846                  24388343.3754
        36.2504         20.2504
  21675834.5864     142817.25049    112206.91347                  21675832.3134
        46.0004         33.2504
  24544498.9924    4909930.00049   3798177.59746                  24544497.7814
        40.7504         23.2504
  23138667.6804   -3148289.73849  -2443397.14347                  23138664.2544
        45.7504         30.0004
  22598203.3594    1454087.84849   1127189.77047                  22598201.4024
        44.5004         30.7504
 04  7  7 14 24 10.0000000  0 10G 6G15G16G18G21G17G26G30G22G29
  20505302.2274    1865019.66849   1464757.35748                  20505300.3244
        51.2504         41.0004
  23806989.2584   -2329491.24249  -1803676.55146                  23806986.9184
        42.5004         22.7504
  23826772.7034    -697797.16449   -542927.28946                  23826768.9844
        42.2504         24.2504
  21009066.2274   -1500803.78949  -1191829.45247                  21009062.6914
        50.7504         39.0004
  21028466.5084    -606117.46549   -484789.83947                  21028462.4694
        48.2504         39.0004
  24393723.8834    3427261.22748   2654988.20546                  24393723.7664
        34.0004         19.0004
  21676945.7274     148655.88749    116756.49847                  21676943.0904
        44.5004         34.0004
  24551797.6024    4948284.62549   3828064.32646                  24551796.3324
        40.0004         22.5004
  23134322.2274   -3171124.31249  -2461190.33247                  23134318.7974
        46.2504         30.0004
  22601211.8444    1469899.22749   1139510.31247                  22601210.3284
        42.7504         30.7504
 04  7  7 14 24 20.0000000  0 10G 6G15G16G18G21G17G26G30G22G29
  20508836.1484    1883590.27049   1479227.94148                  20508833.8404
        50.5004         41.0004
  23803511.7504   -2347762.06249  -1817913.52046                  23803510.1764
        40.5004         22.7504
  23826470.5084    -699387.88349   -544166.82446                  23826466.5314
        41.0004         23.5004
  21007355.2194   -1509794.88349  -1198835.50047                  21007351.6094
        50.7504         39.0004
  21027774.2114    -609755.57449   -487624.73547                  21027769.9884
        48.7504         38.2504
  24399106.6174    3455547.55548   2677029.56346                  24399106.8094
        33.0004         17.7504
  21678070.9614     154570.40249    121365.22847                  21678068.7814
        44.7504         34.0004
  24559094.4064    4986629.69949   3857943.56246                  24559092.9734
        40.0004         21.5004
  23129982.8674   -3193926.85549  -2478958.53847                  23129979.9144
        46.5004         30.5004
  22604232.9304    1485773.22349   1151879.66147                  22604230.7934
        43.2504         30.5004
 04  7  7 14 24 30.0000000  0 10G 6G15G16G18G21G17G26G30G22G29
  20512380.7894    1902217.17649   1493742.40948                  20512378.4734
        50.7504         40.7504
  23800036.3754   -2366028.12949  -1832146.85946                  23800033.9804
        42.0004         22.7504
  23826178.8914    -700919.14549   -545360.04446                  23826174.8714
        41.5004         24.7504
  21005653.4304   -1518737.89149  -1205804.08247                  21005649.8094
        50.7504         39.2504
  21027085.2504    -613375.12549   -490445.16347                  21027081.2424
        49.5004         38.5004
  24404490.2734    3483843.40248   2699078.26646                  24404491.0744
        34.2504         18.2504
  21679211.5084     160560.62949    126032.93847                  21679208.9964
        47.0004         34.5004
  24566388.8054    5024964.68449   3887814.94446                  24566388.1484
        38.5004         20.7504
  23125650.3134   -3216697.62549  -2496701.99147                  23125646.2934
        45.5004         30.2504
  22607265.3674    1501709.55949   1164297.57347                  22607263.0594
        44.5004         28.7504
 04  7  7 14 24 40.0000000  0 10G 6G15G16G18G21G17G26G30G22G29
  20515936.3594    1920901.76649   1508301.82748                  20515934.0664
        50.2504         40.2504
  23796561.8754   -2384288.01249  -1846375.30446                  23796559.5204
        42.0004         22.0004
  23825898.4304    -702389.57449   -546505.83346                  23825894.7774
        40.7504         24.5004
  21003960.9454   -1527631.44949  -1212734.12547                  21003957.7774
        50.5004         39.2504
  21026400.6254    -616974.71949   -493250.05247                  21026396.2194
        48.7504         38.0004
  24409877.0704    3512149.93448   2721135.21546                  24409877.7624
        32.2504         17.7504
  21680365.5944     166627.72749    130760.53847                  21680363.3094
        46.5004         34.0004
  24573682.3834    5063290.92249   3917679.53246                  24573681.9224
        38.5004         20.5004
  23121323.4614   -3239435.32849  -2514419.66247                  23121319.3794
        45.5004         30.2504
  22610310.0554    1517709.53549   1176765.08447                  22610308.2234
        44.0004         30.0004
 04  7  7 14 24 50.0000000  0 10G 6G15G16G18G21G17G26G30G22G29
  20519502.4774    1939642.89149   1522905.29548                  20519500.2544
        50.7504         40.0004
  23793088.8984   -2402542.78949  -1860599.82146                  23793085.5084
        41.0004         22.5004
  23825629.9694    -703800.19549   -547605.05746                  23825627.1684
        40.7504         22.5004
  21002277.8984   -1536476.71149  -1219626.53547                  21002274.4844
        50.5004         39.0004
  21025718.8054    -620555.39849   -496040.20047                  21025715.1054
        49.7504         38.0004
  24415265.6644    3540466.28948   2743199.88746                  24415265.5984
        34.7504         17.2504
  21681534.4924     172770.77049    135547.32147                  21681532.5044
        46.2504         33.7504
  24580973.5554    5101607.14149   3947536.35946                  24580972.9804
        38.0004         19.2504
  23117002.6094   -3262140.93449  -2532112.35347                  23116998.9344
        46.0004         30.0004
  22613366.8754    1533771.93449   1189281.23347                  22613364.6954
        44.5004         30.0004
 04  7  7 14 25  0.0000000  0 10G 6G15G16G18G21G17G26G30G22G29
  20523079.7344    1958441.70349   1537553.71748                  20523077.7544
        51.7504         41.0004
  23789615.3914   -2420791.50049  -1874819.60046                  23789612.3874
        42.7504         22.0004
  23825373.5234    -705150.10949   -548656.93446                  23825370.1524
        41.0004         22.7504
  21000603.9144   -1545272.59049  -1226480.47547                  21000600.5434
        51.0004         39.2504
  21025041.3204    -624116.21549   -498814.86647                  21025037.3284
        49.5004         38.2504
  24420656.7344    3568793.31348   2765272.84846                  24420656.2074
        34.2504         16.2504
  21682718.2274     178990.73049    140394.05347                  21682716.1414
        46.7504         34.5004
  24588263.8834    5139914.40649   3977386.09246                  24588262.4224
        36.5004         18.2504
  23112688.2734   -3284813.45349  -2549779.27247                  23112684.0664
        46.0004         29.0004
  22616434.8444    1549897.89149   1201846.89347                  22616433.2664
        45.2504         30.0004
 04  7  7 14 25 10.0000000  0 10G 6G15G16G18G21G17G26G30G22G29
  20526667.9384    1977296.79749   1552245.98748                  20526665.4534
        51.2504         40.2504
  23786143.6644   -2439035.32849  -1889035.58146                  23786141.3324
        42.2504         24.5004
  23825128.1484    -706440.37149   -549662.32146                  23825124.3134
        41.2504         22.7504
  20998939.2504   -1554020.28149  -1233296.85347                  20998935.8914
        50.5004         38.7504
  21024367.2974    -627658.29349   -501574.93447                  21024363.4964
        50.0004         38.0004
  24426048.5634    3597129.79348   2787353.20346                  24426049.1054
        33.0004         17.2504
  21683916.2664     185286.49649    145299.83747                  21683914.2304
        46.5004         33.5004
  24595551.3444    5178211.32049   4007227.87646                  24595550.2304
        37.2504         18.2504
  23108379.7274   -3307454.00449  -2567421.23747                  23108375.9964
        46.7504         29.7504
  22619516.0004    1566086.10249   1214461.06247                  22619513.9774
        43.7504         29.5004
 04  7  7 14 25 20.0000000  0 10G 6G15G16G18G21G17G26G30G22G29
  20530266.2974    1996208.24249   1566982.17448                  20530264.5394
        51.5004         41.2504
  23782673.3834   -2457274.16849  -1903247.64446                  23782670.7074
        41.5004         24.5004
  23824893.5084    -707671.01249   -550621.27346                  23824890.4144
        41.5004         22.5004
  20997283.8754   -1562719.69949  -1240075.62348                  20997280.3244
        50.2504         39.7504
  21023696.8444    -631181.59849   -504320.37247                  21023693.0824
        50.0004         38.7504
  24431442.7114    3625476.02748   2809441.18446                  24431443.4304
        33.2504         16.7504
  21685128.8524     191658.02349    150264.65747                  21685126.7384
        47.0004         34.7504
  24602836.2894    5216497.82849   4037061.48846                  24602835.6054
        37.0004         17.2504
  23104077.3284   -3330062.42649  -2585038.20647                  23104073.8674
        46.2504         30.2504
  22622608.3284    1582336.53149   1227123.75347                  22622605.6254
        45.5004         30.2504
 04  7  7 14 25 30.0000000  0 10G 6G15G16G18G21G17G26G30G22G29
  20533875.9694    2015176.85949   1581762.91348                  20533873.9804
        50.7504         41.0004
  23779203.4144   -2475507.41049  -1917455.40946                  23779201.2894
        40.5004         24.2504
  23824671.1254    -708841.18749   -551533.16746                  23824667.5634
        41.0004         22.7504
  20995638.0634   -1571370.16049  -1246816.23448                  20995634.2934
        50.0004         39.5004
  21023030.4454    -634685.43449   -507050.63747                  21023026.2584
        50.2504         38.5004
  24436838.7344    3653832.57448   2831537.11346                  24436840.0984
        33.5004         16.2504
  21686356.1644     198106.10949    155289.15647                  21686353.7464
        48.2504         34.7504
  24610120.1884    5254774.63749   4066887.56346                  24610119.4574
        36.0004         17.2504
  23099781.5164   -3352638.04749  -2602629.59947                  23099777.8954
        45.5004         30.7504
  22625712.8524    1598649.88349   1239835.42547                  22625710.3914
        44.7504         30.5004
 04  7  7 14 25 40.0000000  0 10G 6G15G16G18G21G17G26G30G22G29
  20537496.7274    2034202.22349   1596587.86048                  20537494.6604
        51.0004         40.5004
  23775734.8054   -2493735.28949  -1931658.96846                  23775732.3874
        42.5004         22.7504
  23824460.0164    -709951.22749   -552398.12846                  23824456.5314
        40.7504         24.5004
  20994001.0314   -1579971.86349  -1253518.86547                  20993997.2814
        50.7504         39.0004
  21022367.1024    -638170.01249   -509765.90447                  21022363.4304
        50.2504         38.5004
  24442237.3364    3682199.14548   2853640.93446                  24442238.4494
        33.5004         16.2504
  21687597.4304     204630.50449    160373.08547                  21687595.3754
        48.2504         34.7504
  24617402.0234    5293041.29349   4096705.74246                  24617401.3794
        37.0004         16.2504
  23095491.7664   -3375181.07049  -2620195.59447                  23095487.6524
        46.5004         29.5004
  22628829.3444    1615025.93049   1252596.00347                  22628826.9144
        43.7504         30.7504
 04  7  7 14 25 50.0000000  0 10G 6G15G16G18G21G17G26G30G22G29
  20541127.5474    2053284.85949   1611457.44048                  20541125.3954
        51.0004         40.5004
  23772267.9844   -2511957.25049  -1945857.87946                  23772264.7234
        41.5004         22.7504
  23824259.8364    -711000.68749   -553215.90246                  23824257.0744
        41.5004         23.2504
  20992373.1724   -1588524.40649  -1260183.18347                  20992370.1174
        51.0004         39.2504
  21021707.7504    -641634.79349   -512465.73847                  21021703.9494
        50.5004         38.7504
  24447636.8364    3710576.36348   2875753.00046                  24447638.2894
        33.5004         15.5004
  21688853.6564     211231.70749    165516.88147                  21688851.5124
        48.0004         34.0004
  24624682.0164    5331298.30949   4126516.36346                  24624681.2774
        37.5004         16.2504
  23091208.3444   -3397691.00049  -2637735.81847                  23091204.6564
        46.5004         29.0004
  22631957.2504    1631465.03949   1265405.69747                  22631955.2814
        44.7504         29.7504
 04  7  7 14 26  0.0000000  0 10G 6G15G16G18G21G17G26G30G22G29
  20544769.8524    2072423.17249   1626370.40748                  20544767.4844
        51.0004         40.0004
  23768800.2584   -2530174.83649  -1960053.40846                  23768797.3984
        41.5004         25.2504
  23824070.9144    -711991.12949   -553987.65546                  23824068.6604
        41.2504         24.5004
  20990755.1024   -1597029.24649  -1266810.33548                  20990752.1214
        49.7504         39.5004
  21021051.8984    -645081.33249   -515151.35347                  21021048.1054
        50.0004         38.2504
  24453038.7274    3738962.49648   2897872.02046                  24453040.2854
        33.2504         16.2504
  21690124.0004     217908.13349    170719.29347                  21690122.2624
        46.5004         33.5004
  24631960.7504    5369543.87049   4156318.03946                  24631958.9344
        38.2504         16.2504
  23086930.3134   -3420169.35249  -2655251.40147                  23086927.0554
        46.0004         29.0004
  22635097.0394    1647965.68449   1278263.33347                  22635095.6094
        45.2504         30.0004
 04  7  7 14 26 10.0000000  0 10G 6G15G16G18G21G17G26G30G22G29
  20548422.7344    2091618.90249   1641328.11548                  20548420.3134
        51.5004         40.2504
  23765335.0704   -2548386.33249  -1974244.17646                  23765332.1684
        42.5004         23.7504
  23823894.5704    -712920.74249   -554712.06446                  23823891.2774
        41.2504         22.5004
  20989146.1174   -1605484.69949  -1273399.00247                  20989142.7544
        50.5004         39.2504
  21020399.7424    -648508.00049   -517821.48847                  21020396.2544
        51.0004         38.2504
  24458442.1334    3767359.49648   2919999.52746                  24458443.6724
        34.2504         16.7504
  21691409.0164     224661.62949    175981.76247                  21691407.3984
        47.5004         34.0004
  24639236.2344    5407779.73449   4186112.29746                  24639234.9144
        38.2504         15.5004
  23082659.5554   -3442614.28949  -2672740.96647                  23082655.6134
        45.5004         29.5004
  22638249.1334    1664529.61349   1291170.28747                  22638246.8634
        45.0004         29.7504
 04  7  7 14 26 20.0000000  0 10G 6G15G16G18G21G17G26G30G22G29
  20552086.2114    2110870.96949   1656329.71648                  20552083.4024
        50.5004         40.2504
  23761870.3594   -2566592.83649  -1988431.08746                  23761867.4414
        42.5004         24.2504
  23823729.3364    -713790.58049   -555389.87546                  23823726.0274
        40.0004         22.7504
  20987546.1644   -1613891.86349  -1279950.03948                  20987542.5944
        50.0004         39.7504
  21019751.3204    -651915.80549   -520476.92547                  21019747.7934
        50.0004         38.5004
  24463847.8914    3795766.06648   2942134.51246                  24463849.4304
        34.5004         16.7504
  21692708.8524     231491.03549    181303.37647                  21692707.1094
        46.5004         34.5004
  24646510.8054    5446004.64149   4215897.91046                  24646508.2304
        38.2504         14.7504
  23078394.7424   -3465026.97749  -2690205.40947                  23078390.6484
        45.2504         29.5004
  22641412.8524    1681155.59849   1304125.58547                  22641410.7974
        44.5004         30.5004
 04  7  7 14 26 30.0000000  0 10G 6G15G16G18G21G17G26G30G22G29
  20555760.4614    2130179.31349   1671375.17448                  20555757.6094
        51.0004         40.7504
  23758407.1094   -2584794.38749  -2002614.08446                  23758403.7194
        43.0004         24.0004
  23823575.0394    -714600.75449   -556021.18446                  23823571.8054
        39.5004         24.2504
  20985955.4144   -1622250.80949  -1286463.49848                  20985952.2424
        50.5004         39.7504
  21019106.3754    -655304.72749   -523117.64647                  21019102.6564
        48.5004         38.5004
  24469256.4694    3824182.35248   2964277.06646                  24469257.0274
        35.2504         16.2504
  21694022.7114     238396.37549    186684.15847                  21694020.8444
        45.0004         34.5004
  24653782.2034    5484218.59049   4245675.05546                  24653780.2504
        38.0004         15.5004
  23074135.9064   -3487407.22749  -2707644.54347                  23074131.8014
        45.2504         29.7504
  22644588.6954    1697843.64849   1317129.27547                  22644586.2274
        45.0004         30.5004
 04  7  7 14 26 40.0000000  0 10G 6G15G16G18G21G17G26G30G22G29
  20559445.3134    2149543.94549   1686464.48548                  20559442.6644
        51.5004         40.5004
  23754944.1954   -2602991.00449  -2016793.29646                  23754940.9344
        40.2504         24.0004
  23823432.2344    -715351.21549   -556605.98846                  23823429.3794
        40.5004         23.0004
  20984374.1094   -1630561.39849  -1292939.27748                  20984370.6844
        49.7504         40.7504
  21018465.1954    -658674.84849   -525743.72547                  21018461.5984
        50.2504         38.7504
  24474665.3754    3852608.34849   2986427.20346                  24474665.8834
        37.2504         16.2504
  21695350.9224     245377.65249    192124.09047                  21695349.3204
        46.2504         34.2504
  24661052.6334    5522421.41849   4275443.43046                  24661049.8284
        38.5004         16.7504
  23069883.1094   -3509755.04749  -2725058.44047                  23069879.3714
        45.0004         30.7504
  22647776.3284    1714593.79349   1330181.31847                  22647773.9884
        45.2504         30.5004
 04  7  7 14 26 50.0000000  0 10G 6G15G16G18G21G17G26G30G22G29
  20563140.8444    2168964.75449   1701597.57448                  20563138.3364
        51.5004         40.5004
  23751483.1564   -2621182.68449  -2030968.64446                  23751479.9184
        42.5004         25.0004
  23823300.5234    -716041.94549   -557144.19346                  23823298.1484
        40.5004         24.5004
  20982801.8054   -1638823.71949  -1299377.44548                  20982798.8984
        50.0004         40.0004
  21017827.1954    -662026.21949   -528355.18547                  21017823.6024
        49.0004         39.0004
  24480075.8444    3881044.00049   3008584.85546                  24480076.5084
        37.5004         16.7504
  21696694.2274     252434.85949    197623.22247                  21696691.9734
        43.5004         33.5004
  24668319.8754    5560613.04749   4305203.11346                  24668317.4804
        38.5004         15.5004
  23065636.6954   -3532070.41049  -2742447.03547                  23065632.2504
        44.5004         30.5004
  22650975.4614    1731405.89549   1343281.63947                  22650973.3754
        44.7504         29.7504
 04  7  7 14 27  0.0000000  0  9G 6G15G16G18G21G26G30G22G29
  20566847.4144    2188442.52349   1716775.04848                  20566845.0824
        51.5004         39.5004
  23748021.6414   -2639368.61349  -2045139.45346                  23748018.9774
        43.0004         23.7504
  23823180.5474    -716672.14849   -557635.25246                  23823177.7774
        41.0004         24.7504
  20981238.7664   -1647036.85949  -1305777.29847                  20981235.6604
        50.5004         39.0004
  21017193.3054    -665357.76649   -530951.18747                  21017189.2424
        48.7504         38.0004
  21698051.8134     259568.96949    203182.26447                  21698049.4574
        45.0004         33.5004
  24675585.9534    5598794.14849   4334954.65246                  24675582.9614
        38.5004         15.5004
  23061396.2504   -3554352.48849  -2759809.69547                  23061392.0044
        45.7504         30.5004
  22654186.4304    1748280.80149   1356430.90847                  22654184.4224
        44.5004         29.7504
 04  7  7 14 27 10.0000000  0  9G 6G15G16G18G21G26G30G22G29
  20570564.7734    2207977.00449   1731996.71548                  20570562.1884
        51.7504         39.7504
  23744562.3594   -2657549.13749  -2059306.11846                  23744559.4964
        42.5004         23.0004
  23823072.4224    -717242.23849   -558079.51746                  23823069.7424
        42.0004         23.0004
  20979684.9304   -1655201.31649  -1312139.21747                  20979682.0664
        50.7504         39.0004
  21016563.2034    -668669.89849   -533532.08047                  21016559.2974
        48.7504         38.0004
  21699423.5004     266779.39549    208800.77747                  21699421.5784
        45.0004         33.5004
  24682849.3834    5636964.15649   4364697.57846                  24682846.1604
        39.7504         17.2504
  23057162.6414   -3576601.62549  -2777146.68547                  23057158.4414
        45.0004         30.5004
  22657409.4224    1765217.97349   1369628.70647                  22657407.3054
        44.0004         29.5004
 04  7  7 14 27 20.0000000  0  9G 6G15G16G18G21G26G30G22G29
  20574292.8834    2227567.62149   1747262.14147                  20574290.4734
        50.7504         39.0004
  23741103.7974   -2675724.82449  -2073468.98546                  23741100.8134
        41.7504         22.7504
  23822975.1884    -717752.72749   -558477.30546                  23822971.8484
        39.5004         24.7504
  20978140.7274   -1663317.57849  -1318463.55247                  20978137.4384
        50.0004         38.5004
  21015936.4924    -671963.07449   -536098.18847                  21015932.9064
        50.0004         37.5004
  21700810.6334     274065.73849    214478.45547                  21700807.8714
        46.5004         32.5004
  24690110.3834    5675122.73049   4394431.45746                  24690108.2464
        39.2504         17.7504
  23052935.0234   -3598818.21149  -2794458.31547                  23052931.1804
        45.7504         28.2504
  22660644.1724    1782216.94949   1382874.66347                  22660642.3484
        43.5004         28.5004
 04  7  7 14 27 30.0000000  0  9G 6G15G16G18G21G26G30G22G29
  20578031.2194    2247214.04349   1762571.02048                  20578028.7074
        51.0004         39.7504
  23737645.8524   -2693895.87949  -2087628.26346                  23737642.6764
        43.2504         23.7504
  23822889.0704    -718203.75449   -558828.78946                  23822886.2974
        41.7504         22.7504
  20976605.3204   -1671385.85549  -1324750.53147                  20976602.4614
        50.5004         39.2504
  21015313.4694    -675237.56649   -538649.74647                  21015309.2854
        49.5004         38.7504
  21702211.5554     281427.77049    220215.08547                  21702209.1024
        46.5004         34.2504
  24697369.4924    5713269.38349   4424156.10646                  24697367.9924
        39.5004         19.0004
  23048713.4694   -3621002.47349  -2811744.74747                  23048708.9224
        46.0004         29.7504
  22663890.8364    1799277.50449   1396168.58147                  22663889.2114
        43.0004         30.5004
 04  7  7 14 27 40.0000000  0  9G 6G15G16G18G21G26G30G22G29
  20581780.6094    2266916.92249   1777923.91548                  20581778.0944
        50.2504         39.5004
  23734188.5944   -2712061.72749  -2101783.46446                  23734186.1134
        42.0004         25.2504
  23822814.7194    -718594.73849   -559133.42046                  23822811.7734
        40.0004         24.5004
  20975079.2274   -1679405.53549  -1330999.63647                  20975076.4384
        50.7504         39.2504
  21014693.8984    -678492.82449   -541186.31747                  21014689.4264
        50.0004         37.7504
  21703626.9064     288866.05949    226011.16347                  21703624.4494
        46.5004         34.0004
  24704626.3134    5751404.66049   4453871.90046                  24704624.9694
        38.2504         19.0004
  23044498.5784   -3643153.81649  -2829005.54047                  23044493.7034
        45.0004         30.5004
  22667148.9064    1816400.07449   1409510.83147                  22667147.2504
        41.7504         29.2504
 04  7  7 14 27 50.0000000  0  9G 6G15G16G18G21G26G30G22G29
  20585540.9304    2286677.18849   1793321.50848                  20585538.4024
        51.0004         40.2504
  23730733.0784   -2730221.31649  -2115933.80647                  23730730.6374
        42.5004         26.7504
  23822752.3364    -718924.73049   -559390.59346                  23822749.6094
        40.2504         25.2504
  20973562.6954   -1687375.62949  -1337210.10248                  20973559.2854
        50.5004         39.7504
  21014078.4144    -681727.85949   -543707.12847                  21014074.2234
        49.7504         39.0004
  21705057.0944     296381.68449    231867.48047                  21705054.4884
        47.0004         34.2504
  24711881.6254    5789529.40249   4483579.50646                  24711879.8674
        38.0004         19.7504
  23040289.7034   -3665271.23849  -2846239.89047                  23040285.1134
        45.5004         31.0004
  22670419.2734    1833585.65249   1422902.17347                  22670417.6994
        43.0004         29.7504
 04  7  7 14 28  0.0000000  0  9G 6G15G16G18G21G26G30G22G29
  20589311.5314    2306494.34449   1808763.43148                  20589309.1134
        51.0004         40.0004
  23727278.4384   -2748375.10549  -2130079.63646                  23727275.6454
        43.2504         25.5004
  23822700.7424    -719194.06649   -559600.45947                  23822697.9414
        40.7504         26.2504
  20972055.6094   -1695296.53549  -1343382.23948                  20972052.2544
        51.0004         39.5004
  21013466.4384    -684943.01249   -546212.44347                  21013462.7034
        50.7504         38.5004
  21706501.4924     303974.18449    237783.71947                  21706499.8794
        47.0004         34.0004
  24719134.3834    5827643.13349   4513278.44746                  24719132.3954
        38.7504         19.2504
  23036087.2274   -3687354.98449  -2863448.01947                  23036082.7894
        45.2504         30.2504
  22673701.5234    1850833.86349   1436342.31547                  22673699.6214
        43.7504         29.5004
 04  7  7 14 28 10.0000000  0  9G 6G15G16G18G21G26G30G22G29
  20593093.7664    2326368.73849   1824249.96848                  20593091.3134
        51.0004         39.5004
  23723825.0784   -2766522.89849  -2144220.78346                  23723822.5394
        41.2504         24.7504
  23822661.2974    -719402.72749   -559763.07446                  23822658.1884
        40.5004         23.0004
  20970557.4454   -1703168.09849  -1349515.91847                  20970553.9534
        50.2504         39.2504
  21012858.3364    -688138.06649   -548702.10047                  21012854.6094
        50.2504         38.5004
  21707961.5394     311643.82449    243760.06247                  21707959.2304
        47.0004         34.2504
  24726385.1254    5865746.03549   4542968.99546                  24726383.3714
        39.7504         20.2504
  23031891.2034   -3709404.86749  -2880629.74847                  23031887.0044
        46.2504         30.2504
  22676995.8834    1868144.89849   1449831.43847                  22676993.6484
        43.7504         29.5004
 04  7  7 14 28 20.0000000  0  9G 6G15G16G18G21G26G30G22G29
  20596886.8204    2346300.73849   1839781.39748                  20596884.6844
        51.0004         39.7504
  23720373.2664   -2784664.18449  -2158356.81446                  23720370.1764
        41.5004         24.0004
  23822633.7424    -719550.01249   -559877.84746                  23822629.9144
        40.5004         24.0004
  20969069.0084   -1710989.73049  -1355610.69848                  20969066.1684
        50.2504         39.7504
  21012254.1884    -691312.59849   -551175.75847                  21012250.1024
        49.7504         38.5004
  21709435.5394     319391.01249    249796.83447                  21709433.6524
        47.2504         33.7504
  24733634.0944    5903838.41849   4572651.37846                  24733632.5664
        39.2504         19.7504
  23027701.8134   -3731420.41449  -2897784.69447                  23027697.3794
        45.7504         29.7504
  22680302.3674    1885519.12549   1463369.79247                  22680299.6604
        42.7504         30.2504
 04  7  7 14 28 30.0000000  0  9G 6G15G16G18G21G26G30G22G29
  20600690.6564    2366290.18449   1855357.57847                  20600688.7154
        50.5004         39.2504
  23716922.0864   -2802799.10949  -2172487.98146                  23716919.2114
        43.5004         24.0004
  23822616.0314    -719636.15649   -559944.99146                  23822614.0394
        39.5004         23.7504
  20967590.0634   -1718761.67249  -1361666.74448                  20967586.5634
        50.7504         39.7504
  21011654.2664    -694466.68749   -553633.50347                  21011650.1604
        50.0004         38.0004
  21710924.2814     327215.65649    255893.95647                  21710922.2814
        47.2504         33.0004
  24740880.1024    5941919.98449   4602325.31046                  24740878.5784
        38.0004         19.7504
  23023518.8914   -3753401.74249  -2914913.02047                  23023514.4384
        45.7504         30.7504
  22683620.6564    1902956.36349   1476957.25247                  22683618.2544
        42.2504         29.5004
 04  7  7 14 28 40.0000000  0  9G 6G15G16G18G21G26G30G22G29
  20604505.1334    2386335.64849   1870977.41748                  20604503.0514
        50.7504         39.5004
  23713471.8284   -2820929.07849  -2186615.21346                  23713469.2504
        42.5004         22.7504
  23822612.1254    -719662.55949   -559965.55746                  23822608.9774
        40.7504         22.7504
  20966120.2034   -1726485.24249  -1367685.12248                  20966116.9964
        50.2504         39.5004
  21011057.4384    -697601.66849   -556076.35147                  21011053.3164
        50.5004         38.5004
  21712427.9534     335116.39549    262050.37647                  21712425.9884
        46.7504         33.5004
  24748124.3754    5979989.41049   4631989.78246                  24748123.6914
        39.0004         20.7504
  23019342.0164   -3775350.09449  -2932015.60347                  23019337.7854
        46.0004         30.5004
  22686950.5634    1920455.21149   1490592.70047                  22686947.9224
        43.5004         30.0004
 04  7  7 14 28 50.0000000  0  9G 6G15G16G18G21G26G30G22G29
  20608330.6024    2406437.59049   1886641.26347                  20608328.2154
        51.2504         39.2504
  23710023.7114   -2839053.65149  -2200738.21646                  23710020.4064
        42.2504         25.0004
  23822618.3284    -719628.75049   -559939.22046                  23822615.1954
        41.5004         22.7504
  20964659.9534   -1734160.13749  -1373665.54848                  20964656.8714
        50.5004         39.5004
  21010464.6484    -700717.10949   -558503.96747                  21010460.6884
        50.5004         38.2504
  21713945.6884     343093.71949    268266.46647                  21713944.1094
        46.0004         33.0004
  24755366.5234    6018046.91449   4661644.93846                  24755365.8484
        37.5004         21.0004
  23015172.4844   -3797265.08249  -2949092.22947                  23015167.5904
        45.5004         29.5004
  22690292.4614    1938016.07449   1504276.47647                  22690289.6954
        42.7504         29.5004
 04  7  7 14 29  0.0000000  0  9G 6G15G16G18G21G26G30G22G29
  20612166.5164    2426595.25849   1902348.51848                  20612164.1804
        50.7504         40.0004
  23706574.9384   -2857173.48049  -2214857.56446                  23706572.6454
        41.7504         23.0004
  23822636.0004    -719535.42649   -559866.47846                  23822632.5944
        40.7504         24.5004
  20963208.5704   -1741786.90649  -1379608.48248                  20963205.4884
        51.0004         39.7504
  21009875.4924    -703813.77749   -560916.95847                  21009871.4574
        50.5004         38.2504
  21715478.2734     351146.86349    274541.63847                  21715476.1684
        47.7504         33.5004
  24762606.1094    6056091.79749   4691290.31646                  24762605.9344
        38.7504         22.0004
  23011007.4924   -3819147.30949  -2966143.32147                  23011003.1804
        45.7504         30.2504
  22693645.6024    1955638.22749   1518008.04447                  22693642.3754
        44.0004         30.0004
 04  7  7 14 29 10.0000000  0  9G 6G15G16G18G21G26G30G22G29
  20616013.0634    2446809.51649   1918099.88948                  20616010.6994
        50.5004         39.5004
  23703128.0554   -2875287.76249  -2228972.59646                  23703125.0434
        43.0004         24.0004
  23822665.4144    -719381.74649   -559746.76346                  23822661.8754
        40.5004         23.0004
  20961766.4774   -1749364.71549  -1385513.27148                  20961763.3054
        50.7504         39.5004
  21009289.9304    -706890.72349   -563314.57747                  21009285.8444
        50.2504         38.5004
  21717025.1954     359276.71549    280876.59447                  21717022.9184
        46.7504         34.0004
  24769844.4144    6094124.78149   4720926.35546                  24769843.7274
        37.7504         22.0004
  23006849.8284   -3840995.90249  -2983168.21047                  23006845.6764
        45.7504         31.2504
  22697010.3444    1973322.46949   1531787.97647                  22697008.1054
        43.5004         30.0004
 04  7  7 14 29 20.0000000  0  9G 6G15G16G18G21G26G30G22G29
  20619870.1174    2467080.13749   1933895.18248                  20619868.4414
        50.5004         39.5004
  23699681.7034   -2893396.70749  -2243083.47546                  23699678.9344
        43.0004         22.5004
  23822706.5164    -719167.87949   -559580.14446                  23822702.6724
        42.0004         22.0004
  20960333.5004   -1756893.78949  -1391380.08348                  20960330.2344
        50.7504         40.0004
  21008708.4064    -709948.10249   -565696.95847                  21008704.0394
        51.5004         38.2504
  21718587.0944     367483.15249    287271.20847                  21718584.7384
        47.0004         33.2504
  24777078.7584    6132145.61749   4750552.94546                  24777078.6054
        38.5004         21.0004
  23002698.8284   -3862810.96949  -3000166.95847                  23002694.2194
        45.7504         30.0004
  22700387.9384    1991068.64849   1545616.16047                  22700385.2464
        43.2504         29.5004
 04  7  7 14 29 30.0000000  0  8G 6G15G16G18G21G26G22G29
  20623738.4144    2487406.25049   1949733.69848                  20623735.9414
        50.7504         39.5004
  23696236.8984   -2911501.12549  -2257190.82646                  23696234.0164
        41.7504         22.7504
  23822757.6024    -718894.68749   -559367.24746                  23822754.9774
        40.5004         22.7504
  20958909.9304   -1764374.95349  -1397209.54448                  20958907.1054
        50.5004         39.7504
  21008129.7584    -712986.84449   -568064.80347                  21008125.8634
        50.5004         38.0004
  21720163.4144     375765.17249    293724.73747                  21720160.6684
        47.5004         33.2504
  22998553.5164   -3884593.34049  -3017140.21847                  22998549.0784
        44.2504         30.0004
  22703776.1804    2008875.82449   1559491.88047                  22703773.7854
        43.5004         29.7504
 04  7  7 14 29 40.0000000  0  8G 6G15G16G18G21G26G22G29
  20627616.9454    2507788.08249   1965615.64648                  20627614.7274
        50.0004         39.5004
  23692792.6024   -2929600.78549  -2271294.44246                  23692789.5554
        43.5004         22.2504
  23822821.6724    -718561.98849   -559108.02046                  23822817.8834
        39.2504         22.5004
  20957495.5314   -1771808.02349  -1403001.54747                  20957492.7154
        51.0004         38.7504
  21007555.2664    -716006.65649   -570417.90847                  21007551.3834
        51.0004         38.2504
  21721753.8054     384123.04749    300237.36347                  21721751.1414
        46.7504         33.5004
  22994415.5234   -3906342.86349  -3034087.89947                  22994410.4264
        45.5004         30.0004
  22707176.5474    2026744.10249   1573415.19647                  22707173.8794
        43.2504         28.5004
 04  7  7 14 29 50.0000000  0  8G 6G15G16G18G21G26G22G29
  20631506.1484    2528226.35549   1981541.55648                  20631504.1134
        50.5004         39.5004
  23689349.5394   -2947694.89149  -2285393.77146                  23689346.4844
        43.0004         22.5004
  23822896.0634    -718168.98449   -558801.78946                  23822892.7584
        40.0004         22.5004
  20956090.7034   -1779192.13749  -1408755.40248                  20956087.2034
        51.0004         39.5004
  21006984.2894    -719006.63749   -572755.56847                  21006980.4414
        51.0004         38.5004
  21723358.8594     392557.69549    306809.81447                  21723356.1644
        47.0004         33.2504
  22990282.2894   -3928058.60549  -3051009.27447                  22990278.1954
        44.5004         30.0004
  22710588.3204    2044674.28549   1587386.76347                  22710586.0704
        43.2504         29.7504
 04  7  7 14 30  0.0000000  0  8G 6G15G16G18G21G26G22G29
  20635406.0004    2548720.16449   1997510.76847                  20635403.7114
        50.5004         39.2504
  23685906.9144   -2965784.39849  -2299489.49946                  23685904.4344
        43.2504         22.2504
  23822982.0474    -717716.60249   -558449.29646                  23822978.2154
        39.2504         23.2504
  20954694.3834   -1786528.27049  -1414471.88047                  20954691.4024
        51.0004         39.0004
  21006417.0004    -721987.82849   -575078.57947                  21006412.9384
        51.2504         38.5004
  21724978.0944     401068.09049    313441.28647                  21724976.1454
        47.5004         33.5004
  22986156.4844   -3949741.49249  -3067905.02547                  22986151.7194
        45.5004         30.0004
  22714011.8524    2062665.39549   1601405.80847                  22714009.6294
        43.7504         29.5004
 04  7  7 14 30 10.0000000  0  8G 6G15G16G18G21G26G22G29
  20639316.3984    2569269.45349   2013523.18548                  20639314.6844
        50.5004         39.7504
  23682465.1954   -2983869.23849  -2313581.52946                  23682462.5634
        43.0004         22.5004
  23823079.7034    -717204.88349   -558050.58046                  23823076.0664
        40.5004         22.7504
  20953307.6254   -1793816.44949  -1420150.96847                  20953304.5824
        51.0004         39.2504
  21005853.5944    -724950.12549   -577386.85747                  21005849.4184
        50.5004         38.5004
  21726612.1334     409654.26649    320131.81647                  21726610.0474
        46.7504         34.0004
  22982036.7114   -3971391.32849  -3084775.01747                  22982032.2154
        44.5004         30.0004
  22717447.0394    2080717.48449   1615472.36347                  22717445.1994
        44.0004         30.0004
 04  7  7 14 30 20.0000000  0  8G 6G15G16G18G21G26G22G29
  20643237.3984    2589874.92649   2029579.37948                  20643235.4144
        51.0004         40.0004
  23679025.4774   -3001948.80549  -2327669.55546                  23679021.9534
        42.5004         23.2504
  23823188.5164    -716633.02049   -557604.97946                  23823184.9534
        41.7504         22.5004
  20951930.0474   -1801055.99249  -1425792.17548                  20951926.9384
        50.7504         40.0004
  21005293.5704    -727892.87149   -579679.92447                  21005289.6454
        50.5004         38.5004
  21728260.2814     418316.84049    326881.87147                  21728258.4144
        47.5004         34.0004
  22977922.8364   -3993007.57449  -3101618.82347                  22977918.9384
        44.5004         30.5004
  22720894.1804    2098831.14149   1629586.88747                  22720892.1844
        43.0004         30.0004
 04  7  7 14 30 30.0000000  0  8G 6G15G16G18G21G26G22G29
  20647169.1954    2610536.29349   2045679.14748                  20647167.2304
        51.0004         40.0004
  23675585.4454   -3020023.35249  -2341753.62746                  23675582.4184
        43.5004         22.0004
  23823308.9304    -716001.28549   -557112.76246                  23823305.0664
        41.2504         23.5004
  20950561.5084   -1808247.01649  -1431395.56748                  20950558.5984
        51.2504         39.7504
  21004737.0784    -730816.24649   -581957.88447                  21004733.2384
        51.0004         38.0004
  21729923.3984     427055.66449    333691.34047                  21729921.5514
        47.0004         34.2504
  22973815.8524   -4014590.30949  -3118436.56547                  22973811.6844
        45.2504         30.0004
  22724352.5634    2117006.12549   1643749.21147                  22724350.9414
        44.7504         29.5004
 04  7  7 14 30 40.0000000  0  8G 6G15G16G18G21G26G22G29
  20651111.6174    2631254.45749   2061823.16948                  20651109.8404
        50.5004         39.7504
  23672147.2274   -3038091.94549  -2355833.05246                  23672143.9104
        42.7504         22.5004
  23823440.2664    -715308.79349   -556573.11646                  23823436.8404
        40.5004         22.7504
  20949202.5784   -1815388.68449  -1436960.49348                  20949199.5234
        51.0004         39.5004
  21004184.5864    -733719.40649   -584220.07847                  21004180.5944
        50.7504         37.7504
  21731601.1954     435871.67649    340560.95947                  21731599.2974
        46.7504         34.0004
  22969715.6414   -4036138.63749  -3135227.45847                  22969711.6414
        45.5004         29.5004
  22727822.9924    2135243.17249   1657959.89147                  22727821.4964
        43.7504         30.0004
 04  7  7 14 30 50.0000000  0  8G 6G15G16G18G21G26G22G29
  20655065.0004    2652028.19149   2078010.48248                  20655062.7194
        50.5004         39.5004
  23668709.8204   -3056155.68049  -2369908.70446                  23668707.1334
        43.5004         22.7504
  23823583.5474    -714556.73449   -555987.12446                  23823580.2584
        38.2504         22.5004
  20947852.7424   -1822482.11749  -1442487.85547                  20947849.5984
        51.0004         39.2504
  21003635.8674    -736603.53149   -586467.46647                  21003631.5864
        50.7504         38.0004
  21733292.9534     444763.70749    347489.81347                  21733291.1684
        48.0004         33.5004
  22965621.1174   -4057653.69149  -3151992.44147                  22965617.5044
        45.0004         30.5004
  22731305.2344    2153541.25049   1672218.12247                  22731303.2774
        44.0004         30.5004
 04  7  7 14 31  0.0000000  0  8G 6G15G16G18G21G26G22G29
  20659028.7114    2672857.50049   2094241.11848                  20659026.6334
        51.0004         39.5004
  23665273.0864   -3074214.67649  -2383980.57646                  23665270.8984
        42.7504         22.5004
  23823738.2664    -713745.14849   -555354.71046                  23823734.6884
        40.5004         22.5004
  20946512.1094   -1829527.41849  -1447977.67747                  20946508.8754
        51.2504         39.2504
  21003090.7194    -739468.59849   -588699.97447                  21003086.8984
        51.0004         37.5004
  21734999.2974     453731.69549    354477.86547                  21734997.7464
        46.2504         33.5004
  22961533.3914   -4079135.53949  -3168731.53347                  22961529.4224
        44.5004         29.5004
  22734798.4614    2171900.19549   1686523.79147                  22734796.6844
        42.5004         29.0004
 04  7  7 14 31 10.0000000  0  8G 6G15G16G18G21G26G22G29
  20663003.0474    2693742.57049   2110515.19048                  20663000.3984
        51.0004         40.0004
  23661836.9534   -3092268.55149  -2398048.61746                  23661835.1844
        43.2504         22.7504
  23823903.6724    -712873.74649   -554675.72146                  23823900.2774
        41.2504         22.7504
  20945180.3984   -1836524.27349  -1453429.78248                  20945177.4654
        51.0004         39.7504
  21002549.1724    -742314.18749   -590917.33447                  21002545.2704
        50.7504         38.2504
  21736721.0164     462775.91049    361525.26847                  21736718.7194
        47.0004         33.7504
  22957451.8914   -4100583.81249  -3185444.48747                  22957448.5044
        45.0004         30.0004
  22738304.2894    2190320.20349   1700877.03147                  22738302.0314
        44.5004         29.0004
 04  7  7 14 31 20.0000000  0  8G 6G15G16G18G21G26G22G29
  20666988.2034    2714683.18849   2126832.54848                  20666985.3244
        51.0004         40.0004
  23658402.5864   -3110317.66449  -2412112.83546                  23658400.7424
        43.5004         23.0004
  23824081.0084    -711942.77049   -553950.26146                  23824077.3914
        40.5004         22.5004
  20943858.2194   -1843472.99649  -1458844.36448                  20943855.1644
        50.5004         39.5004
  21002011.5234    -745140.59449   -593119.73047                  21002007.6684
        50.7504         38.2504
  21738456.2664     471896.12149    368631.94547                  21738454.3524
        47.0004         33.7504
  22953376.6884   -4121998.69549  -3202131.38847                  22953372.9884
        44.2504         29.2504
  22741820.9844    2208801.03549   1715277.68647                  22741818.5004
        45.0004         30.2504
 04  7  7 14 31 30.0000000  0  8G 6G15G16G18G21G26G22G29
  20670983.5394    2735679.77049   2143193.51148                  20670981.1884
        51.0004         40.7504
  23654969.6644   -3128361.46149  -2426172.96346                  23654967.0514
        42.2504         22.5004
  23824270.2504    -710951.75849   -553178.06746                  23824266.2114
        41.7504         23.0004
  20942545.3444   -1850372.97349  -1464220.98448                  20942542.0044
        51.0004         40.5004
  21001477.5314    -747947.35249   -595306.82247                  21001473.2774
        51.0004         39.0004
  21740206.0944     481092.79749    375798.16847                  21740204.0514
        46.2504         34.2504
  22949307.9774   -4143379.59049  -3218791.84047                  22949304.1454
        45.5004         31.2504
  22745349.0084    2227343.11349   1729726.03047                  22745347.0004
        44.5004         30.5004
 04  7  7 14 31 40.0000000  0  8G 6G15G16G18G21G26G22G29
  20674989.8834    2756731.90249   2159597.76248                  20674987.3984
        51.2504         40.7504
  23651536.9224   -3146400.39549  -2440229.22246                  23651534.1684
        43.0004         22.5004
  23824468.9614    -709901.09049   -552359.41246                  23824466.1844
        41.2504         22.0004
  20941241.5784   -1857224.68049  -1469559.97748                  20941238.5984
        51.7504         40.0004
  21000946.6724    -750734.80549   -597478.86647                  21000942.6954
        51.2504         39.0004
  21741971.0944     490365.51249    383023.65647                  21741968.9144
        47.2504         34.0004
  22945246.1334   -4164726.97749  -3235426.16447                  22945242.5124
        46.2504         31.5004
  22748889.2734    2245946.06649   1744221.84747                  22748886.9534
        44.5004         29.0004
 04  7  7 14 31 50.0000000  0  8G 6G15G16G18G21G26G22G29
  20679006.5944    2777839.34449   2176045.12848                  20679004.2544
        51.0004         40.5004
  23648104.5554   -3164434.64149  -2454281.91746                  23648102.4414
        41.2504         22.5004
  23824681.3914    -708791.03149   -551494.41746                  23824677.7974
        40.5004         23.2504
  20939946.7194   -1864028.38749  -1474861.55448                  20939943.5904
        50.7504         39.7504
  21000419.6954    -753503.20749   -599636.06647                  21000416.0124
        50.5004         38.5004
  21743750.0704     499714.22749    390308.36447                  21743747.5314
        47.2504         33.2504
  22941189.9844   -4186040.97749  -3252034.46247                  22941186.2664
        46.2504         30.5004
  22752440.7894    2264609.60249   1758764.85147                  22752438.3444
        45.5004         30.0004
 04  7  7 14 32  0.0000000  0  8G 6G15G16G18G21G26G22G29
  20683033.3754    2799002.01649   2192535.49648                  20683031.0164
        51.0004         40.2504
  23644673.6094   -3182464.30549  -2468331.01046                  23644671.2734
        42.0004         22.7504
  23824903.5164    -707621.65649   -550583.24446                  23824900.1254
        40.0004         23.5004
  20938661.3444   -1870784.15649  -1480125.79448                  20938657.8204
        51.2504         39.7504
  20999897.0084    -756252.67649   -601778.51547                  20999892.9304
        51.0004         38.5004
  21745543.4144     509138.59849    397652.03047                  21745541.0514
        48.5004         33.5004
  22937140.2974   -4207321.69949  -3268616.84547                  22937136.6914
        46.7504         30.5004
  22756004.1804    2283333.46949   1773354.86147                  22756001.4964
        45.5004         29.5004
 04  7  7 14 32 10.0000000  0  8G 6G15G16G18G21G26G22G29
  20687071.1724    2820219.73049   2209068.81248                  20687068.3284
        51.2504         39.5004
  23641243.2424   -3200489.48449  -2482376.55546                  23641240.9534
        41.5004         22.0004
  23825137.1254    -706393.06249   -549625.91046                  23825133.8284
        40.5004         23.0004
  20937384.7894   -1877492.01249  -1485352.67447                  20937381.4774
        50.7504         39.2504
  20999377.1174    -758983.17249   -603906.16747                  20999373.6564
        50.2504         38.0004
  21747351.3754     518638.64849    405054.68447                  21747349.1454
        47.0004         33.2504
  22933097.2114   -4228569.18049  -3285173.31847                  22933093.1564
        45.7504         30.0004
  22759578.4144    2302117.72749   1787991.95847                  22759576.0084
        44.0004         29.5004
 04  7  7 14 32 20.0000000  0  8G 6G15G16G18G21G26G22G29
  20691118.8834    2841491.53549   2225644.21648                  20691116.3444
        51.2504         40.7504
  23637814.6564   -3218511.19949  -2496419.50946                  23637812.0554
        41.5004         22.2504
  23825382.2114    -705106.16049   -548623.14046                  23825378.7384
        41.5004         22.7504
  20936117.1094   -1884153.01649  -1490543.07748                  20936113.9184
        51.0004         40.2504
  20998861.0314    -761695.80549   -606019.92347                  20998857.4694
        51.2504         38.2504
  21749173.4844     528213.40649    412515.52447                  21749170.8954
        48.0004         33.5004
  22929059.8914   -4249784.38349  -3301704.64147                  22929056.3244
        45.7504         31.0004
  22763164.1024    2320961.20349   1802675.16647                  22763161.6764
        45.0004         28.7504
 04  7  7 14 32 30.0000000  0  8G 6G15G16G18G21G26G22G29
  20695177.1644    2862817.98449   2242262.22048                  20695174.6884
        51.0004         40.2504
  23634385.6484   -3236528.75049  -2510459.14046                  23634383.7704
        41.5004         22.7504
  23825638.3284    -703760.39149   -547574.50746                  23825634.5514
        41.2504         22.5004
  20934858.6724   -1890766.53549  -1495696.47348                  20934855.4384
        51.0004         39.5004
  20998348.4924    -764389.82849   -608119.16047                  20998344.9414
        50.7504         38.2504
  21751009.7584     537863.43449    420035.03547                  21751006.9774
        48.0004         34.0004
  22925029.3834   -4270966.55949  -3318210.23247                  22925025.6604
        46.2504         31.2504
  22766761.1804    2339864.57849   1817405.06947                  22766758.6804
        45.0004         28.5004
 04  7  7 14 32 40.0000000  0  8G 6G15G16G18G21G26G22G29
  20699245.7974    2884198.72749   2258922.52348                  20699243.6524
        51.0004         40.5004
  23630957.6254   -3254542.50449  -2524495.84146                  23630955.9304
        41.5004         23.0004
  23825905.4384    -702356.13349   -546480.29346                  23825901.6804
        40.0004         25.2504
  20933608.9454   -1897332.91849  -1500813.13448                  20933605.5904
        50.5004         40.0004
  20997839.2814    -767065.57449   -610204.16747                  20997835.1804
        51.0004         39.2504
  21752860.1884     547588.41849    427612.93047                  21752858.0554
        48.2504         33.7504
  22921004.7664   -4292116.04349  -3334690.35947                  22921000.8834
        46.7504         32.2504
  22770369.7504    2358827.37949   1832181.27047                  22770367.3134
        44.7504         29.2504
 04  7  7 14 32 50.0000000  0  8G 6G15G16G18G21G26G22G29
  20703324.5864    2905633.70349   2275625.10048                  20703322.4344
        51.7504         40.2504
  23627529.8364   -3272552.43449  -2538529.54446                  23627528.8364
        39.7504         22.0004
  23826183.8364    -700893.42249   -545340.50846                  23826180.0864
        41.2504         23.0004
  20932368.6174   -1903852.19949  -1505893.09148                  20932364.9884
        50.5004         39.7504
  20997333.6254    -769723.03149   -612274.90647                  20997329.8524
        51.2504         39.0004
  21754724.9924     557388.35949    435249.24147                  21754723.0234
        48.0004         33.2504
  22916986.2344   -4313232.79749  -3351144.97047                  22916982.6604
        46.2504         31.7504
  22773989.7584    2377849.62149   1847003.78647                  22773987.0784
        45.2504         29.5004
 04  7  7 14 33  0.0000000  0  8G 6G15G16G18G21G26G22G29
  20707413.9774    2927122.46149   2292369.59048                  20707411.7154
        51.5004         40.0004
  23624104.4064   -3290559.02349  -2552560.60246                  23624102.3794
        40.2504         22.7504
  23826473.2344    -699372.66449   -544155.51646                  23826469.4104
        41.5004         23.2504
  20931137.0704   -1910324.72749  -1510936.62048                  20931133.6954
        51.0004         39.5004
  20996831.0164    -772362.68049   -614331.78347                  20996827.4264
        51.0004         38.7504
  21756603.6024     567262.85949    442943.66747                  21756601.9654
        48.5004         33.2504
  22912973.9774   -4334317.29349  -3367574.44147                  22912970.2974
        47.0004         31.5004
  22777620.7734    2396930.79349   1861872.24647                  22777617.5664
        45.2504         28.2504
 04  7  7 14 33 10.0000000  0  8G 6G15G16G18G21G26G22G29
  20711513.1484    2948665.14849   2309156.09448                  20711511.1454
        50.7504         40.7504
  23620678.0164   -3308562.12149  -2566589.01646                  23620676.5204
        40.0004         22.7504
  23826773.8834    -697793.72749   -542925.19946                  23826770.0554
        39.7504         23.7504
  20929914.3674   -1916750.51649  -1515943.72148                  20929910.5904
        50.7504         39.5004
  20996332.0864    -774984.36749   -616374.65747                  20996328.5084
        50.7504         38.0004
  21758497.4534     577212.00849    450696.23647                  21758495.1174
        48.2504         33.0004
  22908968.1414   -4355369.35249  -3383978.63947                  22908964.5434
        47.0004         31.2504
  22781262.8204    2416071.03149   1876786.73647                  22781259.9104
        44.5004         27.7504
 04  7  7 14 33 20.0000000  0  8G 6G15G16G18G21G26G22G29
  20715623.0704    2970261.90649   2325984.73648                  20715621.0904
        50.7504         40.0004
  23617253.3754   -3326561.51649  -2580614.52346                  23617251.9924
        41.2504         22.7504
  23827084.9064    -696156.42249   -541649.39746                  23827081.9454
        38.2504         22.0004
  20928700.2114   -1923129.18749  -1520914.11647                  20928696.8054
        50.5004         38.5004
  20995836.7424    -777587.85549   -618403.35747                  20995832.9534
        51.0004         37.7504
  21760404.7974     587236.01249    458507.14447                  21760402.7584
        48.0004         33.5004
  22904967.8984   -4376388.62949  -3400357.29147                  22904964.5554
        46.5004         31.5004
  22784916.0784    2435270.36749   1891747.24647                  22784913.8714
        44.2504         28.0004
 04  7  7 14 33 30.0000000  0  8G 6G15G16G18G21G26G22G29
  20719743.0704    2991913.32049   2342855.95548                  20719741.0634
        50.5004         41.0004
  23613828.8204   -3344556.74649  -2594636.80046                  23613827.2544
        41.5004         25.0004
  23827407.5474    -694460.22749   -540327.69846                  23827404.1524
        39.2504         22.7504
  20927495.4774   -1929460.31249  -1525847.46648                  20927491.8834
        50.2504         39.7504
  20995345.1174    -780172.64549   -620417.48647                  20995341.1644
        51.2504         39.0004
  21762326.6254     597335.39149    466376.77847                  21762324.5904
        48.2504         33.7504
  22900975.0234   -4397374.64149  -3416710.03547                  22900970.9614
        47.0004         32.5004
  22788580.9924    2454529.52049   1906754.36247                  22788579.0824
        44.2504         28.0004
 04  7  7 14 33 40.0000000  0  8G 6G15G16G18G21G26G22G29
  20723873.2814    3013618.93449   2359769.41948                  20723871.1994
        50.7504         40.7504
  23610405.0314   -3362548.05149  -2608655.99247                  23610402.8444
        42.0004         25.7504
  23827741.7974    -692705.38749   -538960.33546                  23827738.7624
        39.2504         23.2504
  20926299.6414   -1935744.12949  -1530743.94247                  20926296.5164
        50.5004         39.0004
  20994856.7424    -782738.88349   -622417.15047                  20994852.9344
        51.2504         38.7504
  21764263.0314     607509.83249    474304.91247                  21764260.7974
        48.0004         33.5004
  22896987.6334   -4418327.51249  -3433036.95547                  22896983.5314
        47.2504         31.7504
  22792257.6024    2473847.90249   1921807.64647                  22792255.5824
        44.5004         27.7504
 04  7  7 14 33 50.0000000  0  8G 6G15G16G18G21G26G22G29
  20728014.4384    3035378.39849   2376724.83048                  20728012.3874
        51.5004         41.0004
  23606982.1954   -3380535.78949  -2622672.42846                  23606980.0664
        41.0004         25.5004
  23828086.7344    -690892.35949   -537547.55246                  23828083.5634
        39.7504         23.2504
  20925112.9144   -1941981.18449  -1535603.98248                  20925109.5554
        50.7504         39.7504
  20994371.9454    -785286.98049   -624402.68247                  20994368.3054
        51.0004         39.0004
  21766212.5004     617758.99249    482291.26547                  21766210.7344
        48.0004         33.5004
  22893006.8754   -4439247.79349  -3449338.46847                  22893002.3834
        47.0004         32.7504
  22795944.6724    2493225.26249   1936906.88047                  22795942.4264
        44.5004         29.0004
 04  7  7 14 34  0.0000000  0  8G 6G15G16G18G21G26G22G29
  20732165.3284    3057192.25449   2393722.63548                  20732163.4844
        51.2504         41.0004
  23603560.3054   -3398519.39149  -2636685.62646                  23603558.2344
        40.5004         25.0004
  23828442.7034    -689020.57449   -536089.04346                  23828439.5784
        40.0004         22.5004
  20923934.9924   -1948170.82449  -1540427.09048                  20923931.5664
        50.7504         39.7504
  20993890.3834    -787816.39149   -626373.65347                  20993886.3554
        51.0004         38.5004
  21768178.0234     628083.32049    490336.18047                  21768175.9064
        48.2504         33.7504
  22889031.7344   -4460134.89149  -3465614.11647                  22889028.1844
        47.0004         32.7504
  22799643.5234    2512661.96549   1952052.36447                  22799640.5434
        44.0004         29.2504
 04  7  7 14 34 10.0000000  0  8G 6G15G16G18G21G26G22G29
  20736326.9614    3079059.98849   2410762.43648                  20736324.7664
        51.0004         40.5004
  23600137.9614   -3416499.41449  -2650696.03447                  23600136.6094
        41.7504         26.0004
  23828809.7114    -687090.57849   -534585.11446                  23828806.9384
        40.0004         22.5004
  20922766.4144   -1954313.53149  -1545213.61448                  20922762.6524
        50.0004         39.5004
  20993412.4774    -790327.62949   -628330.46247                  20993409.0274
        51.0004         39.0004
  21770156.7584     638482.38749    498439.35147                  21770154.3954
        48.2504         33.5004
  22885063.3914   -4480989.19149  -3481864.21847                  22885059.8244
        47.0004         32.2504
  22803353.4774    2532157.52049   1967243.69447                  22803350.8364
        44.0004         27.7504
 04  7  7 14 34 20.0000000  0  8G 6G15G16G18G21G26G22G29
  20740498.2504    3100982.05949   2427844.55448                  20740496.2584
        51.0004         40.5004
  23596717.6954   -3434475.33249  -2664703.21346                  23596716.0164
        40.2504         25.2504
  23829188.8674    -685101.82049   -533035.48546                  23829185.3954
        40.0004         22.5004
  20921606.0704   -1960408.78949  -1549963.15947                  20921602.8244
        50.2504         39.0004
  20992938.3754    -792820.14549   -630272.67547                  20992934.4884
        50.2504         38.7504
  21772150.0084     648956.68049    506601.14447                  21772147.7194
        47.7504         33.0004
  22881101.5164   -4501810.16049  -3498088.35547                  22881097.4384
        46.7504         32.5004
  22807074.4774    2551712.41449   1982481.25247                  22807072.4924
        44.7504         30.2504
 04  7  7 14 34 30.0000000  0  8G 6G15G16G18G21G26G22G29
  20744679.9534    3122957.97349   2444968.63948                  20744677.8364
        50.7504         40.7504
  23593298.2894   -3452447.55149  -2678707.55247                  23593296.3914
        41.5004         26.0004
  23829578.2274    -683054.72349   -531440.37146                  23829575.1724
        37.7504         22.5004
  20920455.2344   -1966457.00049  -1554676.04747                  20920452.0004
        50.7504         39.2504
  20992467.3754    -795294.26249   -632200.56947                  20992463.7424
        50.7504         38.5004
  21774157.7034     659505.77749    514821.22147                  21774155.1724
        48.5004         33.0004
  22877145.5784   -4522598.05549  -3514286.70947                  22877141.7774
        46.2504         32.0004
  22810807.3444    2571326.16449   1997764.70047                  22810804.8794
        45.2504         29.5004
 04  7  7 14 34 40.0000000  0  8G 6G15G16G18G21G26G22G29
  20748872.3364    3144988.12149   2462134.98148                  20748869.8444
        50.5004         41.0004
  23589878.4694   -3470415.78949  -2692708.77447                  23589876.6454
        40.7504         25.7504
  23829978.5084    -680949.07049   -529799.59246                  23829975.7814
        37.7504         22.2504
  20919313.2194   -1972457.96549  -1559352.12648                  20919310.0554
        50.7504         39.7504
  20992000.1564    -797749.75449   -634113.94947                  20991996.5274
        50.5004         38.2504
  21776179.1254     670130.03949    523099.86447                  21776177.0124
        47.7504         33.5004
  22873196.3134   -4543352.64149  -3530459.10747                  22873192.1454
        47.0004         32.0004
  22814551.1334    2590998.99249   2013094.18547                  22814548.6604
        45.5004         30.2504
 04  7  7 14 34 50.0000000  0  8G 6G15G16G18G21G26G22G29
  20753074.3594    3167071.56649   2479342.85348                  20753072.3484
        50.2504         40.2504
  23586460.2664   -3488380.73049  -2706707.45946                  23586458.4104
        38.7504         25.0004
  23830390.6484    -678785.55149   -528113.76146                  23830387.6024
        39.5004         22.0004
  20918180.4144   -1978412.33249  -1563991.89748                  20918177.1454
        50.2504         39.5004
  20991535.9774    -800187.36749   -636013.39447                  20991532.7544
        51.0004         37.7504
  21778214.6254     680828.59449    531436.40247                  21778212.2664
        47.5004         33.5004
  22869252.9774   -4564074.67649  -3546606.14647                  22869248.6604
        47.0004         32.0004
  22818305.3674    2610730.17249   2028469.10847                  22818303.4534
        45.0004         30.2504
 04  7  7 14 35  0.0000000  0  8G 6G15G16G18G21G26G22G29
  20757287.1564    3189208.97349   2496592.76648                  20757285.3794
        50.5004         40.5004
  23583042.0234   -3506341.77349  -2720703.04847                  23583040.8714
        40.2504         27.5004
  23830813.3594    -676563.57849   -526382.36446                  23830810.4534
        38.7504         22.7504
  20917056.2194   -1984319.57049  -1568594.94248                  20917053.0204
        50.2504         40.2504
  20991076.0234    -802606.35249   -637898.30147                  20991072.1334
        51.0004         38.0004
  21780265.1254     691602.12549    539831.37147                  21780262.8874
        48.0004         34.2504
  22865315.5704   -4584763.42249  -3562727.23847                  22865311.8714
        47.2504         32.0004
  22822071.5784    2630520.25449   2043889.95247                  22822068.7974
        45.2504         30.0004
 04  7  7 14 35 10.0000000  0  8G 6G15G16G18G21G26G22G29
  20761509.9064    3211400.90249   2513885.17448                  20761508.1524
        51.0004         40.0004
  23579625.1174   -3524298.34849  -2734695.22347                  23579623.6484
        40.5004         27.5004
  23831247.7034    -674282.60949   -524604.99546                  23831244.5594
        40.2504         23.0004
  20915941.2814   -1990179.08649  -1573160.79348                  20915937.5704
        50.0004         40.2504
  20990619.1024    -805006.21949   -639768.33947                  20990615.4184
        51.0004         38.5004
  21782329.6024     702451.19149    548285.17547                  21782327.4454
        47.5004         33.2504
  22861385.2424   -4605418.33249  -3578821.96947                  22861380.7624
        47.5004         32.5004
  22825848.7504    2650369.74649   2059357.09447                  22825846.5044
        45.5004         30.5004
 04  7  7 14 35 20.0000000  0  8G 6G15G16G18G21G26G22G29
  20765743.3054    3233646.09049   2531219.09048                  20765741.3134
        50.7504         39.5004
  23576208.6174   -3542251.70349  -2748684.81347                  23576207.3754
        41.0004         25.7504
  23831692.5394    -671943.83649   -522782.56846                  23831689.3634
        39.5004         22.0004
  20914834.7424   -1995992.11749  -1577690.42748                  20914831.5004
        50.7504         39.5004
  20990165.9844    -807388.11349   -641624.36347                  20990162.4104
        51.0004         39.0004
  21784408.2114     713374.57049    556796.89447                  21784406.1644
        47.5004         33.0004
  22857461.1094   -4626040.52349  -3594891.20647                  22857456.5944
        47.5004         32.0004
  22829637.1484    2670277.35549   2074869.50747                  22829634.8484
        45.2504         30.5004
 04  7  7 14 35 30.0000000  0  8G 6G15G16G18G21G26G22G29
  20769986.6884    3255944.70349   2548594.63248                  20769984.2814
        50.0004         39.7504
  23572792.7034   -3560201.69549  -2762671.82247                  23572791.5124
        41.5004         27.0004
  23832149.1254    -669547.10949   -520914.95346                  23832145.0634
        40.7504         24.0004
  20913737.7114   -2001758.55549  -1582183.74748                  20913734.2504
        50.5004         39.5004
  20989716.2664    -809751.91449   -643466.28747                  20989712.3634
        50.7504         38.7504
  21786500.7034     724372.28149    565366.54547                  21786499.1644
        48.0004         33.5004
  22853542.7664   -4646629.91049  -3610934.88647                  22853538.4774
        47.7504         31.5004
  22833436.5704    2690243.28949   2090427.37347                  22833434.0514
        46.5004         29.2504
 04  7  7 14 35 40.0000000  0  8G 6G15G16G18G21G26G22G29
  20774240.3134    3278297.57449   2566012.44947                  20774238.0864
        50.5004         38.7504
  23569378.0004   -3578147.39149  -2776655.47447                  23569376.5314
        41.0004         27.2504
  23832615.8594    -667091.67649   -519001.70846                  23832612.4804
        40.5004         22.7504
  20912649.2424   -2007477.47749  -1586640.04747                  20912645.7974
        50.2504         39.0004
  20989270.2504    -812096.73449   -645293.42347                  20989266.4064
        51.0004         38.0004
  21788607.8594     735445.35549    573994.91647                  21788606.0394
        47.5004         32.7504
  22849631.2114   -4667185.56649  -3626952.27347                  22849627.3134
        47.0004         31.7504
  22837246.7974    2710268.27749   2106031.26647                  22837244.9804
        45.0004         29.5004
 04  7  7 14 35 50.0000000  0  8G 6G15G16G18G21G26G22G29
  20778503.9454    3300703.88749   2583471.90848                  20778501.6374
        50.0004         40.0004
  23565963.5554   -3596089.50049  -2790636.32447                  23565962.5394
        40.7504         27.0004
  23833093.9534    -664578.18749   -517043.13046                  23833091.1294
        38.5004         22.5004
  20911569.8444   -2013149.57849  -1591059.87948                  20911566.6484
        50.7504         39.5004
  20988827.2664    -814423.25849   -647106.30247                  20988823.3874
        51.5004         38.2504
  21790729.3984     746593.07849    582681.43747                  21790727.5664
        48.0004         34.0004
  22845725.9694   -4687708.09849  -3642943.84947                  22845721.8284
        47.5004         32.2504
  22841068.5784    2730351.49249   2121680.49447                  22841066.8134
        45.0004         29.0004
 04  7  7 14 36  0.0000000  0  8G 6G15G16G18G21G26G22G29
  20782777.7584    3323164.36349   2600973.56248                  20782775.6134
        50.5004         40.0004
  23562550.0784   -3614027.36349  -2804613.89646                  23562549.3324
        41.2504         24.7504
  23833583.9224    -662005.87549   -515038.74346                  23833580.5594
        40.2504         22.5004
  20910499.5944   -2018774.14149  -1595442.65247                  20910496.0634
        50.7504         39.0004
  20988388.0234    -816730.72349   -648904.33047                  20988384.2154
        51.5004         38.5004
  21792865.0944     757816.07849    591426.63047                  21792863.0354
        47.2504         34.0004
  22841827.0784   -4708196.81249  -3658909.08447                  22841822.9144
        47.5004         32.0004
  22844901.5474    2750493.73449   2137375.74047                  22844899.5514
        45.2504         28.5004
 04  7  7 14 36 10.0000000  0  8G 6G15G16G18G21G26G22G29
  20787062.1954    3345678.80549   2618517.28048                  20787060.0514
        51.0004         39.7504
  23559137.0944   -3631961.11749  -2818588.24247                  23559136.5004
        42.0004         27.7504
  23834084.4534    -659375.02049   -512988.74546                  23834080.4694
        40.0004         25.2504
  20909438.1954   -2024351.39149  -1599788.56247                  20909434.6094
        50.5004         38.7504
  20987952.8364    -819019.28549   -650687.62447                  20987949.0904
        51.7504         38.5004
  21795014.7974     769114.15649    600230.32747                  21795013.0004
        48.0004         34.0004
  22837934.9534   -4728651.78949  -3674848.03647                  22837930.2154
        46.7504         31.5004
  22848745.6334    2770694.80549   2153116.82447                  22848743.2194
        45.5004         29.5004
 04  7  7 14 36 20.0000000  0  8G 6G15G16G18G21G26G22G29
  20791356.5784    3368246.57449   2636102.54948                  20791354.6994
        51.2504         39.5004
  23555725.2584   -3649891.37949  -2832559.88147                  23555724.2424
        40.2504         26.2504
  23834596.3134    -656686.21549   -510893.59846                  23834592.7624
        40.5004         23.7504
  20908385.7114   -2029881.93449  -1604098.08348                  20908382.2234
        50.5004         39.5004
  20987520.6254    -821289.65249   -652456.75547                  20987517.1414
        50.7504         38.7504
  21797179.1254     780486.61349    609091.97347                  21797176.9024
        47.7504         34.2504
  22834048.7194   -4749073.67649  -3690761.19547                  22834043.9024
        47.7504         31.5004
  22852600.5004    2790953.89549   2168903.11647                  22852598.1564
        45.2504         28.5004
 04  7  7 14 36 30.0000000  0  8G 6G15G16G18G21G26G22G29
  20795661.5004    3390868.06649   2653729.67847                  20795659.2774
        50.0004         39.2504
  23552314.3914   -3667817.59849  -2846528.36247                  23552312.7544
        42.5004         27.0004
  23835118.4384    -653938.90649   -508752.83446                  23835115.2544
        40.0004         22.7504
  20907342.2734   -2035365.24249  -1608370.78847                  20907338.4964
        50.2504         39.0004
  20987092.2584    -823541.12549   -654211.14747                  20987088.4534
        50.5004         38.7504
  21799357.7194     791934.09049    618012.08447                  21799355.7194
        47.0004         34.0004
  22830168.8284   -4769461.86349  -3706648.09247                  22830164.3674
        48.5004         31.2504
  22856466.7664    2811271.58249   2184735.08547                  22856464.1914
        44.5004         27.7504
 04  7  7 14 36 40.0000000  0  8G 6G15G16G18G21G26G22G29
  20799976.3364    3413542.90249   2671398.37647                  20799974.0594
        50.0004         38.7504
  23548903.8834   -3685740.26649  -2860494.04647                  23548902.3794
        41.7504         26.2504
  23835652.5554    -651133.67249   -506566.94246                  23835649.7034
        39.0004         22.5004
  20906307.8834   -2040801.84049  -1612607.09148                  20906304.3244
        51.0004         39.5004
  20986667.0474    -825774.35249   -655951.31747                  20986663.3914
        50.2504         38.5004
  21801550.1024     803456.03949    626990.22947                  21801548.1564
        47.7504         34.0004
  22826295.6024   -4789816.85949  -3722509.10247                  22826291.0744
        48.0004         31.2504
  22860344.2504    2831647.34049   2200612.29447                  22860341.8674
        45.0004         26.0004
 04  7  7 14 36 50.0000000  0  8G 6G15G16G18G21G26G22G29
  20804301.7584    3436271.34449   2689108.84447                  20804299.5784
        50.5004         39.0004
  23545494.0394   -3703659.09049  -2874456.77047                  23545492.3554
        42.5004         26.2504
  23836197.5394    -648270.14549   -504335.62946                  23836194.5204
        41.0004         22.2504
  20905282.5474   -2046191.40249  -1616806.74847                  20905278.7504
        50.5004         39.2504
  20986245.6724    -827988.98449   -657677.01147                  20986242.0944
        51.0004         38.5004
  21803756.8204     815052.78149    636026.65547                  21803754.9734
        47.5004         33.7504
  22822428.2814   -4810138.32049  -3738344.01347                  22822424.0824
        48.0004         30.7504
  22864233.2814    2852081.40249   2216534.92547                  22864230.3244
        45.5004         27.0004
 04  7  7 14 37  0.0000000  0  8G 6G15G16G18G21G26G22G29
  20808636.8524    3459053.41849   2706861.09647                  20808634.8364
        50.0004         39.0004
  23542084.4454   -3721573.82849  -2888416.30147                  23542083.5044
        42.5004         26.5004
  23836753.2114    -645348.15249   -502058.77946                  23836749.9534
        38.7504         22.5004
  20904265.7274   -2051533.74249  -1620969.60647                  20904262.0474
        50.7504         38.7504
  20985828.2274    -830184.67649   -659387.93447                  20985824.6254
        51.0004         39.0004
  21805978.3524     826724.54349    645121.53947                  21805975.9344
        48.0004         33.7504
  22818567.3054   -4830425.91849  -3754152.52647                  22818563.6374
        48.2504         31.0004
  22868132.5004    2872573.87549   2232503.08147                  22868130.3984
        45.2504         27.7504
 04  7  7 14 37 10.0000000  0  8G 6G15G16G18G21G26G22G29
  20812982.4774    3481889.94949   2724655.79047                  20812980.3954
        50.7504         39.2504
  23538677.0634   -3739483.78949  -2902372.14747                  23538674.9734
        43.7504         27.7504
  23837321.0084    -642367.02749   -499735.82346                  23837317.6844
        40.5004         22.7504
  20903258.1094   -2056828.18449  -1625095.15048                  20903254.5434
        51.0004         39.5004
  20985414.0084    -832360.66449   -661083.52547                  20985410.4104
        51.5004         39.0004
  21808213.1564     838472.04749    654275.43347                  21808211.4064
        47.5004         33.5004
  22814713.2504   -4850678.94149  -3769934.10447                  22814709.3404
        47.7504         31.7504
  22872043.7424    2893125.53549   2248517.36147                  22872040.5904
        45.7504         28.2504
 04  7  7 14 37 20.0000000  0  8G 6G15G16G18G21G26G22G29
  20817338.2814    3504779.81649   2742492.05447                  20817335.9024
        51.0004         39.2504
  23535269.4534   -3757389.98049  -2916324.98147                  23535267.7154
        43.5004         27.0004
  23837899.5704    -639327.73049   -497367.55746                  23837896.1214
        41.5004         23.5004
  20902259.7114   -2062075.68049  -1629184.09248                  20902256.2234
        50.7504         39.5004
  20985003.4224    -834517.74249   -662764.34947                  20984999.8594
        51.0004         39.0004
  21810463.2194     850294.20749    663487.50447                  21810461.5124
        47.7504         33.2504
  22810866.4384   -4870898.37949  -3785689.50047                  22810861.9304
        48.2504         31.7504
  22875965.3134    2913735.23849   2264576.89247                  22875962.0824
        45.2504         28.5004
 04  7  7 14 37 30.0000000  0  8G 6G15G16G18G21G26G22G29
  20821704.3984    3527723.22749   2760370.02248                  20821702.2734
        51.0004         39.7504
  23531862.7194   -3775292.43449  -2930274.98047                  23531860.9884
        43.5004         27.5004
  23838489.5394    -636230.35949   -494954.04246                  23838485.1644
        40.5004         25.5004
  20901269.9924   -2067276.16849  -1633236.44348                  20901266.7584
        50.7504         40.0004
  20984596.5004    -836656.16849   -664430.68547                  20984592.8674
        51.0004         39.2504
  21812726.9924     862191.02349    672757.74647                  21812724.9024
        48.0004         33.5004
  22807024.8134   -4891084.21949  -3801418.75047                  22807020.8794
        47.0004         32.5004
  22879898.6564    2934402.99649   2280681.60347                  22879895.6414
        45.5004         28.7504
 04  7  7 14 37 40.0000000  0  8G 6G15G16G18G21G26G22G29
  20826080.4694    3550719.58649   2778289.26547                  20826078.1334
        50.7504         39.0004
  23528456.5084   -3793191.40649  -2944222.23047                  23528454.6254
        44.0004         26.5004
  23839089.2734    -633075.15649   -492495.43946                  23839085.5084
        41.5004         23.7504
  20900289.2114   -2072430.09849  -1637252.48348                  20900285.9024
        50.2504         39.5004
  20984193.3754    -838776.33249   -666082.74047                  20984189.1454
        51.7504         39.2504
  21815004.7894     874162.17249    682085.91647                  21815002.9344
        48.0004         33.5004
  22803189.7274   -4911236.67649  -3817121.95847                  22803185.7034
        48.2504         31.5004
  22883842.1564    2955128.39849   2296831.27647                  22883839.4144
        45.7504         29.0004
 04  7  7 14 37 50.0000000  0  8G 6G15G16G18G21G26G22G29
  20830466.4614    3573768.84849   2796249.72447                  20830464.5514
        50.5004         39.0004
  23525051.1484   -3811086.88749  -2958166.74647                  23525049.3094
        43.5004         27.0004
  23839700.7894    -629862.13749   -489991.79746                  23839697.1884
        39.5004         23.0004
  20899317.4144   -2077537.46949  -1641232.25748                  20899313.9264
        50.7504         39.5004
  20983793.2664    -840878.11349   -667720.49947                  20983789.4104
        51.0004         39.0004
  21817297.3204     886207.66849    691472.02347                  21817295.0204
        47.7504         32.5004
  22799361.6094   -4931355.74249  -3832799.14347                  22799357.3204
        48.0004         31.0004
  22887797.2814    2975911.41449   2313025.84747                  22887794.2974
        45.7504         28.5004
 04  7  7 14 38  0.0000000  0  8G 6G15G16G18G21G26G22G29
  20834862.8054    3596871.61749   2814251.86148                  20834860.8094
        50.5004         39.7504
  23521646.6334   -3828978.43749  -2972108.19647                  23521644.9144
        43.5004         27.5004
  23840323.2894    -626590.85549   -487442.78346                  23840319.7584
        39.7504         23.7504
  20898354.2734   -2082597.84449  -1645175.41248                  20898350.8634
        51.0004         39.5004
  20983396.7664    -842960.81649   -669343.40347                  20983393.1644
        51.2504         39.2504
  21819603.9304     898327.96549    700916.41347                  21819601.4064
        48.5004         34.0004
  22795539.2664   -4951440.82849  -3848449.87247                  22795535.2194
        47.7504         32.0004
  22891762.9844    2996752.46149   2329265.61447                  22891760.4694
        46.5004         28.2504
 04  7  7 14 38 10.0000000  0  8G 6G15G16G18G21G26G22G29
  20839269.5864    3620028.25449   2832296.01847                  20839267.2814
        51.2504         39.0004
  23518242.8524   -3846865.50849  -2986046.16847                  23518240.9144
        44.0004         26.5004
  23840957.0164    -623260.93049   -484848.03446                  23840953.7034
        41.2504         23.2504
  20897400.3134   -2087610.68449  -1649081.50047                  20897397.1094
        50.7504         38.5004
  20983004.1954    -845024.12149   -670951.15347                  20983000.3594
        51.2504         38.0004
  21821924.4924     910523.46149    710419.40547                  21821922.3164
        48.2504         32.5004
  22791724.0704   -4971491.53549  -3864073.77947                  22791719.7074
        48.5004         31.0004
  22895740.9694    3017652.03149   2345550.99347                  22895737.9184
        46.2504         27.7504
 04  7  7 14 38 20.0000000  0  8G 6G15G16G18G21G26G22G29
  20843686.2584    3643238.29749   2850381.73948                  20843683.8524
        50.7504         40.0004
  23514839.5554   -3864748.61349  -2999981.09247                  23514838.2274
        43.5004         27.0004
  23841601.9304    -619872.72749   -482207.87046                  23841598.2624
        40.0004         22.7504
  20896455.5164   -2092576.46549  -1652950.95147                  20896452.0204
        51.0004         39.2504
  20982615.1174    -847068.36349   -672544.08547                  20982611.3754
        50.7504         39.0004
  21824259.1564     922793.79349    719980.67947                  21824257.5394
        47.7504         33.5004
  22787914.4304   -4991508.28549  -3879671.26147                  22787910.7274
        48.0004         31.7504
  22899728.1804    3038609.50849   2361881.48647                  22899725.8674
        46.0004         29.2504
 04  7  7 14 38 30.0000000  0  8G 6G15G16G18G21G26G22G29
  20848113.2034    3666501.92649   2868509.24548                  20848110.8204
        51.0004         39.5004
  23511437.7734   -3882627.42249  -3013912.60547                  23511435.3554
        43.0004         26.0004
  23842257.3054    -616426.00449   -479522.13346                  23842254.0474
        41.0004         24.2504
  20895519.4304   -2097494.84449  -1656783.44347                  20895516.0434
        50.2504         39.2504
  20982229.6334    -849093.29349   -674121.95147                  20982225.5394
        51.0004         38.0004
  21826608.6254     935139.14149    729600.44547                  21826606.6604
        47.7504         33.5004
  22784112.1884   -5011490.78149  -3895242.01947                  22784108.3754
        48.5004         31.5004
  22903727.4614    3059625.19149   2378257.33647                  22903725.0984
        46.0004         28.7504
 04  7  7 14 38 40.0000000  0  8G 6G15G16G18G21G26G22G29
  20852550.2974    3689819.65649   2886678.88948                  20852548.1604
        50.5004         40.7504
  23508036.4304   -3900501.47349  -3027840.45147                  23508034.3594
        43.7504         26.5004
  23842924.3984    -612920.26249   -476790.39846                  23842921.3404
        39.7504         23.0004
  20894593.0314   -2102365.38349  -1660578.68548                  20894588.9534
        50.7504         40.0004
  20981848.3134    -851098.25049   -675684.26848                  20981844.5084
        51.5004         39.5004
  21828972.0554     947559.97349    739279.00647                  21828970.4184
        48.2504         34.0004
  22780316.3674   -5031438.43449  -3910785.64947                  22780312.7344
        48.5004         32.5004
  22907737.8054    3080699.48849   2394678.86247                  22907735.3244
        45.5004         29.7504
 04  7  7 14 38 50.0000000  0  8G 6G15G16G18G21G26G22G29
  20856997.8754    3713191.46149   2904890.68548                  20856995.3914
        50.5004         39.5004
  23504635.6884   -3918370.78149  -3041764.57547                  23504633.9804
        43.7504         26.5004
  23843602.8674    -609355.59049   -474012.72346                  23843600.1954
        40.0004         25.0004
  20893674.9924   -2107188.07849  -1664336.62148                  20893671.3014
        50.5004         39.5004
  20981470.7194    -853083.59449   -677231.29547                  20981466.8364
        50.7504         38.5004
  21831350.1644     960056.35949    749016.44147                  21831348.0514
        47.5004         34.2504
  22776527.0164   -5051351.22349  -3926302.10447                  22776523.2854
        47.5004         33.0004
  22911759.3754    3101832.36749   2411146.02447                  22911757.2384
        45.5004         28.2504
 04  7  7 14 39  0.0000000  0  8G 6G15G16G18G21G26G22G29
  20861455.1804    3736615.73049   2923143.36747                  20861452.8054
        50.7504         39.0004
  23501236.0554   -3936236.83649  -3055686.19046                  23501234.2194
        43.2504         25.5004
  23844292.5394    -605733.43449   -471190.28546                  23844289.1804
        41.0004         24.7504
  20892765.9924   -2111964.54749  -1668058.54848                  20892762.2464
        50.2504         39.5004
  20981096.0474    -855050.79349   -678764.17047                  20981092.3364
        50.5004         38.2504
  21833742.4614     972626.66449    758811.49847                  21833740.3524
        47.5004         34.2504
  22772744.4384   -5071230.68449  -3941792.60147                  22772740.4024
        47.5004         32.0004
  22915791.3914    3123022.20749   2427657.60247                  22915789.2854
        45.5004         28.0004
 04  7  7 14 39 10.0000000  0  8G 6G15G16G18G21G26G22G29
  20865923.2584    3760093.85949   2941438.01147                  20865920.7194
        51.2504         39.0004
  23497836.9844   -3954098.25849  -3069604.16447                  23497835.4614
        42.5004         26.7504
  23844992.6484    -602052.57849   -468322.07246                  23844989.5864
        40.0004         24.7504
  20891866.0474   -2116693.35549  -1671743.32248                  20891862.5204
        50.2504         39.7504
  20980725.7504    -856998.23849   -680281.67047                  20980722.0124
        51.0004         38.5004
  21836148.4844     985272.29349    768665.23047                  21836146.7074
        47.5004         33.7504
  22768968.0314   -5091075.35249  -3957255.96547                  22768963.8484
        48.2504         32.0004
  22919834.3984    3144270.41049   2444214.63247                  22919832.6454
        45.0004         28.5004
 04  7  7 14 39 20.0010000  0  8G 6G15G16G18G21G26G22G29
  20870401.4664    3783627.93049   2959776.23847                  20870399.2354
        51.2504         38.5004
  23494438.1064   -3971957.10249  -3083520.16546                  23494436.9624
        42.5004         24.2504
  23845704.6774    -598312.75849   -465407.96046                  23845701.4384
        41.7504         23.5004
  20890974.9034   -2121375.26649  -1675391.56847                  20890971.5364
        50.2504         39.2504
  20980358.6224    -858926.44149   -681784.16947                  20980354.7394
        50.7504         38.0004
  21838569.1304     997994.27349    778578.45847                  21838567.5014
        47.5004         33.0004
  22765198.0214   -5110887.41449  -3972693.95047                  22765194.0564
        48.2504         31.5004
  22923889.4584    3165578.75049   2460818.50947                  22923887.7824
        44.5004         27.2504
 04  7  7 14 39 30.0010000  0  8G 6G15G16G18G21G26G22G29
  20874889.3494    3807212.56349   2978153.87048                  20874887.2004
        50.7504         39.5004
  23491041.3884   -3989810.30949  -3097431.75647                  23491039.6144
        43.0004         27.0004
  23846426.9894    -594515.43449   -462449.02647                  23846424.4154
        39.7504         25.7504
  20890093.1304   -2126009.87949  -1679002.95448                  20890089.8644
        51.0004         40.0004
  20979995.2394    -860835.57449   -683271.79747                  20979991.2354
        51.7504         38.5004
  21841004.0914    1010789.48049    788548.75447                  21841002.5674
        48.0004         33.0004
  22761434.2474   -5130663.49649  -3988103.87947                  22761430.8294
        48.0004         32.5004
  22927954.4354    3186942.35249   2477465.46547                  22927953.0284
        44.5004         28.2504
 04  7  7 14 39 40.0010000  0  8G 6G15G16G18G21G26G22G29
  20879387.8964    3830851.10549   2996573.51148                  20879385.6854
        51.0004         39.5004
  23487644.8334   -4007658.66049  -3111339.55446                  23487643.4034
        42.5004         25.2504
  23847160.7784    -590659.16049   -459444.13047                  23847157.7944
        39.2504         26.0004
  20889220.1774   -2130596.59849  -1682577.01848                  20889217.1424
        50.7504         39.7504
  20979636.0214    -862724.75449   -684743.88847                  20979632.1104
        51.0004         38.0004
  21843453.1924    1023660.07449    798577.79347                  21843451.6884
        47.2504         33.2504
  22757677.7634   -5150404.51649  -4003486.48447                  22757674.0054
        48.2504         32.5004
  22932031.1774    3208364.32849   2494157.91147                  22932029.2904
        44.2504         27.7504
 04  7  7 14 39 50.0010000  0  8G 6G15G16G18G21G26G22G29
  20883896.3254    3854543.33249   3015034.98948                  20883893.7744
        50.0004         40.0004
  23484249.0524   -4025502.40649  -3125243.77646                  23484247.4744
        42.7504         25.2504
  23847905.5754    -586744.18749   -456393.50846                  23847903.1264
        40.7504         22.7504
  20888356.8024   -2135135.73849  -1686114.00948                  20888353.1384
        50.5004         39.7504
  20979280.1464    -864594.24249   -686200.64447                  20979276.5174
        51.0004         38.5004
  21845917.2084    1036605.93449    808665.46747                  21845914.9354
        47.2504         34.0004
  22753927.8884   -5170110.70749  -4018841.96747                  22753923.8604
        48.0004         32.2504
  22936118.9894    3229844.36349   2510895.57247                  22936116.2244
        45.0004         29.0004
 04  7  7 14 40  0.0010000  0  8G 6G15G16G18G21G26G22G29
  20888414.7474    3878289.29349   3033538.32448                  20888412.3994
        50.0004         39.5004
  23480854.1304   -4043341.35949  -3139144.25947                  23480852.6614
        43.0004         26.5004
  23848662.0444    -582770.44249   -453297.05246                  23848658.8064
        40.2504         23.7504
  20887501.9424   -2139627.09849  -1689613.77247                  20887498.3254
        49.7504         39.2504
  20978928.2714    -866443.65249   -687641.74247                  20978924.4034
        51.0004         38.5004
  21848395.1304    1049627.19949    818811.90647                  21848392.9814
        47.0004         34.2504
  22750184.6384   -5189781.82049  -4034170.08547                  22750180.8964
        49.2504         32.0004
  22940217.1774    3251382.60949   2527678.61147                  22940215.1924
        45.5004         27.2504
 04  7  7 14 40 10.0010000  0  8G 6G15G16G18G21G26G22G29
  20892943.7314    3902088.43849   3052083.12048                  20892941.0524
        50.0004         39.5004
  23477460.5994   -4061176.00849  -3153041.34947                  23477458.8964
        42.5004         26.5004
  23849429.4744    -578738.34849   -450155.23046                  23849426.1424
        41.0004         25.0004
  20886656.1144   -2144071.24649  -1693076.73747                  20886652.7284
        51.0004         39.2504
  20978580.3174    -868273.50849   -689067.60147                  20978576.2864
        51.0004         37.5004
  21850887.1924    1062723.25449    829016.63547                  21850884.7164
        46.7504         33.2504
  22746447.5524   -5209418.37149  -4049471.31047                  22746444.0054
        48.0004         32.7504
  22944326.5754    3272978.41049   2544506.52447                  22944324.5754
        43.7504         27.7504
 04  7  7 14 40 20.0010000  0  8G 6G15G16G18G21G26G22G29
  20897483.0834    3925941.10249   3070669.60847                  20897480.3564
        51.0004         39.2504
  23474067.0754   -4079006.18749  -3166935.01547                  23474065.8644
        43.2504         26.0004
  23850207.9114    -574647.78949   -446967.76646                  23850204.4784
        42.0004         23.7504
  20885819.5284   -2148467.96949  -1696502.73647                  20885816.1304
        50.5004         39.2504
  20978235.4354    -870083.78949   -690478.19847                  20978231.3884
        51.2504         37.5004
  21853393.4424    1075894.32849    839279.80447                  21853390.9424
        47.0004         33.0004
  22742717.7314   -5229020.05149  -4064745.32947                  22742713.7824
        48.0004         33.5004
  22948447.7314    3294632.01649   2561379.43047                  22948445.7634
        45.0004         27.5004
 04  7  7 14 40 30.0010000  0  8G 6G15G16G18G21G26G22G29
  20902031.7864    3949845.97749   3089296.77748                  20902029.3994
        49.7504         39.5004
  23470675.0834   -4096833.04349  -3180826.08446                  23470673.2004
        42.0004         25.0004
  23850997.0214    -570499.89549   -443735.67446                  23850993.6104
        39.7504         22.5004
  20884991.7004   -2152818.45349  -1699892.72748                  20884988.1344
        50.5004         39.5004
  20977894.8884    -871875.67649   -691874.47447                  20977890.5094
        51.2504         38.5004
  21855914.1694    1089139.19949    849600.48747                  21855911.7244
        47.0004         33.5004
  22738994.2084   -5248587.97349  -4079993.06747                  22738990.8644
        48.0004         32.2504
  22952578.8724    3316342.14149   2578296.42546                  22952576.6614
        44.2504         25.5004
 04  7  7 14 40 40.0010000  0  8G 6G15G16G18G21G26G22G29
  20906591.0754    3973804.07849   3107965.42848                  20906588.8534
        50.2504         39.5004
  23467283.8104   -4114655.45349  -3194713.63947                  23467281.9934
        42.7504         26.2504
  23851797.3804    -566293.64549   -440458.05546                  23851794.5214
        41.0004         22.7504
  20884173.0364   -2157121.68049  -1703245.89247                  20884169.3534
        51.0004         38.7504
  20977557.2554    -873648.00049   -693255.51647                  20977553.7714
        51.2504         38.2504
  21858448.4814    1102458.99649    859979.54647                  21858446.1344
        47.5004         34.0004
  22735276.9894   -5268121.07049  -4095213.66547                  22735273.1574
        48.0004         31.5004
  22956721.6774    3338109.90649   2595258.30547                  22956718.8334
        44.5004         27.5004
 04  7  7 14 40 50.0010000  0  8G 6G15G16G18G21G26G22G29
  20911160.2244    3997816.07449   3126676.06047                  20911158.0834
        50.5004         38.7504
  23463893.1694   -4132472.77049  -3208597.28946                  23463891.4664
        41.7504         25.0004
  23852609.5524    -562028.43049   -437134.56946                  23852605.9354
        40.5004         22.5004
  20883363.1304   -2161377.02749  -1706561.75448                  20883359.7204
        50.5004         39.7504
  20977224.0284    -875399.97349   -694620.68447                  20977220.2784
        51.5004         39.0004
  21860997.8174    1115854.30949    870417.45047                  21860995.6304
        47.5004         33.5004
  22731566.9664   -5287618.68749  -4110406.60947                  22731563.0834
        48.5004         32.7504
  22960874.7084    3359935.82049   2612265.49947                  22960872.4234
        45.2504         27.7504
 04  7  7 14 41  0.0010000  0  8G 6G15G16G18G21G26G22G29
  20915739.4814    4021881.40249   3145428.27147                  20915737.7314
        50.7504         39.2504
  23460503.3024   -4150285.57049  -3222477.39147                  23460501.7594
        42.7504         25.7504
  23853432.0754    -557704.75449   -433765.46546                  23853429.0634
        40.0004         24.7504
  20882562.1854   -2165584.96149  -1709840.65248                  20882558.8494
        50.2504         39.5004
  20976894.1854    -877132.16049   -695970.44547                  20976890.3024
        51.0004         39.2504
  21863561.0674    1129324.63749    880913.80847                  21863558.8764
        46.2504         33.5004
  22727863.0444   -5307081.34049  -4125572.29547                  22727859.3534
        48.0004         33.0004
  22965039.2784    3381819.37549   2629317.64547                  22965036.1224
        45.2504         27.5004
 04  7  7 14 41 10.0010000  0  8G 6G15G16G18G21G26G22G29
  20920329.0994    4045999.48449   3164221.56148                  20920327.1184
        49.5004         40.2504
  23457114.8804   -4168094.21549  -3236354.26947                  23457113.1614
        41.5004         25.7504
  23854265.4584    -553323.07849   -430351.17146                  23854262.5674
        40.0004         24.0004
  20881770.6224   -2169745.88749  -1713082.93448                  20881766.9894
        50.7504         40.0004
  20976568.4354    -878844.92649   -697305.07547                  20976564.1924
        51.5004         39.0004
  21866138.7164    1142869.45349    891468.21347                  21866136.3534
        47.0004         34.5004
  22724166.3414   -5326509.38349  -4140711.05047                  22724162.5604
        48.5004         33.0004
  22969214.1694    3403759.96949   2646414.20147                  22969211.1144
        45.0004         28.5004
 04  7  7 14 41 20.0010000  0  8G 6G15G16G18G21G26G22G29
  20924928.7244    4070170.60949   3183056.21948                  20924926.6384
        50.0004         40.0004
  23453726.2634   -4185898.52749  -3250227.74446                  23453724.7124
        43.5004         24.7504
  23855110.4584    -548883.24249   -426891.58246                  23855107.2394
        39.5004         23.0004
  20880987.9584   -2173859.66049  -1716288.47448                  20880984.0994
        51.0004         40.0004
  20976246.0994    -880538.13349   -698624.45447                  20976242.3174
        51.2504         39.0004
  21868730.0054    1156488.99249    902080.83947                  21868727.8884
        47.2504         33.0004
  22720475.7474   -5345902.65649  -4155822.68747                  22720471.7044
        48.0004         32.5004
  22973399.8884    3425757.79749   2663555.34447                  22973397.1264
        45.5004         29.0004
 04  7  7 14 41 30.0010000  0  8G 6G15G16G18G21G26G22G29
  20929538.3964    4094394.38349   3201931.88448                  20929536.4194
        50.0004         39.5004
  23450339.5674   -4203698.80149  -3264098.08746                  23450337.6304
        43.0004         24.2504
  23855966.8174    -544385.54349   -423386.89846                  23855963.0054
        38.7504         22.7504
  20880213.6534   -2177926.57449  -1719457.48647                  20880210.4114
        50.5004         39.2504
  20975927.6304    -882211.90649   -699928.69347                  20975924.1384
        51.0004         38.0004
  21871335.9194    1170182.91849    912751.43947                  21871334.0364
        47.5004         33.5004
  22716791.9424   -5365261.36749  -4170907.40247                  22716787.6734
        47.0004         31.5004
  22977596.8884    3447812.56349   2680740.87847                  22977595.0014
        44.5004         28.0004
 04  7  7 14 41 40.0010000  0  8G 6G15G16G18G21G26G22G29
  20934158.0364    4118671.46549   3220849.07248                  20934156.0014
        49.5004         39.5004
  23446953.4584   -4221494.36349  -3277964.76246                  23446951.2864
        42.7504         22.7504
  23856833.0754    -539829.31249   -419836.58146                  23856830.5174
        39.2504         22.7504
  20879449.0214   -2181945.97749  -1722589.48748                  20879445.4074
        50.5004         39.5004
  20975612.8884    -883865.71549   -701217.37247                  20975609.2084
        51.2504         38.5004
  21873955.9034    1183951.83649    923480.44847                  21873954.0874
        46.7504         33.7504
  22713114.8024   -5384584.84449  -4185964.64447                  22713110.6734
        48.0004         32.2504
  22981805.3024    3469924.84449   2697971.21947                  22981802.8964
        45.0004         28.5004
 04  7  7 14 41 50.0010000  0  8G 6G15G16G18G21G26G22G29
  20938788.0364    4143001.56349   3239807.61947                  20938785.9114
        51.0004         38.7504
  23443566.8104   -4239285.47349  -3291827.91546                  23443565.5754
        42.0004         24.2504
  23857711.2314    -535214.81249   -416240.88246                  23857708.4464
        40.7504         22.2504
  20878693.3254   -2185918.11349  -1725684.64547                  20878689.9814
        50.2504         38.7504
  20975301.9664    -885499.74249   -702490.63347                  20975298.1574
        51.0004         37.5004
  21876590.4424    1197795.48849    934267.73047                  21876588.3294
        47.7504         33.2504
  22709444.4744   -5403873.22749  -4200994.54347                  22709439.7864
        47.7504         32.2504
  22986023.6384    3492094.37949   2715246.17947                  22986021.3644
        45.2504         28.5004
 04  7  7 14 42  0.0010000  0  8G 6G15G16G18G21G26G22G29
  20943427.7314    4167384.19949   3258807.03848                  20943425.7944
        50.2504         40.0004
  23440182.8804   -4257072.58649  -3305688.09046                  23440180.7124
        43.2504         24.5004
  23858600.5754    -530542.57049   -412600.21446                  23858597.2864
        40.0004         25.0004
  20877946.3644   -2189843.46149  -1728743.37448                  20877942.5674
        50.5004         40.0004
  20974994.8024    -887114.53949   -703748.93247                  20974990.7474
        51.0004         38.2504
  21879239.2714    1211713.50049    945112.89947                  21879237.3764
        47.2504         34.5004
  22705780.3494   -5423127.00449  -4215997.48847                  22705776.2084
        48.5004         32.5004
  22990252.9504    3514320.55149   2732565.27747                  22990251.0444
        45.0004         29.0004
 04  7  7 14 42 10.0010000  0  8G 6G15G16G18G21G26G22G29
  20948078.3964    4191819.96149   3277847.91047                  20948075.8604
        49.5004         39.2504
  23436798.9974   -4274854.97749  -3319544.45746                  23436796.6104
        43.0004         23.0004
  23859501.0994    -525811.94949   -408914.00146                  23859497.5404
        39.2504         24.0004
  20877208.0834   -2193721.42249  -1731765.15148                  20877204.6814
        50.2504         39.7504
  20974691.3414    -888709.41449   -704991.68647                  20974687.2164
        51.0004         38.0004
  21881901.7394    1225706.38749    956016.45947                  21881899.9234
        46.2504         34.2504
  22702123.2784   -5442345.51649  -4230972.96347                  22702118.9314
        48.0004         32.2504
  22994493.2004    3536604.05949   2749929.01547                  22994491.5874
        44.5004         27.7504
 04  7  7 14 42 20.0010000  0  8G 6G15G16G18G21G26G22G29
  20952738.0284    4216308.63349   3296929.97148                  20952736.2434
        49.2504         39.5004
  23433415.8104   -4292632.86349  -3333397.38446                  23433413.9784
        43.7504         24.7504
  23860412.0284    -521023.08249   -405182.43546                  23860409.2164
        38.5004         25.2504
  20876479.3724   -2197552.15649  -1734750.14248                  20876475.5634
        50.0004         40.7504
  20974391.4194    -890284.37149   -706218.94047                  20974387.5174
        51.5004         38.5004
  21884578.6694    1239773.96549    966978.19647                  21884576.7044
        45.7504         35.0004
  22698472.6924   -5461528.85949  -4245921.03147                  22698468.3414
        47.7504         33.0004
  22998744.5364    3558944.59849   2767337.26147                  22998742.6464
        44.5004         28.7504
 04  7  7 14 42 30.0010000  0  8G 6G15G16G18G21G26G22G29
  20957407.8174    4240850.46949   3316053.46748                  20957406.3334
        49.0004         39.5004
  23430033.8564   -4310405.86749  -3347246.47446                  23430031.5324
        42.7504         23.7504
  23861334.7714    -516175.71149   -401405.22346                  23861331.8494
        40.5004         25.2504
  20875759.4274   -2201335.36749  -1737698.09348                  20875756.2044
        50.2504         39.7504
  20974095.4894    -891839.06649   -707430.38547                  20974091.5674
        51.0004         38.5004
  21887269.7314    1253916.58249    977998.41047                  21887267.7204
        45.2504         34.2504
  22694829.1614   -5480676.68449  -4260841.40447                  22694825.0284
        47.7504         33.5004
  23003006.7714    3581342.45749   2784790.08947                  23003004.6884
        44.7504         28.5004
 04  7  7 14 42 40.0010000  0  8G 6G15G16G18G21G26G22G29
  20962088.1064    4265444.66049   3335217.77947                  20962086.3964
        49.5004         39.2504
  23426652.0604   -4328174.94149  -3361092.48646                  23426650.2314
        43.0004         24.5004
  23862268.2474    -511270.72749   -397583.20346                  23862265.3804
        40.2504         24.5004
  20875048.5524   -2205071.85949  -1740609.64047                  20875044.9704
        51.0004         39.2504
  20973803.6384    -893374.28949   -708626.66947                  20973799.6464
        51.5004         37.7504
  21889975.4354    1268133.32049    989076.39347                  21889973.3924
        46.5004         33.5004
  22691192.0214   -5499789.84849  -4275734.77347                  22691187.5054
        48.7504         31.7504
  23007280.0604    3603796.64849   2802286.86947                  23007277.7944
        44.2504         27.5004
 04  7  7 14 42 50.0010000  0  8G 6G15G16G18G21G26G22G29
  20966778.1694    4290091.70349   3354423.26047                  20966776.2284
        48.0004         39.2504
  23423271.6384   -4345939.39549  -3374934.91447                  23423269.8174
        43.7504         25.7504
  23863212.0994    -506307.58649   -393715.82746                  23863209.9114
        37.5004         25.5004
  20874346.3644   -2208761.05949  -1743484.33648                  20874342.5604
        50.7504         39.5004
  20973515.4814    -894889.48849   -709807.34447                  20973511.3024
        51.2504         38.0004
  21892695.2314    1282424.72349   1000212.54747                  21892692.7474
        44.7504         33.2504
  22687561.6224   -5518867.64549  -4290600.58347                  22687556.8724
        48.0004         32.0004
  23011563.8254    3626307.82449   2819828.04047                  23011561.7784
        44.7504         28.7504
 04  7  7 14 43  0.0010000  0  8G 6G15G16G18G21G26G22G29
  20971478.6144    4314791.55149   3373669.90247                  20971476.7164
        49.2504         39.0004
  23419892.4744   -4363699.21149  -3388773.74246                  23419890.4234
        43.2504         24.5004
  23864167.5914    -501286.18449   -389803.05646                  23864165.3374
        40.0004         24.2504
  20873653.0054   -2212402.95749  -1746322.18147                  20873649.6104
        50.5004         39.0004
  20973230.6304    -896384.67649   -710972.43047                  20973226.7354
        51.5004         38.0004
  21895428.6304    1296790.87949   1011406.94847                  21895426.7044
        46.0004         33.2504
  22683937.6384   -5537910.05549  -4305438.82947                  22683933.5484
        47.7504         31.0004
  23015857.7084    3648875.93849   2837413.56847                  23015856.7124
        44.2504         29.7504
 04  7  7 14 43 10.0010000  0  8G 6G15G16G18G21G26G22G29
  20976188.7944    4339543.77749   3392957.33048                  20976186.6964
        48.7504         39.5004
  23416513.5994   -4381454.91049  -3402609.36446                  23416511.5324
        42.7504         25.0004
  23865134.7474    -496207.12149   -385845.35046                  23865132.1424
        39.0004         25.0004
  20872968.8724   -2215998.10949  -1749123.59048                  20872965.4464
        50.0004         39.5004
  20972949.9504    -897860.32449   -712122.28447                  20972945.8684
        51.5004         38.7504
  21898176.9034    1311231.18849   1022659.13147                  21898174.3454
        46.0004         33.2504
  22680320.9114   -5556917.59049  -4320249.88047                  22680316.3684
        48.7504         32.0004
  23020162.9974    3671500.45749   2855043.04547                  23020161.7284
        43.7504         28.2504
 04  7  7 14 43 20.0010000  0  8G 6G15G16G18G21G26G22G29
  20980909.1464    4364349.55149   3412286.51847                  20980907.1964
        49.5004         39.0004
  23413135.8494   -4399205.16849  -3416440.74246                  23413134.1264
        44.0004         24.0004
  23866112.0444    -491069.14549   -381841.75347                  23866109.8134
        39.5004         26.0004
  20872294.2474   -2219545.16049  -1751887.53047                  20872290.4894
        50.0004         39.0004
  20972672.7784    -899315.03949   -713255.82847                  20972669.1064
        51.5004         38.2504
  21900939.0674    1325747.01649   1033970.16647                  21900936.7784
        47.0004         33.5004
  22676710.2784   -5575888.84849  -4335032.68147                  22676706.6494
        47.7504         32.5004
  23024479.6774    3694182.65249   2872717.46547                  23024477.8024
        43.7504         29.5004
 04  7  7 14 43 30.0010000  0  8G 6G15G16G18G21G26G22G29
  20985639.3884    4389207.87549   3431656.61348                  20985637.6304
        50.0004         40.0004
  23409758.6224   -4416951.04349  -3430268.66047                  23409757.6264
        42.5004         26.0004
  23867101.1924    -485873.21149   -377792.98046                  23867098.4624
        39.7504         25.2504
  20871628.1614   -2223045.12949  -1754614.77548                  20871624.4154
        50.5004         40.0004
  20972399.8334    -900749.85249   -714373.88147                  20972395.9814
        51.5004         38.7504
  21903715.3724    1340337.21549   1045339.14447                  21903713.2554
        46.5004         34.5004
  22673107.4584   -5594824.85249  -4349788.00947                  22673103.2394
        48.5004         33.2504
  23028806.7784    3716921.31649   2890435.88947                  23028804.8644
        45.2504         30.0004
 04  7  7 14 43 40.0010000  0  8G 6G15G16G18G21G26G22G29
  20990380.0364    4414118.70749   3451067.65348                  20990377.5714
        50.2504         40.0004
  23406383.1304   -4434692.41449  -3444093.11046                  23406381.4034
        43.5004         25.0004
  23868100.7554    -480619.32849   -373699.07046                  23868098.3064
        39.7504         24.5004
  20870970.8104   -2226498.02749  -1757305.33948                  20870967.3764
        50.0004         39.7504
  20972131.0834    -902164.68749   -715476.35347                  20972127.0954
        51.7504         38.2504
  21906506.0214    1355001.89849   1056766.16947                  21906503.8994
        47.5004         34.5004
  22669510.6924   -5613725.57049  -4364515.83647                  22669506.3104
        48.2504         32.5004
  23033144.9354    3739716.53149   2908198.38847                  23033142.5994
        44.5004         29.2504
 04  7  7 14 43 50.0010000  0  8G 6G15G16G18G21G26G22G29
  20995130.1614    4439080.99649   3470518.79048                  20995128.2634
        49.7504         39.7504
  23403007.6224   -4452430.37149  -3457914.89247                  23403005.8254
        43.7504         26.2504
  23869111.8494    -475308.62149   -369560.82946                  23869108.5874
        40.2504         23.2504
  20870322.7554   -2229904.91849  -1759960.05848                  20870319.0284
        50.2504         39.5004
  20971865.5054    -903560.59849   -716564.07447                  20971861.1534
        51.7504         38.2504
  21909310.4504    1369739.85949   1068250.29947                  21909308.9934
        46.7504         34.2504
  22665920.8024   -5632592.01249  -4379216.96147                  22665916.0754
        48.2504         32.0004
  23037492.7714    3762567.11749   2926004.02147                  23037491.0174
        45.0004         28.5004
 04  7  7 14 44  0.0010000  0  8G 6G15G16G18G21G26G22G29
  20999890.2634    4464096.05149   3490011.03247                  20999888.4314
        49.7504         39.2504
  23399633.0284   -4470163.44949  -3471732.89346                  23399630.7744
        43.0004         25.0004
  23870132.4974    -469939.73849   -365377.32446                  23870130.2674
        38.5004         24.7504
  20869682.9194   -2233264.44149  -1762577.86348                  20869679.8064
        50.2504         39.5004
  20971603.4894    -904936.17649   -717635.94947                  20971598.9624
        51.0004         37.7504
  21912129.3564    1384552.47349   1079792.59747                  21912127.3844
        47.0004         34.7504
  22662336.9974   -5651422.75449  -4393890.26647                  22662332.3964
        48.5004         32.5004
  23041852.0914    3785474.44949   2943853.91247                  23041850.5214
        45.0004         28.5004
 04  7  7 14 44 10.0010000  0  8G 6G15G16G18G21G26G22G29
  21004660.5284    4489163.69549   3509544.25147                  21004658.2744
        49.7504         39.0004
  23396258.7864   -4487891.78149  -3485547.14746                  23396257.5754
        43.0004         25.5004
  23871165.7314    -464512.67649   -361148.45746                  23871163.2744
        40.5004         24.5004
  20869053.1534   -2236576.64849  -1765158.80547                  20869049.4814
        50.0004         39.0004
  20971345.7394    -906291.38749   -718691.96047                  20971341.2354
        52.0004         38.2504
  21914962.0914    1399439.78149   1091393.08847                  21914960.1614
        47.2504         34.0004
  22658760.9664   -5670217.86749  -4408535.81247                  22658756.0714
        48.7504         32.0004
  23046221.7634    3808438.37949   2961747.87847                  23046220.0634
        44.5004         28.0004
 04  7  7 14 44 20.0010000  0  8G 6G15G16G18G21G26G22G29
  21009440.8024    4514284.16049   3529118.63248                  21009438.7284
        49.7504         39.5004
  23392886.3964   -4505615.20749  -3499357.59747                  23392884.6694
        43.5004         26.0004
  23872209.6924    -459027.35249   -356874.20446                  23872206.8294
        38.2504         23.2504
  20868431.9274   -2239841.43449  -1767702.78948                  20868428.2084
        50.0004         39.5004
  20971091.6304    -907626.14149   -719732.03647                  20971087.4424
        51.7504         38.5004
  21917809.3494    1414401.78549   1103051.78647                  21917807.5404
        46.0004         34.0004
  22655190.8104   -5688977.14549  -4423153.42047                  22655186.2904
        49.2504         32.2504
  23050602.3494    3831458.95349   2979685.94547                  23050600.7864
        44.7504         28.5004
 04  7  7 14 44 30.0010000  0  8G 6G15G16G18G21G26G22G29
  21014231.2864    4539457.25449   3548734.01847                  21014228.8564
        50.5004         38.7504
  23389514.9114   -4523333.78949  -3513164.32946                  23389513.1814
        44.0004         24.7504
  23873264.8964    -453484.02049   -352554.73846                  23873261.9074
        41.0004         23.0004
  20867819.7084   -2243058.96149  -1770209.95747                  20867815.8764
        50.2504         39.2504
  20970841.3724    -908940.62149   -720756.31347                  20970837.4464
        51.2504         38.5004
  21920670.7164    1429438.30549   1114768.53547                  21920668.6384
        47.0004         33.5004
  22651627.8254   -5707700.66449  -4437743.17947                  22651623.4464
        48.5004         32.0004
  23054994.0754    3854536.03149   2997668.07647                  23054992.0834
        44.5004         28.5004
 04  7  7 14 44 40.0010000  0  8G 6G15G16G18G21G26G22G29
  21019031.4664    4564682.39849   3568389.98047                  21019028.9424
        50.7504         39.0004
  23386144.3104   -4541048.02749  -3526967.62346                  23386142.2204
        43.5004         25.5004
  23874330.5134    -447882.99249   -348190.31846                  23874327.7434
        39.0004         23.2504
  20867216.0834   -2246229.72349  -1772680.67348                  20867212.7044
        50.0004         39.5004
  20970594.9194    -910235.25849   -721765.10947                  20970590.9384
        51.5004         38.5004
  21923545.9194    1444548.94549   1126543.05547                  21923544.1144
        48.0004         33.5004
  22648071.8564   -5726388.86749  -4452305.42947                  22648067.0914
        48.5004         32.7504
  23059396.4114    3877669.16449   3015693.88347                  23059394.2394
        45.0004         29.0004
 04  7  7 14 44 50.0010000  0  8G 6G15G16G18G21G26G22G29
  21023841.6224    4589959.85249   3588086.68347                  21023838.8994
        50.0004         39.2504
  23382773.7864   -4558757.68449  -3540767.35647                  23382772.1344
        43.5004         26.7504
  23875407.4584    -442224.05949   -343780.74546                  23875404.5954
        39.0004         22.5004
  20866621.7714   -2249353.46149  -1775114.76748                  20866618.4274
        50.0004         39.7504
  20970352.5214    -911509.58649   -722758.11447                  20970348.3764
        51.2504         38.7504
  21926435.8884    1459733.88749   1138375.45947                  21926433.8414
        47.2504         34.0004
  22644522.3494   -5745041.37949  -4466839.84647                  22644517.7314
        48.0004         33.5004
  23063809.0444    3900858.37949   3033763.39147                  23063806.7554
        46.0004         29.7504
 04  7  7 14 45  0.0010000  0  8G 6G15G16G18G21G26G22G29
  21028661.8334    4615289.87149   3607824.35947                  21028659.3844
        50.0004         39.0004
  23379404.6614   -4576462.45749  -3554563.28247                  23379402.8294
        43.5004         25.7504
  23876494.7714    -436507.10949   -339326.03346                  23876492.5404
        38.0004         22.5004
  20866036.3644   -2252429.75449  -1777511.86348                  20866032.7824
        50.2504         40.0004
  20970114.0834    -912763.37149   -723735.09147                  20970109.7004
        51.2504         38.0004
  21929339.3254    1474993.42649   1150266.01847                  21929337.4074
        47.5004         33.7504
  22640979.6924   -5763657.93749  -4481346.25847                  22640975.5914
        48.5004         32.7504
  23068232.5754    3924104.10549   3051876.94147                  23068230.5094
        46.0004         28.5004
 04  7  7 14 45 10.0010000  0  8G 6G15G16G18G21G26G22G29
  21033491.5364    4640671.81349   3627602.49647                  21033488.9424
        50.2504         38.5004
  23376036.3494   -4594162.88349  -3568355.79447                  23376035.0954
        44.2504         26.0004
  23877593.8334    -430732.60249   -334826.38646                  23877591.1264
        39.5004         22.7504
  20865459.7084   -2255459.36349  -1779872.59847                  20865456.3374
        49.5004         39.2504
  20969879.3724    -913997.21549   -724696.52047                  20969875.1104
        51.7504         38.5004
  21932257.4034    1490326.86349   1162214.14747                  21932255.0714
        48.5004         33.5004
  22637443.7084   -5782239.20349  -4495825.15447                  22637439.8374
        48.2504         33.0004
  23072666.5914    3947405.53949   3070033.92847                  23072664.3104
        45.7504         28.2504
 04  7  7 14 45 20.0010000  0  8G 6G15G16G18G21G26G22G29
  21038331.7084    4666105.37149   3647420.84547                  21038328.6384
        50.7504         38.0004
  23372668.7314   -4611859.19949  -3582145.14347                  23372667.1184
        44.5004         26.2504
  23878703.3334    -424900.91049   -330282.20046                  23878700.5134
        39.0004         22.0004
  20864892.3724   -2258442.54749  -1782197.15747                  20864888.6304
        49.7504         38.7504
  20969648.0214    -915211.38749   -725642.62947                  20969644.1224
        51.2504         38.0004
  21935189.4424    1505734.00849   1174219.71447                  21935187.4314
        48.0004         32.7504
  22633914.4974   -5800785.37149  -4510276.72147                  22633910.3804
        48.0004         33.0004
  23077110.8334    3970762.41449   3088234.05947                  23077109.5014
        45.5004         27.7504
 04  7  7 14 45 30.0010000  0  8G 6G15G16G18G21G26G22G29
  21043181.7714    4691590.70349   3667279.54447                  21043178.7784
        51.2504         38.5004
  23369302.6614   -4629551.19549  -3595931.11447                  23369300.5874
        45.2504         26.0004
  23879824.4664    -419011.89849   -325693.39846                  23879821.7864
        40.5004         22.7504
  20864333.2474   -2261379.17249  -1784485.42548                  20864330.0484
        50.5004         39.5004
  20969420.7004    -916405.64149   -726573.20947                  20969416.5674
        51.2504         38.2504
  21938134.9894    1521214.93049   1186282.76747                  21938132.9114
        48.5004         33.5004
  22630392.0364   -5819296.22749  -4524700.76147                  22630387.7474
        48.7504         33.0004
  23081566.4814    3994174.88349   3106477.53447                  23081564.9584
        44.5004         27.7504
 04  7  7 14 45 40.0010000  0  8G 6G15G16G18G21G26G22G29
  21048041.1464    4717128.37149   3687179.02047                  21048038.5874
        51.0004         39.2504
  23365936.5994   -4647238.28549  -3609713.23247                  23365934.5364
        44.5004         26.5004
  23880955.4354    -413064.98849   -321059.45146                  23880953.2394
        39.7504         25.0004
  20863783.2004   -2264268.62549  -1786736.96248                  20863780.0214
        50.7504         39.7504
  20969197.4194    -917579.32849   -727487.78847                  20969193.4114
        51.2504         38.5004
  21941095.2004    1536770.18849   1198403.73347                  21941092.9544
        48.0004         33.7504
  22626876.3804   -5837771.09049  -4539096.76747                  22626872.2824
        49.2504         33.0004
  23086031.9894    4017643.47749   3124764.75047                  23086030.7204
        44.2504         29.0004
 04  7  7 14 45 50.0010000  0  8G 6G15G16G18G21G26G22G29
  21052910.5834    4742717.24249   3707118.39648                  21052907.9784
        51.0004         39.7504
  23362571.9504   -4664921.55549  -3623492.42147                  23362569.8494
        45.0004         27.5004
  23882097.9814    -407061.18449   -316381.17546                  23882095.3174
        40.0004         24.0004
  20863242.4664   -2267112.01649  -1788952.58048                  20863239.1264
        50.5004         39.7504
  20968977.6534    -918733.51649   -728387.14847                  20968973.6884
        51.0004         38.0004
  21944069.0994    1552398.73049   1210581.82647                  21944066.8414
        47.7504         34.5004
  22623367.7004   -5856210.99649  -4553465.51147                  22623363.4384
        48.5004         33.0004
  23090508.1304    4041166.99249   3143094.75047                  23090507.0604
        44.5004         28.5004
 04  7  7 14 46  0.0010000  0  8G 6G15G16G18G21G26G22G29
  21057789.8174    4768358.18849   3727098.35448                  21057787.1964
        50.2504         39.7504
  23359207.4894   -4682600.14849  -3637267.94947                  23359205.5364
        45.0004         26.7504
  23883251.7244    -400999.71549   -311657.98046                  23883249.6184
        40.7504         22.5004
  20862710.3254   -2269908.42249  -1791131.61048                  20862706.6494
        49.7504         40.0004
  20968762.6144    -919867.36749   -729270.68347                  20968758.1654
        51.0004         38.7504
  21947057.3024    1568101.38349   1222817.63547                  21947054.9854
        48.0004         35.0004
  22619865.2784   -5874615.13749  -4567806.41147                  22619861.2904
        49.0004         34.0004
  23094995.9034    4064746.31649   3161468.22247                  23094994.0994
        43.5004         29.2504
 04  7  7 14 46 10.0010000  0  8G 6G15G16G18G21G26G22G29
  21062678.9114    4794051.24249   3747118.90147                  21062676.3374
        50.7504         39.2504
  23355844.6854   -4700273.90249  -3651039.69247                  23355842.4504
        44.7504         26.2504
  23884415.7784    -394880.48849   -306889.75846                  23884414.5524
        39.2504         22.0004
  20862186.8644   -2272657.74649  -1793273.93448                  20862183.9544
        50.0004         40.0004
  20968550.4744    -920980.68449   -730138.20247                  20968546.5794
        51.7504         38.5004
  21950059.8254    1583878.26649   1235111.31747                  21950057.9854
        47.5004         34.5004
  22616369.8804   -5892983.31249  -4582119.26147                  22616366.1534
        49.5004         34.0004
  23099492.9424    4088381.45749   3179885.20547                  23099491.6104
        44.0004         28.7504
 04  7  7 14 46 20.0010000  0  8G 6G15G16G18G21G26G22G29
  21067577.9894    4819795.49649   3767179.36447                  21067575.3534
        51.2504         39.0004
  23352482.0914   -4717943.68049  -3664808.34547                  23352479.9814
        46.0004         28.5004
  23885591.5994    -388704.32049   -302077.18246                  23885589.5014
        40.0004         22.2504
  20861672.7864   -2275360.87549  -1795380.26248                  20861669.5404
        49.2504         39.5004
  20968342.0054    -922074.32449   -730990.38547                  20968338.0364
        51.0004         38.5004
  21953075.5914    1599728.48049   1247462.13547                  21953074.1264
        47.0004         34.0004
  22612881.0754   -5911316.35249  -4596404.74347                  22612877.2354
        49.5004         33.5004
  23104001.2004    4112071.62949   3198345.04847                  23103999.4624
        45.0004         27.5004
 04  7  7 14 46 30.0010000  0  8G 6G15G16G18G21G26G22G29
  21072486.9814    4845591.28949   3787279.97747                  21072484.2634
        51.0004         39.0004
  23349120.1064   -4735609.15249  -3678573.65847                  23349118.5874
        45.2504         28.5004
  23886778.0054    -382471.00449   -297220.06146                  23886775.7514
        39.5004         22.7504
  20861167.1924   -2278017.48849  -1797450.35548                  20861163.8924
        50.0004         39.5004
  20968137.8724    -923147.94149   -731826.97747                  20968133.7674
        51.2504         38.5004
  21956105.9194    1615652.32449   1259870.31047                  21956104.1344
        47.5004         34.0004
  22609399.2244   -5929613.85549  -4610662.54347                  22609395.5054
        48.7504         33.0004
  23108519.8174    4135816.88749   3216847.84647                  23108518.0054
        45.2504         28.2504
 04  7  7 14 46 40.0010000  0  8G 6G15G16G18G21G26G22G29
  21077404.9744    4871437.97349   3807420.26147                  21077402.7944
        50.7504         39.0004
  23345759.5674   -4753270.87949  -3692336.02647                  23345757.6264
        45.7504         28.7504
  23887975.0604    -376181.09449   -292318.84846                  23887971.9384
        39.5004         22.5004
  20860670.4424   -2280628.11749  -1799484.59747                  20860666.7314
        50.5004         39.2504
  20967937.2244    -924202.02349   -732648.34047                  20967933.4354
        51.7504         38.5004
  21959150.1304    1631649.20349   1272335.42547                  21959148.4384
        46.5004         34.0004
  22605924.2244   -5947876.43449  -4624893.10747                  22605920.2394
        48.5004         33.5004
  23113048.9424    4159616.82849   3235393.26147                  23113047.0834
        44.5004         28.2504
 04  7  7 14 46 50.0010000  0  8G 6G15G16G18G21G26G22G29
  21082333.3644    4897335.71949   3827600.30147                  21082330.7674
        51.0004         38.5004
  23342399.7784   -4770928.63749  -3706095.33847                  23342397.5564
        45.5004         28.5004
  23889182.0994    -369834.41449   -287373.35746                  23889180.0134
        40.0004         24.2504
  20860182.4814   -2283192.63349  -1801482.92248                  20860178.8884
        50.0004         39.7504
  20967740.4894    -925236.43449   -733454.38347                  20967736.5174
        51.5004         39.0004
  21962208.1224    1647719.27349   1284857.52947                  21962206.5134
        47.0004         34.2504
  22602455.6304   -5966103.77349  -4639096.24247                  22602451.4154
        48.5004         34.0004
  23117588.3724    4183471.48849   3253981.28747                  23117586.3134
        45.2504         29.0004
 04  7  7 14 47  0.0010000  0  8G 6G15G16G18G21G26G22G29
  21087271.1854    4923284.54349   3847820.17247                  21087268.6814
        50.0004         38.5004
  23339039.9274   -4788582.44949  -3719851.53547                  23339038.3374
        45.5004         28.2504
  23890400.9194    -363431.00449   -282383.74746                  23890398.6104
        40.7504         24.5004
  20859703.0754   -2285710.96549  -1803445.26347                  20859699.8104
        50.0004         39.2504
  20967547.2554    -926251.10949   -734245.03947                  20967543.8374
        51.5004         38.5004
  21965279.8104    1663862.46149   1297436.64747                  21965278.4114
        46.0004         33.7504
  22598993.4664   -5984295.96549  -4653271.96647                  22598989.7314
        48.5004         33.7504
  23122138.5214    4207380.70749   3272611.86347                  23122136.3134
        45.5004         29.5004
 04  7  7 14 47 10.0010000  0  8G 6G15G16G18G21G26G22G29
  21092218.8964    4949284.84449   3868080.13847                  21092216.3884
        49.0004         39.2504
  23335681.4114   -4806231.68049  -3733604.19547                  23335679.6654
        42.5004         28.7504
  23891630.4814    -356970.23449   -277349.38146                  23891628.6694
        40.7504         24.5004
  20859232.5214   -2288182.68449  -1805371.28248                  20859229.1654
        50.0004         40.0004
  20967358.0754    -927245.33249   -735019.76548                  20967354.0714
        51.2504         39.5004
  21968366.0284    1680079.37949   1310073.18147                  21968364.5484
        45.5004         34.5004
  22595538.5444   -6002452.30149  -4667419.75447                  22595534.8564
        48.0004         34.0004
  23126698.5994    4231345.11349   3291285.36647                  23126696.9784
        45.0004         30.5004
 04  7  7 14 47 20.0010000  0  8G 6G15G16G18G21G26G22G29
  21097176.2784    4975335.98049   3888379.71147                  21097174.0404
        50.0004         39.0004
  23332323.5524   -4823877.07049  -3747353.82947                  23332321.6774
        41.2504         28.5004
  23892871.1304    -350452.93049   -272270.95046                  23892868.0404
        40.7504         23.2504
  20858771.0674   -2290608.46549  -1807261.48948                  20858767.9274
        50.2504         40.5004
  20967172.8174    -928219.82049   -735779.10648                  20967169.1774
        51.5004         39.7504
  21971466.0674    1696369.25449   1322766.58347                  21971464.0364
        47.2504         34.0004
  22592090.2864   -6020573.53149  -4681540.18847                  22592086.5524
        46.5004         33.5004
  23131268.9584    4255363.88749   3310001.29247                  23131267.6854
        45.0004         29.0004
 04  7  7 14 47 30.0010000  0  8G 6G15G16G18G21G26G22G29
  21102143.1464    5001438.43849   3908719.28647                  21102141.2824
        50.5004         39.0004
  23328966.7244   -4841518.05549  -3761100.05447                  23328964.8884
        41.2504         27.5004
  23894121.7164    -343878.46949   -267148.01746                  23894118.9074
        41.0004         24.5004
  20858318.3804   -2292987.78949  -1809115.51248                  20858315.2244
        50.2504         40.0004
  20966991.2944    -929174.02749   -736522.65347                  20966987.2824
        51.5004         38.7504
  21974580.0604    1712732.60249   1335517.25847                  21974577.9154
        46.5004         33.2504
  22588648.8494   -6038658.98449  -4695632.74547                  22588645.0524
        46.5004         33.5004
  23135850.0054    4279437.62549   3328760.04247                  23135848.5014
        45.7504         28.5004
 04  7  7 14 47 40.0010000  0  8G 6G15G16G18G21G26G22G29
  21107120.2164    5027592.18449   3929098.82147                  21107118.2514
        50.0004         38.7504
  23325610.4894   -4859154.55949  -3774842.80647                  23325608.3924
        43.0004         27.5004
  23895383.8254    -337246.98849   -261980.64446                  23895380.7904
        40.7504         23.5004
  20857874.4034   -2295320.54349  -1810933.24448                  20857870.7784
        50.0004         39.5004
  20966813.4354    -930107.88749   -737250.33447                  20966809.9704
        51.5004         38.7504
  21977707.7864    1729169.44149   1348325.17247                  21977705.7164
        45.7504         33.2504
  22585213.4194   -6056708.64849  -4709697.40147                  22585210.2244
        47.2504         33.0004
  23140441.7714    4303566.15649   3347561.48447                  23140439.6534
        45.5004         29.5004
 04  7  7 14 47 50.0010000  0  8G 6G15G16G18G21G26G22G29
  21112106.6534    5053796.83249   3949518.04347                  21112104.7004
        49.2504         38.2504
  23322255.3804   -4876786.92249  -3788582.28947                  23322253.3604
        44.0004         26.7504
  23896656.5444    -330558.78949   -256769.06746                  23896653.6184
        39.5004         22.2504
  20857439.3104   -2297607.16449  -1812715.01547                  20857436.1034
        50.0004         39.2504
  20966639.2784    -931021.72349   -737962.41347                  20966635.5604
        51.2504         38.0004
  21980849.3724    1745679.41049   1361190.08347                  21980847.3924
        46.5004         32.2504
  22581785.5604   -6074722.81249  -4723734.39747                  22581782.0714
        48.2504         32.2504
  23145044.0834    4327749.19149   3366405.41347                  23145041.6184
        45.7504         28.2504
 04  7  7 14 48  0.0010000  0  8G 6G15G16G18G21G26G22G29
  21117102.8334    5080052.09049   3969976.65547                  21117100.9584
        49.7504         38.7504
  23318900.4194   -4894415.48049  -3802318.83147                  23318898.9424
        45.5004         27.0004
  23897939.7554    -323814.22749   -251513.58646                  23897936.8064
        40.0004         22.5004
  20857012.9894   -2299847.98849  -1814461.11648                  20857009.6184
        50.2504         40.2504
  20966469.4894    -931915.75849   -738659.07847                  20966465.2824
        50.7504         38.5004
  21984004.8104    1762262.05949   1374111.60747                  21984003.1534
        47.0004         33.0004
  22578364.5754   -6092701.74649  -4737743.97647                  22578360.6064
        48.5004         32.5004
  23149656.4274    4351986.28149   3385291.42547                  23149653.9234
        45.7504         29.7504
 04  7  7 14 48 10.0010000  0  8G 6G15G16G18G21G26G22G29
  21122108.2554    5106357.59849   3990474.45347                  21122106.4584
        49.0004         38.0004
  23315546.6534   -4912040.35549  -3816052.51847                  23315544.7354
        45.7504         27.5004
  23899234.5834    -317013.53549   -246214.34046                  23899231.5014
        41.0004         23.0004
  20856595.2004   -2302043.16049  -1816171.64048                  20856591.8104
        50.5004         39.7504
  20966302.9424    -932790.14149   -739340.41747                  20966299.3884
        51.0004         38.7504
  21987174.4744    1778917.20749   1387089.66947                  21987172.4664
        46.0004         33.2504
  22574950.1464   -6110645.62949  -4751726.20447                  22574945.9424
        48.2504         33.2504
  23154278.0524    4376277.12949   3404219.36547                  23154276.6104
        46.0004         29.2504
